     2              OBSERVATION DATA    GPS                 RINEX VERSION / TYPE
TRRINEXO V2.8.4 LH                                          PGM / RUN BY / DATE
                                                            COMMENT
Original Marker Name: BLAC                                  COMMENT
Campaign Name: HPGN 1991                                    COMMENT
4-Character Station Name: BLAC                              COMMENT
6-Character Antenna Code: TRMSST                            COMMENT
Vertical Measurement Point: TGP                             COMMENT
Vertical Offset to Rinex Ref. Point: 0.0629                 COMMENT
Radial Measurement Point: OGP                               COMMENT
Radial Offset to Rinex Ref. Point: 0.2413                   COMMENT
Antenna Height from Field Measurement: 1.6110 m             COMMENT
Original XYZ: -2306321.6831 -4787934.8801 3515749.1569      COMMENT
New XYZ position is based on association with SCEC monument COMMENT
E1D0M3T8+0011. Position of that monument is believed to be  COMMENT
valid to within 1 m horizontally; vertical accuracy         COMMENT
should be no worse than 3-times this value.                 COMMENT
                                                            COMMENT
Revised Rinex header created by UCSD GPS archive for        COMMENT
GSAC on 12-Apr-1999 (1999:102) 13:08:49 GMT                 COMMENT
For assistance contact dagnew@ucsd.edu or hjohnson@ucsd.edu COMMENT
                                                            COMMENT
BLACK BUTTE NCMN 1982                                       MARKER NAME
UNKNOWN OBSERVER NATIONAL GEODETIC SURVEY                   OBSERVER / AGENCY
486 TRIMBLE 4000 SST 4.30 / 4.20                            REC # / TYPE / VERS
17 TR 4000SST L1/L2 GEO                                     ANT # / TYPE
 -2306307.0000 -4787914.0000  3515736.0000                  APPROX POSITION XYZ
        1.5299        0.0000        0.0000                  ANTENNA: DELTA H/E/N
     1     2     0                                          WAVELENGTH FACT L1/2
     3    C1    L1    L2                                    # / TYPES OF OBSERV
     0                                                      INTERVAL
  1991     4    18    20    11   15.000000                  TIME OF FIRST OBS
  1991     4    19     2    18    0.000000                  TIME OF LAST OBS
     0                                                      # OF SATELLITES
                                                            END OF HEADER
 91  4 18 20 11 15.2000000  0  4 18 11 19 02
  20444762.238           0.003 8
  23537718.510           0.638 6
  20870675.076           0.116 6
  23950941.900           0.101 5
 91  4 18 20 11 30.0480000  0  4 18 11 19 02
  20445592.771        4367.202 8         0.00519
  23529893.742      -41117.872 6
  20867784.330      -15193.363 7         0.33719
  23940282.170      -56024.533 5
 91  4 18 20 11 45.1520000  0  4 18 11 19 02
  20446453.918        8891.240 8      3525.199 9
  23521947.208      -82885.732 6         0.27517
  20864846.675      -30643.455 7    -12038.690 9
  23929438.066     -113006.377 5
 91  4 18 20 12  0.2560000  0  4 18 11 19 02
  20447332.482       13507.873 8      7122.546 9
  23514011.329     -124582.737 6    -32490.740 7
  20861909.459      -46077.840 6    -24065.470 9
  23918596.915     -169968.937 5         0.24116
 91  4 18 20 12 15.1040000  0  4 18 11 19 02
  20448216.143       18146.091 8     10736.712 9
  23506227.318     -165493.877 6    -64369.407 7
  20859026.660      -61225.771 6    -35869.053 9
  23907946.460     -225937.339 5    -43611.306 7
 91  4 18 20 12 30.2080000  0  4 18 11 19 02
  20449134.137       22971.207 8     14496.513 9
  23498323.300     -207024.138 6    -96730.484 7
  20856103.122      -76604.081 6    -47852.143 9
  23897120.140     -282836.125 5    -87947.817 6
 91  4 18 20 12 45.0560000  0  4 18 11 19 02
  20450058.005       27829.154 8     18281.891 9
  23490572.070     -247755.974 6   -128469.435 7
  20853230.436      -91682.036 6    -59601.188 9
  23886482.557     -338727.023 5   -131498.964 6
 91  4 18 20 13  0.1600000  0  4 18 11 19 02
  20451022.458       32891.886 8     22226.840 9
  23482707.115     -289088.831 6   -160676.683 8
  20850322.650     -106974.885 6    -71517.690 9
  23875672.929     -395532.449 5   -175762.723 7
 91  4 18 20 13 15.0080000  0  4 18 11 19 02
  20451992.182       37990.453 8     26199.721 9
  23474993.968     -329618.719 6   -192258.254 7
  20847467.288     -121961.772 6    -83195.779 9
  23865057.185     -451323.946 6   -219236.410 6
 91  4 18 20 13 30.1120000  0  4 18 11 19 02
  20453005.381       43310.526 8     30345.198 9
  23467170.343     -370733.255 6   -224295.396 7
  20844578.278     -137149.985 6    -95030.738 9
  23854270.430     -508015.718 6   -263411.610 7
 91  4 18 20 13 45.2160000  0  4 18 11 19 02
  20454041.840       48762.285 8     34593.286 9
  23459365.443     -411735.151 6   -256244.767 7
  20841697.777     -152283.362 6   -106822.969 9
  23843492.469     -564648.039 6   -307540.480 7
 91  4 18 20 14  0.0640000  0  4 18 11 19 02
  20455083.264       54232.596 8     38855.836 9
  23451713.219     -451949.146 6   -287580.192 7
  20838877.045     -167124.031 6   -118387.123 9
  23832905.767     -620279.515 5   -350889.482 6
 91  4 18 20 14 15.1680000  0  4 18 11 19 02
  20456161.698       59898.517 8     43270.799 9
  23443945.727     -492773.240 6   -319391.005 8
  20836005.850     -182195.526 6   -130131.141 9
  23822142.967     -676840.105 5   -394962.454 7
 91  4 18 20 14 30.0160000  0  4 18 11 19 02
  20457240.427       65573.424 8     47692.769 9
  23436324.884     -532817.715 6   -350594.340 7
  20833192.963     -196981.208 6   -141652.445 9
  23811565.693     -732406.622 6   -438260.829 7
 91  4 18 20 14 45.1200000  0  4 18 11 19 02
  20458364.328       71472.992 8     52289.799 9
  23428596.159     -573443.391 6   -382250.553 7
  20830339.879     -211971.321 6   -153333.047 9
  23800821.821     -788875.358 6   -482262.225 7
 91  4 18 20 15  0.2240000  0  4 18 11 19 02
  20459514.094       77515.406 8     56998.144 9
  23420888.262     -613943.654 6   -413809.035 7
  20827501.893     -226895.578 6   -164962.329 9
  23790089.308     -845272.732 6   -526208.016 7
 91  4 18 20 15 15.0720000  0  4 18 11 19 02
  20460673.819       83610.009 8     61747.155 9
  23413338.548     -653619.145 6   -444724.858 7
  20824723.105     -241487.029 6   -176332.296 9
  23779557.676     -900628.723 6   -569342.343 6
 91  4 18 20 15 30.1760000  0  4 18 11 19 02
  20461880.412       89952.246 8     66689.131 9
  23405680.328     -693852.199 6   -476075.132 7
  20821911.709     -256263.466 6   -187846.399 9
  23768855.247     -956866.621 6   -613163.846 7
 91  4 18 20 15 45.0240000  0  4 18 11 19 02
  20463088.761       96305.340 8     71639.561 9
  23398173.548     -733300.387 6   -506813.820 7
  20819155.996     -270745.698 6   -199131.252 9
  23758342.228    -1012101.900 6   -656204.109 7
 91  4 18 20 16  0.1280000  0  4 18 11 19 02
  20464340.157      102871.863 8     76756.310 9
  23390555.229     -773340.229 6   -538013.539 7
  20816358.167     -285449.780 6   -210588.974 9
  23747655.796    -1068255.607 6   -699960.027 7
 91  4 18 20 16 15.2320000  0  4 18 11 19 02
  20465609.706      109545.668 8     81956.654 9
  23382952.122     -813288.137 6   -569141.628 7
  20813564.699     -300123.317 6   -222022.890 9
  23736978.660    -1124372.509 6   -743687.260 7
 91  4 18 20 16 30.0800000  0  4 18 11 19 02
  20466877.313      116209.809 8     87149.472 9
  23375497.438     -852470.107 6   -599672.873 7
  20810827.425     -314519.673 6   -233240.830 9
  23726486.561    -1179503.356 6   -786646.144 7
 91  4 18 20 16 45.1840000  0  4 18 11 19 02
  20468187.314      123097.740 8     92516.668 9
  23367931.726     -892233.371 6   -630657.081 7
  20808045.694     -329131.943 6   -244627.010 9
  23715821.622    -1235545.470 6   -830315.108 7
 91  4 18 20 17  0.0320000  0  4 18 11 19 02
  20469498.693      129981.777 8     97880.837 9
  23360509.945     -931223.449 6   -661038.804 7
  20805319.350     -343458.342 6   -255790.439 9
  23705346.706    -1290592.930 5   -873209.013 7
 91  4 18 20 17 15.1360000  0  4 18 11 19 02
  20470854.427      137109.594 8    103434.960 9
  23352983.878     -970774.075 6   -691857.322 7
  20802554.812     -357982.479 7   -267107.937 9
  23694701.758    -1346533.350 6   -916798.714 7
 91  4 18 20 17 30.2400000  0  4 18 11 19 02
  20472233.737      144355.355 8    109080.986 9
  23345477.669    -1010220.066 6   -722594.305 8
  20799801.306     -372465.185 6   -278393.156 9
  23684065.993    -1402425.255 5   -960350.620 7
 91  4 18 20 17 45.0880000  0  4 18 11 19 02
  20473612.393      151605.952 8    114730.780 9
  23338120.520    -1048882.502 6   -752720.731 7
  20797099.008     -386649.531 7   -289445.882 9
  23673621.087    -1457309.615 6  -1003117.427 7
 91  4 18 20 18  0.1920000  0  4 18 11 19 02
  20475040.011      159107.270 8    120575.940 9
  23330655.754    -1088098.329 6   -783278.371 8
  20794367.240     -401028.770 6   -300650.475 9
  23663007.530    -1513083.111 6  -1046577.060 7
 91  4 18 20 18 15.0400000  0  4 18 11 19 02
  20476468.129      166604.807 8    126418.156 9
  23323343.164    -1126537.917 6   -813231.144 7
  20791683.861     -415115.629 7   -311627.243 9
  23652585.221    -1567855.181 6  -1089256.378 7
 91  4 18 20 18 30.1440000  0  4 18 11 19 02
  20477941.142      174349.086 8    132452.632 9
  23315922.426    -1165534.481 6   -843617.925 8
  20788962.114     -429403.819 6   -322760.888 9
  23641990.899    -1623522.383 5  -1132633.189 7
 91  4 18 20 18 45.2480000  0  4 18 11 19 02
  20479437.304      182212.744 8    138580.136 9
  23308522.005    -1204423.046 6   -873920.550 8
  20786254.126     -443649.060 6   -333861.064 9
  23631408.130    -1679138.916 5  -1175970.515 7
 91  4 18 20 19  0.0960000  0  4 18 11 19 02
  20480931.319      190066.071 8    144699.596 9
  23301270.931    -1242540.301 6   -903622.161 7
  20783597.705     -457604.491 6   -344735.420 9
  23621013.729    -1733756.534 6  -1218529.484 7
 91  4 18 20 19 15.2000000  0  4 18 11 19 02
  20482476.360      198181.493 8    151023.254 9
  23293910.942    -1281198.745 6   -933745.468 8
  20780906.481     -471749.870 6   -355757.784 9
  23610452.780    -1789256.844 6  -1261776.254 7
 91  4 18 20 19 30.0480000  0  4 18 11 19 02
  20484017.315      206276.290 8    157330.857 9
  23286700.637    -1319095.002 6   -963274.868 7
  20778269.040     -485613.094 6   -366560.283 9
  23600080.833    -1843765.948 6  -1304250.652 7
 91  4 18 20 19 45.1510000  0  4 18 11 19 02
  20485606.995      214629.170 8    163839.562 9
  23279383.368    -1357535.770 6   -993228.556 8
  20775592.597     -499672.276 6   -377515.485 9
  23589536.626    -1899163.346 5  -1347417.244 7
 91  4 18 20 20  0.2540000  0  4 18 11 19 02
  20187425.966      223102.787 8    170442.346 9
  22972299.221    -1395862.150 6  -1023093.110 8
  20473133.145     -513685.498 6   -388434.871 9
  23279212.742    -1954503.332 5  -1390539.071 7
 91  4 18 20 20 15.1020000  0  4 18 11 19 02
  20189033.084      231544.688 8    177020.416 9
  22965146.509    -1433439.021 6  -1052373.646 7
  20470518.678     -527425.182 6   -399141.116 9
  23268870.009    -2008863.596 6  -1432897.504 8
 91  4 18 20 20 30.2060000  0  4 18 11 19 02
  20190688.132      240244.122 8    183799.150 9
  22957894.004    -1471560.464 6  -1082078.522 8
  20467867.538     -541365.685 6   -410003.830 9
  23258356.817    -2064115.968 6  -1475951.080 7
 91  4 18 20 20 45.0540000  0  4 18 11 19 02
  20192336.243      248900.958 8    190544.697 9
  22950781.366    -1508938.976 6  -1111204.481 7
  20465264.001     -555039.202 6   -420658.510 9
  23248025.985    -2118392.329 6  -1518244.125 7
 91  4 18 20 21  0.1580000  0  4 18 11 19 02
  20194031.743      257810.257 8    197486.963 9
  22943564.248    -1546866.557 6  -1140758.299 7
  20462625.272     -568920.649 6   -431475.218 9
  23237527.431    -2173567.529 6  -1561237.564 7
 91  4 18 20 21 15.0060000  0  4 18 11 19 02
  20195715.689      266663.504 8    204385.556 9
  22936485.279    -1584063.483 6  -1169742.784 7
  20460029.590     -582545.935 7   -442092.312 9
  23227211.800    -2227777.510 6  -1603478.874 7
 91  4 18 20 21 30.1100000  0  4 18 11 19 02
  20197451.415      275775.530 8    211485.785 9
  22929302.382    -1621802.584 6  -1199149.731 7
  20457400.301     -596375.297 6   -452868.423 9
  23216725.678    -2282881.975 6  -1646417.205 7
 91  4 18 20 21 45.2140000  0  4 18 11 19 02
  20199205.478      284999.936 8    218673.584 9
  22922141.590    -1659436.333 6  -1228474.592 8
  20454773.902     -610168.601 6   -463616.448 9
  23206249.229    -2337940.727 6  -1689319.917 7
 91  4 18 20 22  0.0620000  0  4 18 11 19 02
  20200952.401      294177.163 8    225824.621 9
  22915121.542    -1696329.301 6  -1257222.228 7
  20452200.500     -623692.976 6   -474154.906 9
  23195954.989    -2392021.501 6  -1731460.544 7
 91  4 18 20 22 15.1660000  0  4 18 11 19 02
  20202749.163      303624.407 8    233186.058 9
  22907999.803    -1733752.534 6  -1286383.047 7
  20449588.034     -637414.056 6   -484846.642 9
  23185496.917    -2446988.176 6  -1774291.500 7
 91  4 18 20 22 30.0140000  0  4 18 11 19 02
  20204538.968      313024.438 8    240510.710 9
  22901019.809    -1770434.026 6  -1314965.910 8
  20447029.281     -650863.649 6   -495326.832 9
  23175225.171    -2500974.393 6  -1816358.451 7
 91  4 18 20 22 45.1180000  0  4 18 11 19 02
  20206380.391      322703.072 8    248052.443 9
  22893940.320    -1807636.710 6  -1343954.869 7
  20444433.027     -664503.938 6   -505955.621 9
  23164781.768    -2555840.008 6  -1859110.653 8
 91  4 18 20 23  0.2220000  0  4 18 11 19 02
  20208244.553      332492.692 8    255680.676 9
  22886880.893    -1844733.117 6  -1372861.019 7
  20441844.567     -678109.014 7   -516556.970 9
  23154350.982    -2610659.879 6  -1901827.206 7
 91  4 18 20 23 15.0700000  0  4 18 11 19 02
  20210094.771      342225.944 8    263264.976 9
  22879962.160    -1881095.512 6  -1401195.228 7
  20439305.508     -691447.658 7   -526950.706 9
  23144104.416    -2664504.534 6  -1943783.866 7
 91  4 18 20 23 30.1740000  0  4 18 11 19 02
  20212001.938      352246.596 8    271073.231 9
  22872942.736    -1917969.293 6  -1429927.917 7
  20436733.372     -704971.761 7   -537488.957 9
  23133692.333    -2719222.400 6  -1986420.939 7
 91  4 18 20 23 45.0220000  0  4 18 11 19 02
  20213899.799      362214.401 8    278840.293 9
  22866065.793    -1954104.653 6  -1458085.219 7
  20434211.669     -718223.283 6   -547814.805 9
  23123465.187    -2772959.039 6  -2028293.423 8
 91  4 18 20 24  0.1260000  0  4 18 11 19 02
  20215849.921      372465.852 8    286828.389 9
  22859091.500    -1990754.637 6  -1486643.506 7
  20431652.782     -731666.526 7   -558290.047 9
  23113072.053    -2827574.465 6  -2070850.674 7
 91  4 18 20 24 15.2300000  0  4 18 11 19 02
  20217822.149      382831.634 8    294905.567 9
  22852139.190    -2027293.280 6  -1515115.049 7
  20429102.803     -745070.929 7   -568735.031 9
  23102687.133    -2882139.982 6  -2113369.044 7
 91  4 18 20 24 30.0780000  0  4 18 11 19 02
  20219782.700      393130.565 8    302930.660 9
  22845324.581    -2063106.240 6  -1543021.126 8
  20426601.111     -758212.815 6   -578975.457 9
  23092489.100    -2935734.372 6  -2155130.700 7
 91  4 18 20 24 45.1820000  0  4 18 11 19 02
  20221796.228      403714.576 8    311177.889 9
  22838413.152    -2099431.232 6  -1571326.186 7
  20424064.177     -771548.533 6   -589366.919 9
  23082124.622    -2990208.820 6  -2197578.127 7
 91  4 18 20 25  0.0300000  0  4 18 11 19 02
  20223796.496      414223.289 8    319366.454 9
  22831635.051    -2135038.123 6  -1599071.692 8
  20421577.685     -784627.475 6   -599558.305 9
  23071940.103    -3043717.763 6  -2239273.198 7
 91  4 18 20 25 15.1340000  0  4 18 11 19 02
  20225849.780      425017.022 8    327777.108 9
  22824763.339    -2171156.434 6  -1627215.700 8
  20419049.270     -797902.788 6   -609902.704 9
  23061591.190    -3098108.361 6  -2281655.295 8
 91  4 18 20 25 30.2380000  0  4 18 11 19 02
  20227923.884      435911.841 8    336266.535 9
  22817908.758    -2207174.626 6  -1655281.691 8
  20416530.754     -811152.214 6   -620226.925 9
  23051248.285    -3152461.332 6  -2324008.047 7
 91  4 18 20 25 45.0860000  0  4 18 11 19 02
  20229982.593      446732.054 8    344697.828 9
  22811191.285    -2242472.957 6  -1682786.759 8
  20414055.448     -824140.344 6   -630347.546 9
  23041089.590    -3205844.837 6  -2365605.383 8
 91  4 18 20 26  0.1900000  0  4 18 11 19 02
  20232097.199      457842.406 8    353355.194 9
  22804379.250    -2278276.508 6  -1710685.498 8
  20411547.249     -837323.208 6   -640619.905 9
  23030764.367    -3260107.716 6  -2407887.953 7
 91  4 18 20 26 15.0380000  0  4 18 11 19 02
  20234192.498      468857.241 8    361938.142 9
  22797698.745    -2313380.183 6  -1738038.896 8
  20409086.050     -850262.760 6   -650702.668 9
  23020616.071    -3313419.192 6  -2449429.160 7
 91  4 18 20 26 30.1420000  0  4 18 11 19 02
  20236346.136      480173.657 8    370756.094 9
  22790924.006    -2348976.902 6  -1765776.470 8
  20406591.447     -863387.845 6   -660930.000 9
  23010309.307    -3367600.278 6  -2491647.999 7
 91  4 18 20 26 45.2460000  0  3 18 19 02
  20238522.697      491610.361 8    379667.772 9
  20404098.847     -876467.522 6   -671121.955 9
  23000009.529    -3421723.575 6  -2533821.792 8
 91  4 18 20 27  0.0940000  0  4 18 11 19 02
  20240686.826      502979.967 8    388527.178 9
  22777562.666    -2419198.727 6  -1820494.535 7
  20401661.316     -889271.465 6   -681099.049 9
  22989893.718    -3474863.346 6  -2575229.228 7
 91  4 18 20 27 15.1980000  0  4 18 11 19 02
  20242910.714      514671.553 8    397637.468 9
  22770859.441    -2454416.227 6  -1847936.627 8
  20399192.680     -902244.391 6   -691207.818 9
  22979623.258    -3528854.830 6  -2617300.324 8
 91  4 18 20 27 30.0460000  0  4 18 11 19 02
  20245120.739      526277.294 8    406680.874 9
  22764292.365    -2488922.499 6  -1874824.516 8
  20396775.233     -914957.884 6   -701114.432 9
  22969530.727    -3581879.026 6  -2658617.695 7
 91  4 18 20 27 45.1500000  0  4 18 11 19 02
  20247384.803      538185.596 8    415960.037 9
  22757632.842    -2523918.727 6  -1902094.179 8
  20394318.958     -927861.947 6   -711169.544 9
  22959274.375    -3635776.127 6  -2700615.251 7
 91  4 18 20 28  0.2540000  0  4 18 11 19 02
  20249675.161      550216.716 8    425334.906 9
  22750999.254    -2558789.177 6  -1929265.842 8
  20391873.061     -940717.715 6   -721187.028 9
  22949032.620    -3689611.802 6  -2742564.949 7
 91  4 18 20 28 15.1020000  0  4 18 11 19 02
  20251949.286      562171.625 8    434650.386 9
  22744500.385    -2592937.654 6  -1955874.926 8
  20389477.423     -953300.185 6   -730991.545 9
  22938971.439    -3742466.808 6  -2783750.488 8
 91  4 18 20 28 30.2060000  0  4 18 11 19 02
  20254290.576      574467.575 8    444231.615 9
  22737914.665    -2627536.197 6  -1982834.712 8
  20387054.898     -966038.084 6   -740917.185 9
  22928753.455    -3796158.495 6  -2825587.964 8
 91  4 18 20 28 45.0540000  0  4 18 11 19 02
  20256617.167      586693.982 8    453758.648 9
  22731471.060    -2661405.670 6  -2009226.394 8
  20384684.018     -978493.560 6   -750622.749 9
  22918725.801    -3848860.548 6  -2866654.315 8
 91  4 18 20 29  0.1580000  0  4 18 11 19 02
  20259009.655      599267.254 8    463555.964 9
  22724940.820    -2695718.803 6  -2035963.787 8
  20382286.530     -991101.273 6   -760446.947 9
  22908538.810    -3902395.255 6  -2908369.487 8
 91  4 18 20 29 15.0060000  0  4 18 11 19 02
  20261387.832      611763.793 8    473293.490 9
  22718550.650    -2729309.198 6  -2062138.006 8
  20379938.790    -1003430.964 6   -770054.501 9
  22898538.491    -3954944.855 6  -2949317.028 8
 91  4 18 20 29 30.1100000  0  4 18 11 19 02
  20263831.590      624607.305 8    483301.389 9
  22712071.822    -2763342.002 6  -2088656.959 8
  20377563.806    -1015915.127 6   -779782.424 9
  22888380.583    -4008328.557 6  -2990914.525 8
 91  4 18 20 29 45.2140000  0  4 18 11 19 02
  20266301.386      637584.080 8    493413.112 9
  22705622.977    -2797236.024 6  -2115067.772 8
  20375199.364    -1028339.832 6   -789464.016 9
  22878233.666    -4061639.033 6  -3032454.968 8
 91  4 18 20 30  0.0620000  0  4 18 11 19 02
  20268755.625      650476.869 8    503459.398 9
  22699310.279    -2830413.591 6  -2140920.316 8
  20372886.509    -1040489.657 6   -798931.412 9
  22868277.518    -4113967.952 6  -3073230.562 8
 91  4 18 20 30 15.1660000  0  4 18 11 19 02
  20271274.710      663716.418 8    513775.881 9
  22692912.438    -2864032.403 6  -2167116.682 8
  20370544.275    -1052797.262 6   -808521.757 9
  22858158.408    -4167133.545 6  -3114658.125 8
 91  4 18 20 30 30.0140000  0  4 18 11 19 02
  20273776.551      676867.394 8    524023.350 9
  22686648.211    -2896939.072 6  -2192758.135 7
  20368255.977    -1064832.103 6   -817899.564 9
  22848229.708    -4219320.084 6  -3155322.785 8
 91  4 18 20 30 45.1180000  0  4 18 11 19 02
  20276346.956      690376.519 8    534549.887 9
  22680304.837    -2930274.700 6  -2218733.832 8
  20365936.319    -1077015.973 6   -827393.493 9
  22838141.570    -4272333.656 6  -3196631.876 8
 91  4 18 20 31  0.2220000  0  4 18 11 19 02
  20278941.653      704010.792 8    545173.954 9
  22673987.472    -2963477.661 6  -2244606.156 8
  20363626.712    -1089148.031 6   -836847.055 9
  22828064.025    -4325280.877 6  -3237889.265 8
 91  4 18 20 31 15.0700000  0  4 18 11 19 02
  20281517.105      717540.348 8    555716.411 9
  22667802.372    -2995983.783 6  -2269935.485 8
  20361368.263    -1101019.391 6   -846097.464 9
  22818172.835    -4377261.457 6  -3278393.443 8
 91  4 18 20 31 30.1740000  0  4 18 11 19 02
  20284158.230      731422.466 8    566533.598 9
  22661533.538    -3028923.001 6  -2295602.286 8
  20359078.454    -1113048.726 6   -855470.974 9
  22808121.799    -4430077.041 6  -3319548.257 7
 91  4 18 20 31 45.0220000  0  4 18 11 19 02
  20286776.084      745181.633 8    577254.970 9
  22655393.733    -3061183.100 6  -2320739.905 8
  20356836.257    -1124832.838 6   -864653.407 9
  22798252.368    -4481941.742 6  -3359962.133 8
 91  4 18 20 32  0.1260000  0  4 18 11 19 02
  20289462.789      759293.791 8    588251.402 9
  22649174.525    -3093874.446 6  -2346213.564 8
  20354566.143    -1136776.492 6   -873960.150 9
  22788222.804    -4534642.358 6  -3401027.368 8
 91  4 18 20 32 15.2300000  0  4 18 11 19 02
  20292168.852      773518.110 8    599335.231 9
  22642975.451    -3126443.986 6  -2371592.306 8
  20352298.020    -1148680.640 6   -883236.115 9
  22778205.292    -4587288.229 6  -3442049.947 8
 91  4 18 20 32 30.0780000  0  4 18 11 19 02
  20294852.134      787616.320 8    610320.794 9
  22636906.815    -3158337.237 6  -2396444.078 8
  20350080.626    -1160339.138 6   -892320.661 9
  22768370.429    -4638983.075 6  -3482331.473 8
 91  4 18 20 32 45.1820000  0  4 18 11 19 02
  20297603.062      802072.738 8    621585.473 9
  22630755.650    -3190655.217 6  -2421626.792 8
  20347831.340    -1172155.443 6   -901528.171 9
  22758372.654    -4691511.034 6  -3523262.172 8
 91  4 18 20 33  0.0300000  0  4 18 11 19 02
  20300329.003      816395.208 8    632745.780 9
  22624736.210    -3222303.868 6  -2446287.963 8
  20345628.482    -1183730.817 6   -910547.944 9
  22748556.208    -4743093.105 6  -3563455.826 8
 91  4 18 20 33 15.1340000  0  4 18 11 19 02
  20303121.577      831072.342 8    644182.447 9
  22618630.595    -3254379.734 6  -2471282.022 8
  20343394.457    -1195469.948 6   -919695.324 9
  22738581.203    -4795513.388 6  -3604302.651 8
 91  4 18 20 33 30.2380000  0  4 18 11 19 02
  20305935.521      845858.831 8    655704.333 9
  22612549.293    -3286334.914 6  -2496182.046 8
  20341170.393    -1207172.078 6   -928813.869 9
  22728616.576    -4847880.871 6  -3645108.324 8
 91  4 18 20 33 45.0860000  0  4 18 11 19 02
  20308721.732      860500.253 8    667113.176 9
  22606592.778    -3317631.457 6  -2520568.840 8
  20338985.278    -1218640.558 6   -937750.343 9
  22718829.571    -4899310.282 6  -3685183.020 8
 91  4 18 20 34  0.1900000  0  4 18 11 19 02
  20311576.874      875501.423 8    678802.346 9
  22600559.078    -3349348.196 6  -2545283.066 8
  20336774.402    -1230270.769 6   -946812.850 9
  22708884.435    -4951574.830 6  -3725908.474 8
 91  4 18 20 34 15.0380000  0  4 18 11 19 02
  20314404.119      890362.587 8    690382.421 9
  22594647.643    -3380400.844 6  -2569479.825 9
  20334604.916    -1241659.365 6   -955687.082 9
  22699118.668    -5002893.777 6  -3765897.094 8
 91  4 18 20 34 30.1420000  0  4 18 11 19 02
  20317302.481      905589.247 8    702247.299 9
  22588660.606    -3411866.945 6  -2593998.756 8
  20332409.914    -1253206.155 6   -964684.578 9
  22689194.575    -5055043.590 6  -3806533.139 8
 91  4 18 20 34 45.2460000  0  4 18 11 19 02
  20320220.518      920927.634 8    714199.234 9
  22582696.022    -3443207.997 6  -2618420.225 9
  20330219.059    -1264712.814 6   -973650.801 9
  22679281.515    -5107137.105 6  -3847125.306 8
 91  4 18 20 35  0.0940000  0  4 18 11 19 02
  20323111.760      936119.453 8    726036.966 9
  22576858.576    -3473891.430 6  -2642329.284 8
  20328074.121    -1275981.037 6   -982431.228 9
  22669546.413    -5158288.420 6  -3886983.317 8
 91  4 18 20 35 15.1980000  0  4 18 11 19 02
  20326073.926      951682.947 8    738164.311 9
  22570940.788    -3504980.073 6  -2666554.099 8
  20325899.753    -1287404.238 6   -991332.411 9
  22659655.734    -5210266.367 6  -3927485.444 8
 91  4 18 20 35 30.0460000  0  4 18 11 19 02
  20329005.916      967091.508 8    750170.935 9
  22565150.700    -3535418.627 6  -2690272.340 8
  20323770.270    -1298594.184 6  -1000051.834 9
  22649942.912    -5261307.756 6  -3967257.786 8
 91  4 18 20 35 45.1500000  0  4 18 11 19 02
  20332006.553      982862.697 8    762460.125 9
  22559278.900    -3566270.554 6  -2714312.709 8
  20321609.295    -1309950.881 6  -1008901.196 9
  22640070.703    -5313186.669 6  -4007682.743 8
 91  4 18 20 36  0.2540000  0  4 18 11 19 02
  20335028.784      998741.455 8    774833.134 9
  22553431.934    -3596999.544 6  -2738257.280 8
  20319455.776    -1321270.857 6  -1017721.941 9
  22630207.462    -5365012.316 6  -4048066.193 8
 91  4 18 20 36 15.1020000  0  4 18 11 19 02
  20338020.186     1014459.480 8    787080.893 9
  22547706.079    -3627083.976 6  -2761699.599 8
  20317343.997    -1332359.430 6  -1026362.372 9
  22620521.955    -5415903.889 6  -4087721.801 8
 91  4 18 20 36 30.2060000  0  4 18 11 19 02
  20341082.205     1030554.247 8    799622.219 9
  22541905.785    -3657565.755 6  -2785451.540 9
  20315205.208    -1343603.757 6  -1035124.173 9
  22610683.742    -5467621.033 6  -4128020.700 8
 91  4 18 20 36 45.0540000  0  4 18 11 19 02
  20344113.598     1046484.204 8    812035.120 9
  22536225.561    -3687407.032 6  -2808704.389 8
  20313111.152    -1354618.291 6  -1043706.906 9
  22601017.859    -5518406.130 6  -4167593.347 8
 91  4 18 20 37  0.1580000  0  4 18 11 19 02
  20347218.572     1062795.472 8    824745.141 9
  22530474.138    -3717639.783 6  -2832262.285 8
  20310983.886    -1365786.014 6  -1052409.020 9
  22591196.909    -5570013.283 6  -4207806.542 8
 91  4 18 20 37 15.0060000  0  4 18 11 19 02
  20350289.815     1078937.286 8    837323.130 9
  22524840.617    -3747236.370 6  -2855324.470 8
  20308902.844    -1376725.773 6  -1060933.492 9
  22581552.866    -5620690.660 6  -4247295.245 9
 91  4 18 20 37 30.1100000  0  4 18 11 19 02
  20353435.517     1095467.645 8    850203.878 9
  22519135.417    -3777215.726 6  -2878684.921 8
  20306795.784    -1387813.460 6  -1069573.231 9
  22571754.451    -5672184.071 6  -4287419.820 8
 91  4 18 20 37 45.2140000  0  4 18 11 19 02
  20356602.210     1112112.505 8    863173.851 9
  22513456.920    -3807062.722 6  -2901942.228 8
  20304691.808    -1398856.759 6  -1078178.389 9
  22561967.538    -5723615.821 6  -4327496.349 8
 91  4 18 20 38  0.0620000  0  4 18 11 19 02
  20359738.482     1128590.542 8    876013.831 9
  22507899.973    -3836271.125 6  -2924701.940 8
  20302637.479    -1409665.828 6  -1086601.035 9
  22552358.013    -5774112.177 6  -4366844.001 8
 91  4 18 20 38 15.1660000  0  4 18 11 19 02
  20362949.234     1145463.594 8    889161.619 9
  22502269.323    -3865853.642 6  -2947753.158 8
  20300550.267    -1420619.418 6  -1095136.289 9
  22542595.341    -5825420.231 6  -4406824.145 8
 91  4 18 20 38 30.0140000  0  4 18 11 19 02
  20366123.466     1162150.514 8    902164.360 9
  22496755.934    -3894816.257 6  -2970321.350 8
  20298506.653    -1431355.240 6  -1103501.861 9
  22533007.777    -5875809.478 6  -4446088.333 8
 91  4 18 20 38 45.1180000  0  4 18 11 19 02
  20369376.406     1179238.053 8    915479.283 9
  22491175.809    -3924146.193 6  -2993175.754 8
  20296437.307    -1442232.164 6  -1111977.382 9
  22523263.657    -5927006.017 6  -4485981.600 8
 91  4 18 20 39  0.2220000  0  4 18 11 19 02
  20372647.957     1196435.856 8    928880.127 9
  22485618.576    -3953346.126 6  -3015928.861 8
  20294379.239    -1453068.004 6  -1120420.888 9
  22513531.845    -5978143.985 6  -4525829.208 8
 91  4 18 20 39 15.0700000  0  4 18 11 19 02
  20375887.014     1213452.803 8    942140.048 9
  22480182.227    -3981921.058 6  -3038194.967 9
  20292356.658    -1463677.014 6  -1128687.651 9
  22503976.981    -6028354.868 6  -4564954.428 8
 91  4 18 20 39 30.1740000  0  4 18 11 19 02
  20379203.462     1230881.955 8    955721.150 9
  22474676.476    -4010849.724 6  -3060736.701 8
  20290312.585    -1474418.733 6  -1137057.827 9
  22494269.072    -6079363.575 6  -4604701.315 8
 91  4 18 20 39 45.0220000  0  4 18 11 19 02
  20382487.537     1248133.600 8    969163.948 9
  22469291.705    -4039149.726 6  -3082788.558 8
  20288313.070    -1484927.382 6  -1145246.385 9
  22484740.349    -6129439.386 6  -4643721.284 9
 91  4 18 20 40  0.1260000  0  4 18 11 19 02
  20385848.318     1265798.958 8    982929.108 9
  22463839.799    -4067800.462 6  -3105113.719 8
  20286287.802    -1495569.237 6  -1153538.751 9
  22475057.629    -6180312.851 6  -4683362.802 8
 91  4 18 20 40 15.2300000  0  4 18 11 19 02
  20389231.306     1283573.937 8    996779.692 9
  22458412.491    -4096319.902 6  -3127336.580 8
  20284269.737    -1506170.152 6  -1161799.212 9
  22465391.275    -6231127.266 6  -4722958.311 8
 91  4 18 20 40 30.0780000  0  4 18 11 19 02
  20392578.288     1301160.203 8   1010483.223 9
  22453103.863    -4124221.859 6  -3149078.289 8
  20282295.494    -1516545.223 6  -1169883.689 9
  22455895.505    -6281016.725 6  -4761833.047 8
 91  4 18 20 40 45.1820000  0  4 18 11 19 02
  20396003.487     1319166.794 8   1024514.276 9
  22447725.711    -4152465.730 6  -3171086.412 8
  20280298.175    -1527049.616 6  -1178068.938 9
  22446250.021    -6331698.862 6  -4801325.464 9
 91  4 18 20 41  0.0300000  0  4 18 11 19 02
  20399394.689     1336981.890 8   1038396.113 9
  22442470.458    -4180095.044 6  -3192615.672 8
  20278341.901    -1537328.787 6  -1186078.684 9
  22436782.313    -6381456.947 6  -4840097.842 8
 91  4 18 20 41 15.1340000  0  4 18 11 19 02
  20402863.057     1355212.701 8   1052601.890 9
  22437147.835    -4208069.272 6  -3214413.692 8
  20276359.864    -1547744.009 6  -1194194.455 9
  22427162.796    -6432013.557 6  -4879492.444 9
 91  4 18 20 41 30.2380000  0  4 18 11 19 02
  20406356.238     1373563.818 8   1066901.407 9
  22431851.547    -4235899.781 6  -3236099.722 9
  20274389.136    -1558106.828 6  -1202269.391 9
  22417555.303    -6482499.094 6  -4918831.669 9
 91  4 18 20 41 45.0860000  0  4 18 11 19 02
  20409809.702     1391716.859 8   1081046.580 9
  22426669.741    -4263122.360 6  -3257312.049 8
  20272457.848    -1568246.946 6  -1210170.780 9
  22408123.092    -6532063.854 6  -4957453.408 9
 91  4 18 20 42  0.1900000  0  4 18 11 19 02
  20413346.378     1410292.972 8   1095521.415 9
  22421426.940    -4290680.289 6  -3278785.688 8
  20270502.779    -1578518.612 6  -1218174.677 9
  22398539.441    -6582421.661 6  -4996693.117 8
 91  4 18 20 42 15.0380000  0  4 18 11 19 02
  20416841.898     1428668.999 8   1109840.344 9
  22416298.314    -4317632.445 6  -3299787.286 8
  20268591.288    -1588566.987 6  -1226004.579 9
  22389131.675    -6631858.651 6  -5035215.297 9
 91  4 18 20 42 30.1420000  0  4 18 11 19 02
  20420420.375     1447470.219 8   1124490.582 9
  22411105.568    -4344916.240 6  -3321047.308 8
  20266654.372    -1598746.874 6  -1233936.961 9
  22379573.746    -6682087.574 6  -5074354.573 9
 91  4 18 20 42 45.2460000  0  4 18 11 19 02
  20424019.129     1466387.728 8   1139231.445 9
  22405941.434    -4372058.605 6  -3342197.133 8
  20264726.087    -1608877.410 6  -1241830.886 9
  22370027.850    -6732248.528 6  -5113440.880 9
 91  4 18 20 43  0.0940000  0  4 18 11 19 02
  20427580.567     1485096.308 8   1153809.508 9
  22400889.687    -4398604.092 6  -3362881.852 8
  20262841.952    -1618789.506 6  -1249554.593 9
  22360656.971    -6781494.276 6  -5151814.046 9
 91  4 18 20 43 15.1980000  0  5 18 11 16 19 02
  20431223.235     1504245.434 8   1168730.840 9
  22395778.008    -4425463.365 6  -3383811.082 9
  23648983.814           0.578 5
  20260930.972    -1628820.425 6  -1257370.893 9
  22351138.902    -6831518.387 6  -5190793.711 9
 91  4 18 20 43 30.0460000  0  5 18 11 16 19 02
  20434826.760     1523179.785 8   1183484.827 9
  22390777.491    -4451731.795 6  -3404279.923 9
  23643374.656      -29461.667 5
  20259063.345    -1638636.281 6  -1265019.607 9
  22341792.631    -6880631.034 6  -5229063.149 9
 91  4 18 20 43 45.1500000  0  5 18 11 16 19 02
  20438512.945     1542549.884 8   1198578.345 9
  22385721.076    -4478317.180 6  -3424995.740 9
  23637695.627      -59305.588 5
  20257172.499    -1648577.797 6  -1272766.242 9
  22332298.670    -6930528.024 6  -5267943.779 9
 91  4 18 20 44  0.2540000  0  5 18 11 16 19 02
  20442220.439     1562026.067 8   1213754.528 9
  22380686.113    -4504769.732 6  -3445608.046 9
  23632041.777      -89026.749 5
  20255286.444    -1658479.643 6  -1280481.971 9
  22322812.084    -6980366.380 6  -5306778.711 9
 91  4 18 20 44 15.1020000  0  5 18 11 16 19 02
  20445883.834     1581280.265 8   1228757.734 9
  22375761.168    -4530639.078 6  -3465765.905 8
  23626504.319     -118118.875 5         0.32616
  20253442.935    -1668169.940 6  -1288032.851 9
  22313503.171    -7029297.609 6  -5344906.790 9
 91  4 18 20 44 30.2060000  0  5 18 11 16 19 02
  20449630.523     1600971.092 8   1244101.169 9
  22370781.571    -4556821.891 6  -3486168.033 9
  23620898.022     -147590.003 5    -22964.190 6
  20251576.411    -1677987.504 6  -1295682.895 9
  22304040.172    -7079013.656 6  -5383646.421 9
 91  4 18 20 44 45.0540000  0  5 18 11 16 19 02
  20453334.104     1620431.746 8   1259265.252 9
  22365908.090    -4582429.932 6  -3506122.252 8
  23615405.878     -176440.816 5    -45445.359 6
  20249745.886    -1687599.202 6  -1303172.538 9
  22294750.003    -7127828.643 6  -5421683.914 9
 91  4 18 20 45  0.1580000  0  5 18 11 16 19 02
  20457123.513     1640343.505 8   1274780.850 9
  22360978.231    -4608335.436 6  -3526308.299 8
  23609848.246     -205655.223 5    -68209.838 6
  20247895.635    -1697325.787 6  -1310751.690 9
  22285315.351    -7177415.273 6  -5460322.699 9
 91  4 18 20 45 15.0060000  0  5 18 11 16 19 02
  20460867.628     1660020.088 8   1290113.195 9
  22356155.427    -4633671.374 6  -3546050.510 9
  23604405.922     -234254.014 5    -90494.591 6
  20246082.741    -1706848.768 6  -1318172.200 9
  22276049.750    -7226103.789 6  -5498261.654 9
 91  4 18 20 45 30.1100000  0  5 18 11 16 19 02
  20464695.916     1680140.975 8   1305791.745 9
  22351278.759    -4659310.290 6  -3566028.805 9
  23598891.755     -263222.540 5   -113067.441 7
  20244246.352    -1716495.547 6  -1325689.166 9
  22266636.132    -7275572.083 6  -5536808.217 9
 91  4 18 20 45 45.2140000  0  5 18 11 16 19 02
  20468546.575     1700366.891 8   1321552.141 9
  22346425.586    -4684814.514 6  -3585902.154 9
  23593402.585     -292067.154 5   -135543.787 6
  20242418.789    -1726102.227 6  -1333174.896 9
  22257234.669    -7324980.693 6  -5575308.283 9
 91  4 18 20 46  0.0620000  0  5 18 11 16 19 02
  20472348.436     1720355.701 8   1337127.768 9
  22341679.232    -4709751.226 6  -3605333.278 8
  23588031.369     -320298.210 5   -157541.965 6
  20240632.853    -1735503.251 6  -1340500.369 9
  22248002.329    -7373489.973 6  -5613107.569 9
 91  4 18 20 46 15.1660000  0  5 18 11 16 19 02
  20476240.047     1740801.493 8   1353059.492 9
  22336878.841    -4734975.280 6  -3624988.310 8
  23582591.089     -348884.169 5   -179816.775 5
  20238819.683    -1745018.010 6  -1347914.467 9
  22238625.792    -7422767.755 6  -5651505.696 9
 91  4 18 20 46 30.0140000  0  5 18 11 16 19 02
  20480085.170     1761007.542 8   1368804.395 9
  22332186.638    -4759635.124 6  -3644203.695 9
  23577268.538     -376859.709 5   -201615.893 6
  20237050.326    -1754327.459 6  -1355168.587 9
  22229419.143    -7471147.040 6  -5689203.688 9
 91  4 18 20 46 45.1180000  0  5 18 11 16 19 02
  20484017.723     1781675.224 8   1384909.018 9
  22327438.324    -4784575.848 6  -3663637.952 8
  23571877.301     -405184.490 5   -223687.162 6
  20235255.482    -1763747.626 6  -1362508.983 9
  22220065.508    -7520290.888 6  -5727497.453 9
 91  4 18 20 47  0.2220000  0  5 18 11 16 19 02
  20487971.504     1802451.070 8   1401097.915 9
  22322719.674    -4809377.072 6  -3682963.508 8
  23566515.606     -433381.125 5   -245658.571 6
  20233474.336    -1773123.645 6  -1369814.968 9
  22210728.013    -7569370.797 6  -5765741.393 9
 91  4 18 20 47 15.0700000  0  5 18 11 16 19 02
  20491877.610     1822982.965 8   1417096.728 9
  22318105.709    -4833618.588 6  -3701852.930 9
  23561261.660     -460971.584 5   -267157.653 6
  20231725.665    -1782294.426 6  -1376961.039 9
  22201557.393    -7617553.262 6  -5803286.042 9
 91  4 18 20 47 30.1740000  0  5 18 11 16 19 02
  20495873.600     1843980.250 8   1433458.180 9
  22313443.754    -4858134.498 6  -3720956.166 9
  23555945.178     -488905.494 5   -288924.351 6
  20229960.731    -1791574.566 6  -1384192.322 9
  22192245.120    -7666497.973 6  -5841424.634 9
 91  4 18 20 47 45.0220000  0  5 18 11 16 19 02
  20499820.975     1864722.907 8   1449621.227 9
  22308879.813    -4882102.020 6  -3739632.084 9
  23550744.903     -516244.492 5   -310227.476 6
  20228232.878    -1800658.114 6  -1391270.420 9
  22183100.653    -7714554.245 6  -5878870.938 9
 91  4 18 20 48  0.1260000  0  5 18 11 16 19 02
  20503858.193     1885930.830 8   1466146.814 9
  22304269.935    -4906342.758 6  -3758520.909 9
  23545477.055     -543926.433 5   -331797.835 6
  20226481.081    -1809853.586 6  -1398435.730 9
  22173810.413    -7763374.344 6  -5916912.426 9
 91  4 18 20 48 15.2300000  0  5 18 11 16 19 02
  20507915.126     1907250.793 8   1482759.703 9
  22299683.245    -4930438.186 6  -3777296.494 8
  23540235.010     -571474.681 5   -353264.017 6
  20224740.398    -1818999.940 6  -1405562.762 9
  22164533.003    -7812125.264 6  -5954900.012 9
 91  4 18 20 48 30.0780000  0  5 18 11 16 19 02
  20511925.202     1928322.703 8   1499179.308 9
  22295203.599    -4953978.930 6  -3795639.865 9
  23535105.230     -598421.179 5   -374261.291 6
  20223038.634    -1827938.948 6  -1412528.227 9
  22155427.218    -7859978.056 6  -5992187.752 9
 91  4 18 20 48 45.1820000  0  5 18 11 16 19 02
  20516025.406     1949874.520 8   1515972.870 9
  22290674.574    -4977775.349 6  -3814182.458 9
  23529914.353     -625694.090 5   -395512.932 6
  20221320.792    -1836977.677 6  -1419571.391 9
  22146175.857    -7908581.466 6  -6030060.381 9
 91  4 18 20 49  0.0300000  0  5 18 11 16 19 02
  20520079.866     1971179.261 7   1532573.909 9
  22286253.094    -5001016.561 6  -3832292.430 9
  23524841.891     -652364.778 5   -416295.275 6
  20219638.489    -1845805.685 6  -1426450.364 9
  22137099.502    -7956283.810 6  -6067230.893 9
 91  4 18 20 49 15.1340000  0  5 18 11 16 19 02
  20524224.517     1992965.580 7   1549550.193 9
  22281781.652    -5024509.831 6  -3850598.814 9
  23519705.482     -679358.928 5   -437329.680 6
  20217941.077    -1854733.191 6  -1433406.863 9
  22127879.430    -8004735.997 6  -6104985.698 9
 91  4 18 20 49 30.2380000  0  5 18 11 16 19 02
  20528390.118     2014848.822 7   1566601.998 9
  22277336.361    -5047871.238 6  -3868802.444 9
  23514588.093     -706233.576 5   -458270.964 6
  20216250.203    -1863625.923 6  -1440336.268 9
  22118668.869    -8053133.043 6  -6142697.527 9
 91  4 18 20 49 45.0860000  0  5 18 11 16 19 02
  20532504.388     2036470.818 7   1583450.238 9
  22272993.568    -5070692.317 6  -3886585.033 9
  23509585.860     -732520.391 5   -478754.195 6
  20214595.072    -1872318.318 6  -1447109.555 9
  22109629.350    -8100640.240 6  -6179715.993 9
 91  4 18 20 50  0.1900000  0  5 18 11 16 19 02
  20536710.727     2058569.541 7   1600669.954 9
  22268602.029    -5093767.443 6  -3904565.592 9
  23504522.275     -759133.632 5   -499491.779 6
  20212925.629    -1881117.594 6  -1453966.136 9
  22100445.829    -8148903.251 6  -6217323.385 9
 91  4 18 20 50 15.0380000  0  5 18 11 16 19 02
  20540863.754     2080397.249 7   1617678.484 9
  22264313.224    -5116312.554 6  -3922133.150 9
  23499570.106     -785169.328 5   -519779.329 7
  20211283.686    -1889723.765 6  -1460672.240 9
  22091428.865    -8196284.335 6  -6254243.575 9
 91  4 18 20 50 30.1420000  0  5 18 11 16 19 02
  20545107.654     2102703.958 7   1635060.261 9
  22259974.293    -5139107.618 6  -3939895.472 9
  23494552.581     -811527.948 5   -540318.538 6
  20209626.849    -1898436.305 6  -1467461.233 9
  22082268.185    -8244420.133 6  -6291751.837 9
 91  4 18 20 50 45.2460000  0  5 18 11 16 19 02
  20549373.466     2125118.654 7   1652526.190 9
  22255664.731    -5161757.907 6  -3957544.980 9
  23489565.896     -837754.755 5   -560754.997 6
  20207976.999    -1907101.852 6  -1474213.615 9
  22073121.856    -8292488.354 6  -6329207.438 9
 91  4 18 20 51  0.0940000  0  5 18 11 16 19 02
  20553583.850     2147247.291 7   1669769.203 9
  22251452.437    -5183894.418 6  -3974794.148 9
  23484680.259     -863420.002 5   -580753.904 6
  20206360.389    -1915586.196 6  -1480824.789 9
  22064138.072    -8339687.282 6  -6365985.680 9
 91  4 18 20 51 15.1980000  0  5 18 11 16 19 02
  20557889.123     2169863.821 7   1687392.400 9
  22247194.165    -5206268.975 6  -3992228.797 9
  23479735.977     -889397.171 5   -600995.872 6
  20204727.895    -1924170.493 6  -1487513.852 9
  22055014.973    -8387633.077 6  -6403345.903 9
 91  4 18 20 51 30.0460000  0  5 18 11 16 19 02
  20562138.172     2192196.891 7   1704794.716 9
  22243035.399    -5228127.345 6  -4009261.242 9
  23474899.312     -914810.151 5   -620798.203 6
  20203132.635    -1932568.198 6  -1494057.518 9
  22046059.066    -8434704.897 6  -6440025.105 9
 91  4 18 20 51 45.1500000  0  5 18 11 16 19 02
  20566481.159     2215015.289 7   1722575.219 9
  22238830.532    -5250224.519 6  -4026479.754 9
  23470004.155     -940536.425 5   -640844.674 6
  20201511.714    -1941069.994 6  -1500682.304 9
  22036958.114    -8482527.262 6  -6477289.142 9
 91  4 18 20 52  0.2540000  0  5 18 11 16 19 02
  20570842.758     2237938.258 7   1740437.198 9
  22234650.662    -5272178.460 6  -4043586.650 9
  23465133.350     -966133.012 5   -660790.077 6
  20199903.961    -1949527.091 6  -1507272.250 9
  22027871.678    -8530283.992 6  -6514502.031 9
 91  4 18 20 52 15.1020000  0  5 18 11 16 19 02
  20575151.074     2260579.380 7   1758079.561 9
  22230572.095    -5293615.742 6  -4060290.972 9
  23460371.276     -991164.482 5   -680295.137 6
  20198329.571    -1957792.247 6  -1513712.633 9
  22018950.042    -8577162.566 6  -6551030.640 9
 91  4 18 20 52 30.2060000  0  5 18 11 16 19 02
  20579554.259     2283712.590 7   1776105.368 9
  22226450.033    -5315281.940 6  -4077173.667 9
  23455549.965    -1016500.523 5   -700037.530 6
  20196739.071    -1966156.998 6  -1520230.618 9
  22009886.243    -8624785.910 6  -6588139.592 9
 91  4 18 20 52 45.0540000  0  5 18 11 16 19 02
  20583900.995     2306563.079 7   1793910.871 9
  22222423.952    -5336433.154 6  -4093655.075 9
  23450836.515    -1041272.952 5   -719340.741 6
  20195183.435    -1974328.521 6  -1526598.046 9
  22000991.678    -8671530.425 6  -6624563.749 9
 91  4 18 20 53  0.1580000  0  5 18 11 16 19 02
  20588346.971     2329917.002 7   1812108.664 9
  22218358.440    -5357800.030 6  -4110304.530 9
  23446065.942    -1066337.302 5   -738871.414 6
  20193611.363    -1982590.025 6  -1533035.589 9
  21991956.788    -8719009.155 6  -6661560.025 9
 91  4 18 20 53 15.0060000  0  5 18 11 16 19 02
  20592734.087     2352976.982 7   1830077.408 9
  22214388.543    -5378663.421 6  -4126561.662 9
  23441402.598    -1090848.857 5   -757971.348 6
  20192073.584    -1990666.667 6  -1539329.073 9
  21983085.779    -8765618.058 6  -6697878.513 9
 91  4 18 20 53 30.1100000  0  5 18 11 16 19 02
  20597217.532     2376536.616 7   1848435.498 9
  22210376.937    -5399744.216 6  -4142988.192 9
  23436682.028    -1115654.561 5   -777300.491 6
  20190520.605    -1998838.833 6  -1545697.004 9
  21974077.561    -8812965.814 6  -6734772.728 9
 91  4 18 20 53 45.2140000  0  5 18 11 16 19 02
  20601721.785     2400207.828 7   1866880.528 9
  22206394.587    -5420672.188 6  -4159295.643 9
  23431988.028    -1140321.899 5   -796521.802 6
  20188974.326    -2006957.666 6  -1552023.378 9
  21965081.917    -8860239.193 6  -6771608.994 9
 91  4 18 20 54  0.0620000  0  5 18 11 16 19 02
  20606168.016     2423567.925 7   1885083.131 9
  22202503.796    -5441114.999 6  -4175225.047 9
  23427393.330    -1164454.944 5   -815326.785 6
  20187463.219    -2014905.464 6  -1558216.472 9
  21956247.448    -8906657.283 6  -6807778.803 9
 91  4 18 20 54 15.1660000  0  5 18 11 16 19 02
  20610709.462     2447432.874 7   1903679.124 9
  22198573.288    -5461766.976 6  -4191317.453 9
  23422747.852    -1188875.075 5   -834355.477 7
  20185932.212    -2022945.768 6  -1564481.659 9
  21947274.820    -8953810.259 6  -6844521.254 9
 91  4 18 20 54 30.0140000  0  5 18 11 16 19 02
  20615190.915     2470986.936 7   1922032.873 9
  22194735.402    -5481934.414 6  -4207032.292 9
  23418202.953    -1212760.917 5   -852967.825 6
  20184435.385    -2030812.326 6  -1570611.446 9
  21938464.919    -9000106.049 6  -6880595.765 9
 91  4 18 20 54 45.1180000  0  5 18 11 16 19 02
  20619770.107     2495053.364 7   1940785.860 9
  22190860.332    -5502301.349 6  -4222902.587 9
  23413600.818    -1236925.150 5   -871797.094 5
  20182923.113    -2038765.182 6  -1576808.478 9
  21929516.520    -9047129.788 6  -6917237.517 9
 91  4 18 20 55  0.2220000  0  6 18 11 16 19 02 06
  20624369.565     2519219.336 7   1959616.410 9
  22187012.077    -5522526.045 6  -4238662.047 9
  23409028.522    -1260961.678 5   -890526.869 6
  20181416.858    -2046675.796 6  -1582972.602 9
  21920580.840    -9094090.112 6  -6953829.844 9
  23707455.068           0.765 3
 91  4 18 20 55 15.0700000  0  6 18 11 16 19 02 06
  20628910.265     2543079.078 7   1978208.344 9
  22183254.876    -5542262.469 6  -4254041.035 9
  23404554.720    -1284460.050 5   -908837.306 6
  20179944.384    -2054404.441 6  -1588994.923 9
  21911808.204    -9140185.934 6  -6989748.548 9
  23699415.464      -42226.580 3
 91  4 18 20 55 30.1740000  0  6 18 11 16 19 02 06
  20633548.459     2567452.158 7   1997200.289 9
  22179463.610    -5562194.252 6  -4269572.252 9
  23400033.837    -1308233.585 5   -927362.143 6
  20178461.879    -2062220.693 6  -1595085.514 9
  21902896.877    -9187009.911 6  -7026234.648 9
  23691243.860      -85177.128 4
 91  4 18 20 55 45.0220000  0  5 18 11 16 19 02
  20638127.108     2591520.967 7   2015955.131 9
  22175763.565    -5581636.927 6  -4284722.350 9
  23395613.686    -1331467.633 5   -945466.601 6
  20177006.546    -2069850.853 6  -1601031.106 9
  21894152.854    -9232965.998 6  -7062044.453 9
 91  4 18 20 56  0.1260000  0  6 18 11 16 19 02 06
  20642807.286     2616106.738 7   2035112.798 9
  22172026.214    -5601268.983 6  -4300020.010 9
  23391140.548    -1354971.406 5   -963781.250 6
  20175539.486    -2077566.154 6  -1607043.035 9
  21885270.292    -9279646.910 6  -7098419.045 9
  23675041.180     -170317.963 3         0.38716
 91  4 18 20 56 15.2290000  0  6 18 11 16 19 02 06
  20647505.443     2640797.318 7   2054352.135 9
  22168320.377    -5620749.035 6  -4315199.229 9
  23386694.501    -1378338.178 5   -981989.105 6
  20174079.720    -2085230.873 6  -1613015.555 9
  21876400.259    -9326253.112 6  -7134735.440 9
  23666871.854     -213237.976 4    -33443.623 6
 91  4 18 20 56 30.0770000  0  6 18 11 16 19 02 06
  20652145.628     2665178.996 7   2073350.768 9
  22164704.107    -5639748.461 6  -4330003.934 9
  23382349.805    -1401173.787 5   -999783.075 6
  20172656.861    -2092712.391 6  -1618845.316 9
  21867695.124    -9371997.823 6  -7170380.540 9
  23658847.961     -255420.190 4    -66312.720 6
 91  4 18 20 56 45.1810000  0  6 18 11 16 19 02 06
  20656886.494     2690090.782 7   2092762.474 9
  22161056.180    -5658921.163 6  -4344943.653 9
  23377954.036    -1424264.199 5  -1017775.656 6
  20171217.219    -2100268.213 6  -1624732.976 9
  21858854.506    -9418455.539 6  -7206581.225 9
  23650683.425     -298316.421 4    -99738.198 6
 91  4 18 20 57  0.0290000  0  6 18 11 16 19 02 06
  20661564.864     2714679.732 7   2111922.618 9
  22157497.074    -5677625.303 6  -4359518.254 9
  23373658.355    -1446835.023 5  -1035363.298 6
  20169814.698    -2107650.608 6  -1630485.501 9
  21850176.268    -9464059.655 6  -7242116.781 9
  23642658.112     -340480.913 4   -132593.475 6
 91  4 18 20 57 15.1330000  0  6 18 11 16 19 02 06
  20666344.987     2739794.967 7   2131492.857 9
  22153904.921    -5696504.233 6  -4374229.060 9
  23369317.778    -1469663.213 5  -1053151.496 6
  20168393.372    -2115112.645 6  -1636300.082 9
  21841360.789    -9510381.119 6  -7278211.310 9
  23634497.611     -383366.240 4   -166010.461 6
 91  4 18 20 57 30.2370000  0  6 18 11 16 19 02 06
  20671144.620     2765020.012 7   2151148.657 9
  22150342.648    -5715227.058 6  -4388818.219 9
  23364997.734    -1492351.355 5  -1070830.585 6
  20166985.703    -2122519.601 6  -1642071.742 9
  21832559.857    -9556626.139 6  -7314246.261 9
  23626342.800     -426238.541 5   -199417.190 6
 91  4 18 20 57 45.0850000  0  6 18 11 16 19 02 06
  20675883.004     2789921.059 7   2170552.008 9
  22146867.317    -5733483.559 6  -4403044.009 9
  23360779.841    -1514521.532 5  -1088106.058 6
  20165607.638    -2129750.392 6  -1647706.139 9
  21823924.512    -9602015.883 6  -7349614.782 9
  23618322.656     -468374.741 5   -232250.423 6
 91  4 18 20 58  0.1890000  0  6 18 11 16 19 02 06
  20680723.875     2815357.259 7   2190372.334 9
  22143362.095    -5751902.903 6  -4417396.693 9
  23356512.456    -1536937.942 5  -1105573.389 6
  20164218.979    -2137054.096 6  -1653397.339 9
  21815149.741    -9648115.315 6  -7385536.290 9
  23610168.632     -511227.623 5   -265642.106 6
 91  4 18 20 58 15.0370000  0  6 18 11 16 19 02 06
  20685502.282     2840468.412 7   2209939.396 9
  22139945.205    -5769858.178 6  -4431387.768 9
  23352348.265    -1558838.011 5  -1122638.391 6
  20162862.263    -2144180.667 6  -1658950.525 9
  21806542.519    -9693359.167 6  -7420791.106 9
  23602154.688     -553342.183 5   -298458.488 6
 91  4 18 20 58 30.1410000  0  6 18 11 16 19 02 06
  20690382.377     2866115.999 7   2229924.448 9
  22136498.670    -5787972.675 6  -4445502.900 9
  23348132.947    -1580981.245 5  -1139892.862 6
  20161493.780    -2151380.277 6  -1664560.610 9
  21797797.484    -9739311.759 6  -7456598.190 9
  23594002.104     -596175.031 4   -331834.570 6
 91  4 18 20 58 45.2450000  0  6 18 11 16 19 02 06
  20695283.315     2891865.663 7   2249989.044 9
  22133080.247    -5805937.410 6  -4459501.348 9
  23343942.410    -1602991.415 5  -1157043.633 6
  20160130.077    -2158531.541 6  -1670133.034 9
  21789065.525    -9785194.510 6  -7492350.851 9
  23585853.290     -639002.098 4   -365206.140 6
 91  4 18 20 59  0.0930000  0  6 18 11 16 19 02 06
  20700121.001     2917283.572 7   2269795.132 9
  22129747.489    -5823446.251 6  -4473144.539 9
  23339851.748    -1624493.195 5  -1173798.269 6
  20158803.608    -2165508.842 6  -1675569.895 9
  21780497.019    -9830225.876 6  -7527440.090 9
  23577841.400     -681092.285 4   -398003.558 6
 91  4 18 20 59 15.1970000  0  6 18 11 16 19 02 06
  20705059.817     2943245.468 7   2290025.101 9
  22126386.312    -5841103.271 6  -4486903.203 9
  23335713.912    -1646228.499 5  -1190734.865 6
  20157463.247    -2172553.252 6  -1681059.055 9
  21771792.130    -9875959.026 6  -7563076.176 9
  23569695.374     -723897.393 4   -431358.041 6
 91  4 18 20 59 30.0450000  0  6 18 11 16 19 02 06
  20709936.810     2968867.735 7   2309990.423 9
  22123111.504    -5858313.174 6  -4500313.461 9
  23331674.560    -1667463.842 5  -1207281.906 6
  20156156.841    -2179429.344 6  -1686417.054 9
  21763253.145    -9920847.181 6  -7598053.834 9
  23561691.492     -765969.961 4   -464141.704 6
 91  4 18 20 59 45.1490000  0  6 18 11 16 19 02 06
  20714915.966     2995036.462 7   2330381.559 9
  22119811.332    -5875666.521 6  -4513835.489 9
  23327587.412    -1688928.683 5  -1224007.745 6
  20154832.508    -2186371.496 6  -1691826.524 9
  21754577.165    -9966435.619 6  -7633577.163 9
  23553546.212     -808758.081 4   -497482.950 6
 91  4 18 21  0  0.2530000  0  6 18 11 16 19 02 06
  20719916.460     3021313.347 7   2350856.971 9
  22116538.711    -5892862.423 6  -4527234.822 9
  23323532.339    -1710253.014 5  -1240624.139 6
  20153523.722    -2193257.857 6  -1697192.523 9
  21745915.170   -10011946.698 6  -7669040.221 9
  23545408.880     -851533.579 5   -530814.354 6
 91  4 18 21  0 15.1010000  0  6 18 11 16 19 02 06
  20724849.116     3047241.829 7   2371060.903 9
  22113348.515    -5909621.597 6  -4540293.873 9
  23319572.073    -1731087.303 5  -1256858.667 6
  20152243.293    -2199981.280 6  -1702431.558 9
  21737415.289   -10056619.243 6  -7703849.874 9
  23537407.582     -893580.110 5   -563577.771 6
 91  4 18 21  0 30.2050000  0  6 18 11 16 19 02 06
  20729887.244     3073715.826 7   2391689.910 9
  22110133.221    -5926521.742 6  -4553462.760 9
  23315558.607    -1752149.677 5  -1273270.912 6
  20150950.238    -2206773.704 6  -1707724.360 9
  21728780.334   -10101993.648 6  -7739206.441 9
  23529265.479     -936347.570 5   -596902.907 6
 91  4 18 21  0 45.0530000  0  6 18 11 16 19 02 06
  20734857.879     3099835.294 7   2412042.659 9
  22106997.677    -5942992.341 6  -4566296.937 9
  23311642.982    -1772728.473 5  -1289306.366 6
  20149688.646    -2213407.139 6  -1712893.271 9
  21720304.071   -10146533.989 6  -7773913.082 9
  23521264.775     -978388.608 5   -629662.032 6
 91  4 18 21  1  0.1570000  0  6 18 11 16 19 02 06
  20739932.658     3126503.275 7   2432822.821 9
  22103838.863    -5959598.824 6  -4579236.995 9
  23307685.413    -1793531.133 5  -1305516.224 6
  20148412.783    -2220107.770 6  -1718114.546 9
  21711696.288   -10191773.874 6  -7809164.835 9
  23513132.305    -1021150.528 5   -662982.852 6
 91  4 18 21  1 15.0050000  0  6 18 11 16 19 02 06
  20744939.333     3152812.723 7   2453323.609 9
  22100759.471    -5975780.905 6  -4591846.351 9
  23303817.104    -1813855.219 5  -1321353.179 7
  20147168.434    -2226651.330 6  -1723213.421 9
  21703245.757   -10236182.422 6  -7843768.791 9
  23505129.475    -1063186.763 5   -695738.260 6
 91  4 18 21  1 30.1090000  0  6 18 11 16 19 02 06
  20750052.562     3179673.119 7   2474253.710 9
  22097654.879    -5992093.515 6  -4604557.425 9
  23299907.772    -1834398.595 5  -1337361.001 6
  20145910.775    -2233260.665 6  -1728363.559 9
  21694659.446   -10281287.943 6  -7878915.826 9
  23496993.348    -1105944.063 5   -729055.521 6
 91  4 18 21  1 45.2130000  0  6 18 11 16 19 02 06
  20755183.432     3206632.783 7   2495261.160 9
  22094579.492    -6008255.354 6  -4617151.020 9
  23296022.169    -1854808.650 5  -1353264.934 6
  20144661.819    -2239821.260 6  -1733475.698 9
  21686091.420   -10326323.218 7  -7914008.131 9
  23488857.865    -1148696.571 5   -762369.035 6
 91  4 18 21  2  0.0610000  0  6 18 11 16 19 02 06
  20760243.000     3233235.169 7   2515990.219 9
  22091583.732    -6023993.072 6  -4629414.130 9
  23292230.515    -1874739.759 5  -1368795.680 6
  20143445.562    -2246220.085 6  -1738461.799 9
  21677679.391   -10370523.708 7  -7948449.961 9
  23480865.179    -1190716.727 5   -795111.871 6
 91  4 18 21  2 15.1650000  0  6 18 11 16 19 02 06
  20765412.228     3260392.192 7   2537151.453 9
  22088566.204    -6039854.398 6  -4641773.568 9
  23288397.929    -1894884.576 5  -1384492.930 6
  20142214.891    -2252683.083 6  -1743497.897 9
  21669136.270   -10415418.575 6  -7983432.854 9
  23472727.877    -1233458.866 4   -828417.307 6
 91  4 18 21  2 30.0130000  0  6 18 11 16 19 02 06
  20770510.420     3287182.596 7   2558027.014 9
  22085626.760    -6055302.173 6  -4653810.751 9
  23284653.642    -1914560.726 5  -1399824.995 6
  20141018.022    -2258991.582 6  -1748413.607 9
  21660750.575   -10459486.419 6  -8017771.307 9
  23464730.196    -1275474.597 4   -861156.704 6
 91  4 18 21  2 45.1170000  0  6 18 11 16 19 02 06
  20775714.931     3314537.798 7   2579342.672 9
  22082664.966    -6070860.909 6  -4665934.399 9
  23280870.549    -1934438.805 5  -1415314.410 6
  20139804.401    -2265354.976 6  -1753372.106 9
  21652234.790   -10504238.611 7  -8052643.004 9
  23456602.833    -1318204.741 4   -894452.803 5
 91  4 18 21  3  0.2210000  0  6 18 11 16 19 02 06
  20780940.782     3341995.010 7   2600737.819 9
  22079734.215    -6086264.689 6  -4677937.307 9
  23277118.407    -1954180.063 5  -1430697.186 6
  20138605.172    -2271665.816 6  -1758289.639 9
  21643733.592   -10548916.685 7  -8087456.948 9
  23448474.449    -1360926.773 4   -927742.571 6
 91  4 18 21  3 15.0690000  0  6 18 11 16 19 02 06
  20786095.095     3369079.054 7   2621842.187 9
  22076881.550    -6101263.020 6  -4689624.284 9
  23273449.427    -1973459.785 5  -1445720.347 6
  20137430.072    -2277825.251 6  -1763089.201 9
  21635387.736   -10592771.785 7  -8121629.631 9
  23440478.955    -1402923.476 4   -960467.140 5
 91  4 18 21  3 30.1730000  0  6 18 11 16 19 02 06
  20791357.567     3396734.959 7   2643392.158 9
  22074008.127    -6116361.956 6  -4701389.644 9
  23269738.575    -1992932.030 5  -1460893.524 6
  20136249.118    -2284034.368 6  -1767927.475 9
  21626914.232   -10637305.186 7  -8156330.856 9
  23432354.534    -1445632.100 5   -993746.465 5
 91  4 18 21  3 45.0210000  0  6 18 11 16 19 02 06
  20796548.829     3424016.913 7   2664650.740 9
  22071210.408    -6131057.590 6  -4712840.750 9
  23266121.438    -2011944.933 5  -1475708.811 6
  20135095.991    -2290090.666 6  -1772646.672 9
  21618595.416   -10681015.239 7  -8190390.519 9
  23424364.075    -1487612.987 4  -1026458.729 6
 91  4 18 21  4  0.1250000  0  6 18 11 16 19 02 06
  20801850.271     3451869.339 7   2686353.846 9
  22068396.101    -6145852.473 6  -4724369.194 9
  23262467.321    -2031150.081 5  -1490673.849 6
  20133936.152    -2296198.873 6  -1777406.310 9
  21610148.175   -10725405.071 7  -8224979.881 9
  23416243.496    -1530309.843 4  -1059728.921 6
 91  4 18 21  4 15.2290000  0  6 18 11 16 19 02 06
  20807167.240     3479812.864 7   2708127.932 9
  22065607.218    -6160501.837 6  -4735784.249 9
  23258836.423    -2050228.292 5  -1505540.010 6
  20132779.755    -2302264.185 6  -1782132.549 9
  21601712.242   -10769730.470 7  -8259519.034 9
  23408115.060    -1573008.745 4  -1093000.655 6
 91  4 18 21  4 30.0770000  0  6 18 11 16 19 02 06
  20812410.507     3507373.027 7   2729603.299 9
  22062895.420    -6174759.039 6  -4746893.716 9
  23255291.578    -2068857.592 5  -1520056.387 6
  20131652.626    -2308182.946 6  -1786744.580 9
  21593433.082   -10813239.648 7  -8293422.175 9
  23400125.838    -1614984.106 4  -1125708.608 6
 91  4 18 21  4 45.1810000  0  5 18 11 16 19 06
  20817764.006     3535499.950 7   2751520.299 9
  22060161.404    -6189115.622 6  -4758080.629 9
  23251708.722    -2087680.116 5  -1534723.281 6
  20130516.353    -2314159.263 6  -1791401.460 9
  23392000.059    -1657683.322 4  -1158980.599 6
 91  4 18 21  5  0.0290000  0  6 18 11 16 19 02 06
  20823042.617     3563239.274 7   2773135.272 9
  22057504.849    -6203085.640 6  -4768966.324 9
  23248213.615    -2106058.779 5  -1549044.328 5
  20129406.824    -2319991.121 6  -1795945.771 9
  21576768.364   -10900812.771 7  -8361660.730 9
  23384012.654    -1699659.800 3  -1191689.416 6
 91  4 18 21  5 15.1330000  0  6 18 11 16 19 02 06
  20828430.775     3591556.241 7   2795200.360 9
  22054829.651    -6217141.938 6  -4779919.247 9
  23244682.908    -2124618.555 5  -1563506.513 6
  20128286.569    -2325870.582 6  -1800527.186 9
  21568384.834   -10944866.523 7  -8395988.211 9
  23375886.902    -1742352.244 3  -1224956.121 6
 91  4 18 21  5 30.2370000  0  6 18 11 16 19 02 06
  20833837.842     3619965.714 7   2817337.527 9
  22052181.371    -6231049.488 6  -4790756.260 9
  23241173.336    -2143048.571 4  -1577867.541 6
  20127178.092    -2331704.033 6  -1805072.747 9
  21560014.686   -10988852.560 7  -8430262.934 9
  23367762.645    -1785044.222 3  -1258222.441 6
 91  4 18 21  5 45.0850000  0  6 18 11 16 19 02 06
  20839168.990     3647985.038 7   2839170.685 9
  22049607.395    -6244574.698 6  -4801295.352 9
  23237751.052    -2161038.469 4  -1591885.641 6
  20126094.846    -2337392.177 6  -1809505.075 9
  21551801.117   -11032025.560 7  -8463904.133 9
  23359779.510    -1827010.633 3  -1290923.440 5
 91  4 18 21  6  0.1890000  0  6 18 11 16 19 02 06
  20844610.257     3676576.619 7   2861449.757 9
  22047016.943    -6258187.616 6  -4811902.794 9
  23234292.904    -2179212.259 4  -1606047.012 6
  20125003.592    -2343134.858 6  -1813979.902 9
  21543453.504   -11075877.969 7  -8498074.725 9
  23351657.869    -1869702.506 4  -1324189.687 6
 91  4 18 21  6 15.0370000  0  6 18 11 16 19 02 06
  20849974.869     3704776.377 7   2883423.505 9
  22044497.915    -6271421.510 6  -4822214.894 9
  23230919.336    -2196948.679 5  -1619867.576 7
  20123937.508    -2348732.074 6  -1818341.384 9
  21535264.962   -11118918.140 7  -8531612.416 9
  23343669.677    -1911667.397 4  -1356889.465 6
 91  4 18 21  6 30.1410000  0  6 18 11 16 19 02 06
  20855452.767     3733553.505 7   2905847.156 9
  22041966.291    -6284735.589 6  -4832589.474 9
  23227504.796    -2214862.041 5  -1633826.040 6
  20122863.956    -2354379.798 6  -1822742.218 9
  21526944.470   -11162633.075 7  -8565675.909 9
  23335546.105    -1954355.307 4  -1390152.592 5
 91  4 18 21  6 45.2450000  0  6 18 11 16 19 02 06
  20860944.405     3762413.738 7   2928335.560 9
  22039458.745    -6297909.024 6  -4842854.457 9
  23224121.433    -2232654.272 4  -1647690.101 5
  20121795.635    -2359989.751 6  -1827113.620 9
  21518636.554   -11206288.757 7  -8599693.215 9
  23327423.891    -1997051.432 4  -1423422.181 4
 91  4 18 21  7  0.0930000  0  6 18 11 16 19 02 06
  20866358.754     3790874.988 7   2950513.064 9
  22037023.522    -6310712.511 6  -4852831.169 9
  23220817.778    -2250017.472 5  -1661219.876 6
  20120753.781    -2365458.187 6  -1831374.745 9
  21510484.061   -11249136.926 7  -8633081.289 9
  23319431.379    -2039022.465 4  -1456126.706 6
 91  4 18 21  7 15.1970000  0  6 18 11 16 19 02 06
  20871886.472     3819913.065 7   2973140.050 9
  22034573.437    -6323593.100 6  -4862867.966 9
  23217480.843    -2267555.985 5  -1674886.210 6
  20119703.500    -2370979.224 6  -1835676.854 9
  21502200.058   -11292660.766 7  -8666995.868 9
  23311309.604    -2081721.353 4  -1489398.427 6
 91  4 18 21  7 30.0450000  0  6 18 11 16 19 02 06
  20877333.173     3848539.579 7   2995446.336 9
  22032189.004    -6336117.901 6  -4872627.522 9
  23214220.746    -2284679.080 5  -1688228.874 5
  20118678.266    -2376369.519 6  -1839877.090 9
  21494069.967   -11335388.799 7  -8700290.343 9
  23303317.368    -2123704.500 4  -1522112.430 5
 91  4 18 21  7 45.1490000  0  6 18 11 16 19 02 06
  20882892.373     3877750.719 7   3018208.169 9
  22029791.853    -6348709.025 6  -4882438.752 9
  23210935.448    -2301967.669 5  -1701700.463 6
  20117643.716    -2381805.268 6  -1844112.738 9
  21485812.340   -11378784.631 7  -8734105.175 9
  23295191.783    -2166409.988 4  -1555389.270 6
 91  4 18 21  8  0.2530000  0  6 18 11 16 19 02 06
  20888467.243     3907048.983 7   3041037.901 9
  22027425.256    -6361153.906 6  -4892136.033 9
  23207666.310    -2319130.110 5  -1715073.775 5
  20116621.619    -2387197.580 6  -1848314.542 9
  21477567.329   -11422115.499 7  -8767869.382 9
  23287064.676    -2209118.720 4  -1588668.638 5
 91  4 18 21  8 15.1010000  0  6 18 11 16 19 02 06
  20893965.704     3935936.421 7   3063547.499 9
  22025122.391    -6373244.219 6  -4901557.032 9
  23204479.129    -2335877.667 4  -1728123.832 6
  20115616.570    -2392454.993 6  -1852411.234 9
  21469472.552   -11464647.605 7  -8801011.184 9
  23279072.041    -2251105.730 4  -1621385.652 5
 91  4 18 21  8 30.2050000  0  6 18 11 16 19 02 06
  20899573.794     3965408.979 7   3086513.039 9
  22022811.037    -6385396.802 6  -4911026.554 9
  23201266.145    -2352787.932 4  -1741300.648 6
  20114608.406    -2397758.912 6  -1856544.162 9
  21461251.924   -11507847.756 7  -8834673.535 9
  23270944.883    -2293818.919 4  -1654668.494 6
 91  4 18 21  8 45.0530000  0  6 18 11 16 19 02 06
  20905102.349     3994461.351 7   3109151.163 9
  22020563.732    -6397205.454 6  -4920228.070 9
  23198124.115    -2369293.249 5  -1754161.955 6
  20113622.163    -2402935.340 6  -1860577.746 9
  21453182.124   -11550257.228 7  -8867719.768 9
  23262955.139    -2335816.278 4  -1687393.567 6
 91  4 18 21  9  0.1570000  0  6 18 11 16 19 02 06
  20910740.042     4024095.049 7   3132242.263 9
  22018302.688    -6409077.688 6  -4929479.136 9
  23194947.404    -2385963.393 5  -1767151.643 5
  20112629.925    -2408163.146 6  -1864651.365 9
  21444983.377   -11593338.643 7  -8901289.590 9
  23254824.600    -2378546.396 5  -1720689.599 5
 91  4 18 21  9 15.0050000  0  6 18 11 16 19 02 06
  20916300.764     4053315.381 7   3155011.262 9
  22016110.433    -6420600.662 6  -4938458.061 9
  23191853.743    -2402223.001 5  -1779821.437 6
  20111659.577    -2413254.710 6  -1868618.825 9
  21436938.021   -11635621.275 7  -8934236.994 9
  23246828.380    -2420550.503 5  -1753419.928 5
 91  4 18 21  9 30.1090000  0  6 18 11 16 19 02 06
  20921975.334     4083122.535 7   3178237.523 9
  22013909.782    -6432179.064 6  -4947480.166 9
  23188728.976    -2418640.149 5  -1792614.022 6
  20110682.978    -2418392.655 6  -1872622.427 9
  21428765.385   -11678570.487 7  -8967703.822 9
  23238698.402    -2463284.418 5  -1786718.937 6
 91  4 18 21  9 45.2130000  0  6 18 11 16 19 02 06
  20927661.804     4113013.673 7   3201529.232 9
  22011734.136    -6443612.491 6  -4956389.306 9
  23185629.748    -2434932.727 5  -1805309.544 6
  20109711.476    -2423488.463 6  -1876593.205 9
  21420604.281   -11721456.333 7  -9001121.276 9
  23230565.176    -2506023.636 4  -1820022.065 6
 91  4 18 21 10  0.0610000  0  6 18 11 16 19 02 06
  20933269.914     4142483.704 7   3224492.799 9
  22009621.968    -6454706.819 6  -4965034.208 9
  23182608.890    -2450824.036 5  -1817692.382 6
  20108766.298    -2428452.847 6  -1880461.561 9
  21412593.269   -11763549.484 7
  23222570.458    -2548039.565 4
 91  4 18 21 10 15.1650000  0  6 18 11 16 19 02 06
  20938991.474     4172550.583 7   3247921.443 9
  22007503.416    -6465842.435 7  -4973711.290 9
  23179553.955    -2466860.177 5  -1830188.075 6
  20107814.470    -2433454.781 6  -1884359.193 9
  21404458.980   -11806299.135 7
  23214437.058    -2590779.093 4
 91  4 18 21 10 30.0130000  0  6 18 11 16 19 02 06
  20944631.302     4202191.755 7   3271018.368 9
  22005446.450    -6476645.062 6  -4982128.899 9
  23176578.207    -2482500.481 5  -1842375.347 6
  20106887.098    -2438327.838 6  -1888156.397 9
  21396471.841   -11848259.508 7
  23206443.116    -2632796.713 4
 91  4 18 21 10 45.1170000  0  6 18 11 16 19 02 06
  20950386.571     4232428.461 7   3294579.346 9
  22003381.721    -6487487.842 6  -4990577.802 9
  23173575.941    -2498285.270 5  -1854675.186 5
  20105953.545    -2443240.653 6  -1891984.583 9
  21388363.724   -11890878.054 7  -9133137.76619
  23198305.742    -2675541.945 4  -1952113.75216
 91  4 18 21 11  0.2210000  0  6 18 11 16 19 02 06
  20956156.907     4262753.075 7   3318208.820 9
  22001349.630    -6498180.247 7  -4998909.516 9
  23170596.108    -2513940.679 5  -1866874.242 6
  20105030.504    -2448106.012 6  -1895775.789 9
  21380265.719   -11933427.671 7  -9166293.204 9
  23190172.557    -2718287.382 4  -1985421.729 5
 91  4 18 21 11 15.0690000  0  6 18 11 16 19 02 06
  20961845.308     4292645.684 7   3341501.666 9
  21999376.225    -6508548.182 7  -5006988.402 9
  23167691.396    -2529208.532 5  -1878771.289 6
  20104124.573    -2452845.950 6  -1899469.266 9
  21372318.787   -11975192.448 7  -9198837.079 9
  23182173.988    -2760312.112 4  -2018168.115 5
 91  4 18 21 11 30.1730000  0  6 18 11 16 19 02 06
  20967650.060     4323140.342 7   3365263.636 9
  21997397.967    -6518945.586 7  -5015090.258 9
  23164760.790    -2544611.325 5  -1890773.454 6
  20103220.164    -2457620.380 6  -1903189.621 9
  21364246.770   -12017609.075 7  -9231888.897 9
  23174038.290    -2803061.822 5  -2051479.483 6
 91  4 18 21 11 45.0210000  0  6 18 11 16 19 02 06
  20973368.595     4353195.898 7   3388683.455 9
  21995479.274    -6529027.169 7  -5022946.019 9
  23161901.138    -2559634.357 5  -1902479.729 6
  20102330.169    -2462274.486 6  -1906816.216 9
  21356323.834   -12059246.720 7  -9264333.726 9
  23166039.700    -2845094.557 5  -2084232.116 5
 91  4 18 21 12  0.1250000  0  6 18 11 16 19 02 06
  20979203.736     4383858.762 7   3412576.487 9
  21993555.719    -6539130.566 7  -5030818.771 9
  23159015.754    -2574785.531 5  -1914285.849 6
  20101443.473    -2466958.535 6  -1910466.138 9
  21348277.294   -12101531.009 7  -9297282.434 9
  23157905.064    -2887849.620 5  -2117547.637 6
 91  4 18 21 12 15.2290000  0  6 18 11 16 19 02 06
  20985056.651     4414618.092 7   3436544.699 9
  21991665.935    -6549073.616 7  -5038566.588 9
  23156159.840    -2589798.030 5  -1925983.916 6
  20100557.145    -2471584.836 6  -1914071.065 9
  21340247.343   -12143736.490 7  -9330169.709 9
  23149771.552    -2930595.465 5  -2150855.962 6
 91  4 18 21 12 30.0770000  0  6 18 11 16 19 02 06
  20990825.824     4444935.054 7   3460168.204 9
  21989830.516    -6558706.691 7  -5046072.866 9
  23153373.911    -2604435.823 5  -1937389.985 6
  20099702.586    -2476091.374 6  -1917582.666 9
  21332361.539   -12185164.805 7  -9362451.407 9
  23141775.056    -2972622.674 5  -2183604.310 6
 91  4 18 21 12 45.1810000  0  6 18 11 16 19 02 06
  20996708.865     4475852.703 7   3484259.782 9
  21987993.677    -6568364.102 7  -5053598.104 9
  23150561.167    -2619205.952 5  -1948899.205 6
  20098836.995    -2480635.527 6  -1921123.578 9
  21324354.143   -12227246.563 7  -9395242.277 9
  23133635.272    -3015382.723 5  -2216923.707 6
 91  4 18 21 13  0.0290000  0  6 18 11 16 19 02 06
  21002511.165     4506337.015 7   3508013.686 9
  21986217.741    -6577704.199 6  -5060876.081 9
  23147824.914    -2633593.257 5  -1960110.123 6
  20097995.624    -2485049.024 6  -1924562.674 9
  21316495.900   -12268540.977 7  -9427419.635 9
  23125638.459    -3057411.847 5  -2249673.537 6
 91  4 18 21 13 15.1330000  0  6 18 11 16 19 02 06
  21008426.118     4537427.504 7   3532239.934 9
  21984436.892    -6587060.500 7  -5068166.699 9
  23145065.902    -2648105.321 5  -1971418.218 5
  20097150.422    -2489495.288 6  -1928027.306 9
  21308513.572   -12310483.227 7  -9460101.801 9
  23117501.576    -3100170.812 5  -2282992.080 6
 91  4 18 21 13 30.2370000  0  6 18 11 16 19 02 06
  21014357.957     4568601.622 7   3556531.351 9
  21982681.396    -6596267.853 6  -5075341.245 9
  23142329.946    -2662490.487 5  -1982627.466 6
  20096313.607    -2493895.179 6  -1931455.799 9
  21300545.424   -12352358.109 7  -9492731.474 9
  23109365.919    -3142932.312 5  -2316312.629 6
 91  4 18 21 13 45.0850000  0  6 18 11 16 19 02 06
  21020205.714     4599321.945 7   3580469.170 9
  21980987.723    -6605180.740 7  -5082286.336 9
  23139659.315    -2676514.819 5  -1993555.536 6
  20095498.908    -2498181.988 6  -1934796.174 9
  21292724.700   -12393464.368 7  -9524762.225 9
  23101360.873    -3184978.333 5  -2349075.628 6
 91  4 18 21 14  0.1890000  0  5 18 11 16 19 06
  21026165.603     4630655.427 7   3604884.772 9
  21979290.832    -6614098.584 7  -5089235.295 9
  23136969.225    -2690654.334 5  -2004573.364 6
  20094675.403    -2502495.608 6  -1938157.445 9
  23093222.886    -3227750.854 5  -2382404.767 6
 91  4 18 21 14 15.0370000  0  6 18 11 16 19 02 06
  21032045.253     4661540.779 7   3628951.185 9
  21977650.502    -6622717.961 7  -5095951.673 9
  23134348.618    -2704428.722 5  -2015306.643 6
  20093878.100    -2506688.630 6  -1941424.738 9
  21276982.424   -12476183.180 7  -9589218.226 9
  23085222.539    -3269798.987 5  -2415169.432 6
 91  4 18 21 14 30.1410000  0  6 18 11 16 19 02 06
  21038038.668     4693036.508 7   3653493.202 9
  21976012.369    -6631342.438 7  -5102672.035 9
  23131704.240    -2718319.248 5  -2026130.479 5
  20093075.618    -2510911.891 6  -1944715.599 9
  21269063.266   -12517798.690 7  -9621645.786 9
  23077079.351    -3312579.011 5  -2448504.377 6
 91  4 18 21 14 45.2450000  0  6 18 11 16 19 02 06
  21044047.651     4724616.092 7   3678100.565 9
  21974396.045    -6639816.481 7  -5109275.162 9
  23129083.122    -2732081.929 4  -2036854.658 6
  20092280.818    -2515087.109 6  -1947969.023 9
  21261157.246   -12559345.328 7  -9654019.681 9
  23068936.768    -3355360.493 5  -2481840.493 6
 91  4 18 21 15  0.0930000  0  6 18 11 16 19 02 06
  21049971.797     4755745.271 7   3702356.970 9
  21972839.254    -6647997.156 6  -5115649.702 9
  23126533.337    -2745483.649 4  -2047297.591 6
  20091513.701    -2519141.591 6  -1951128.365 9
  21253397.210   -12600117.570 7  -9685790.155 9
  23060937.800    -3397415.080 5  -2514610.206 6
 91  4 18 21 15 15.1970000  0  6 18 11 16 19 02 06
  21056015.103     4787497.404 7   3727098.789 9
  21971285.917    -6656166.186 6  -5122015.166 9
  23123967.106    -2758986.093 4  -2057818.978 6
  20090734.683    -2523214.638 6  -1954302.181 9
  21245519.833   -12641520.949 7  -9718052.440 9
  23052797.035    -3440192.615 5  -2547943.232 7
 91  4 18 21 15 30.0450000  0  6 18 11 16 19 02 06
  21061967.678     4818790.571 7   3751482.966 9
  21969784.442    -6664051.692 6  -5128159.707 9
  23121465.352    -2772136.812 4  -2068066.304 4
  20089984.666    -2527173.140 6  -1957386.738 9
  21237785.713   -12682156.809 7  -9749716.654 9
  23044795.911    -3482248.096 5  -2580713.636 6
 91  4 18 21 15 45.1490000  0  6 18 11 16 19 02 06
  21068042.936     4850713.618 7   3776357.964 9
  21968287.421    -6671915.869 6  -5134287.623 9
  23118944.752    -2785379.396 5  -2078385.251 5
  20089224.945    -2531143.763 6  -1960480.740 9
  21229933.782   -12723416.691 7  -9781867.121 9
  23036655.433    -3525022.037 5  -2614043.902 6
 91  4 18 21 16  0.2530000  0  6 18 11 16 19 02 06
  21074136.858     4882731.865 7   3801307.140 9
  21966823.129    -6679616.960 6  -5140288.466 9
  23116448.290    -2798481.810 5  -2088594.971 6
  20088483.999    -2535053.372 6  -1963527.201 9
  21222099.778   -12764594.865 7  -9813953.920 9
  23028517.661    -3567784.986 5  -2647365.552 7
 91  4 18 21 16 15.1010000  0  6 18 11 16 19 02 06
  21080143.460     4914295.183 7   3825901.832 9
  21965412.487    -6687033.524 6  -5146067.594 9
  23114022.027    -2811230.511 5  -2098529.030 6
  20087759.571    -2538842.090 6  -1966479.459 9
  21214410.881   -12805000.508 7  -9845438.737 9
  23020518.539    -3609817.245 5  -2680117.866 6
 91  4 18 21 16 30.2050000  0  6 18 11 16 19 02 06
  21086269.600     4946497.109 7   3850994.137 9
  21964005.921    -6694415.805 6  -5151820.018 9
  23111580.420    -2824059.850 5  -2108525.941 5
  20087042.028    -2542634.962 6  -1969434.954 9
  21206604.541   -12846021.383 7  -9877402.962 9
  23012383.107    -3652562.937 5  -2713426.091 6
 91  4 18 21 16 45.0530000  0  6 18 11 16 19 02 06
  21092310.454     4978238.556 7   3875727.626 9
  21962652.893    -6701521.131 7  -5157356.618 9
  23109207.511    -2836542.504 5  -2118252.727 6
  20086340.666    -2546310.972 6  -1972299.389 9
  21198943.531   -12886274.311 7  -9908768.787 9
  23004387.939    -3694580.502 5  -2746166.956 6
 91  4 18 21 17  0.1570000  0  6 18 11 16 19 02 06
  21098471.081     5010615.396 7   3900956.224 9
  21961309.303    -6708592.745 7  -5162866.944 9
  23106814.590    -2849106.955 5  -2128043.230 5
  20085639.033    -2549995.091 6  -1975170.137 9
  21191165.629   -12927145.646 7  -9940616.482 9
  22996251.107    -3737317.201 5  -2779468.166 6
 91  4 18 21 17 15.0050000  0  6 18 11 16 19 02 06
  21104544.337     5042530.250 7   3925824.843 9
  21960015.809    -6715390.205 7  -5168163.657 9
  23104492.307    -2861326.724 5  -2137565.173 6
  20084959.612    -2553561.607 6  -1977949.260 9
  21183534.336   -12967249.262 7  -9971865.948 9
  22988264.295    -3779323.604 5  -2812200.333 6
 91  4 18 21 17 30.1090000  0  6 18 11 16 19 02 06
  21110740.890     5075076.523 7   3951185.464 9
  21958729.669    -6722154.854 7  -5173434.797 9
  23102151.268    -2873630.203 5  -2147152.335 5
  20084277.811    -2557140.525 6  -1980738.032 9
  21175784.097   -13007974.984 7 -10003600.176 9
  22980128.239    -3822055.129 5  -2845497.536 6
 91  4 18 21 17 45.2130000  0  6 18 11 16 19 02 06
  21116949.987     5107712.032 7   3976615.619 9
  21957470.069    -6728760.762 6  -5178582.239 9
  23099833.357    -2885798.430 5  -2156634.108 5
  20083607.758    -2560662.214 6  -1983482.221 9
  21168049.314   -13048623.261 7 -10035274.064 9
  22971996.045    -3864780.109 5  -2878789.633 7
 91  4 18 21 18  0.0610000  0  6 18 11 16 19 02 06
  21123071.080     5139875.816 7   4001678.203 9
  21956265.273    -6735105.167 7  -5183525.924 9
  23097580.599    -2897633.876 5  -2165856.580 6
  20082958.554    -2564073.710 6  -1986140.539 9
  21160458.728   -13088512.298 7 -10066356.343 9
  22964007.241    -3906779.864 5  -2911516.606 7
 91  4 18 21 18 15.1650000  0  6 18 11 16 19 02 06
  21129313.979     5172678.172 7   4027238.367 9
  21955064.215    -6741405.483 6  -5188435.245 9
  23095313.988    -2909543.094 5  -2175136.499 6
  20082310.504    -2567491.167 6  -1988803.499 9
  21152750.923   -13129016.128 7 -10097917.673 9
  22955874.505    -3949501.357 5  -2944805.965 6
 91  4 18 21 18 30.0130000  0  6 18 11 16 19 02 06
  21135463.052     5205003.054 7   4052426.467 9
  21953911.414    -6747452.072 6  -5193146.872 9
  23093112.867    -2921126.948 5  -2184162.943 6
  20081680.534    -2570802.357 6  -1991383.657 9
  21145186.703   -13168765.581 7 -10128891.191 9
  22947885.916    -3991500.390 5  -2977532.391 6
 91  4 18 21 18 45.1170000  0  6 18 11 16 19 02 06
  21141737.056     5237967.535 7   4078112.969 9
  21952772.312    -6753450.574 7  -5197821.007 9
  23090892.205    -2932781.908 5  -2193244.769 6
  20081048.257    -2574118.779 6  -1993967.895 9
  21137507.470   -13209128.382 7 -10160342.631 9
  22939756.388    -4034222.278 5  -3010822.057 6
 91  4 18 21 19  0.2210000  0  6 18 11 16 19 02 06
  21148027.557     5271018.152 7   4103866.581 9
  21951663.262    -6759292.125 7  -5202372.853 9
  23088701.871    -2944303.940 5  -2202222.999 6
  20080426.501    -2577379.480 6  -1996508.705 9
  21129839.596   -13249415.451 7 -10191735.053 9
  22931626.808    -4076939.624 5  -3044108.223 7
 91  4 18 21 19 15.0690000  0  6 18 11 16 19 02 06
  21154224.109     5303589.525 7   4129246.763 9
  21950594.869    -6764884.520 7  -5206730.550 9
  23086570.254    -2955503.559 5  -2210950.024 6
  20079828.566    -2580533.326 6  -1998966.254 9
  21122317.371   -13288948.662 7 -10222540.060 9
  22923634.991    -4118931.366 5  -3076828.973 6
 91  4 18 21 19 30.1730000  0  6 18 11 16 19 02 06
  21160544.857     5336803.007 7   4155127.283 9
  21949543.668    -6770422.187 6  -5211045.597 9
  23084425.153    -2966768.906 5  -2219728.267 5
  20079226.321    -2583690.623 6  -2001426.499 9
  21114678.008   -13329092.617 7 -10253820.962 9
  22915506.740    -4161647.003 5  -3110113.774 6
 91  4 18 21 19 45.0210000  0  6 18 11 16 19 02 06
  21166771.259     5369528.022 7   4180627.181 9
  21948532.674    -6775721.820 7  -5215175.170 9
  23082339.419    -2977722.468 5  -2228263.520 5
  20078645.947    -2586748.592 6  -2003809.331 9
  21107179.389   -13368491.019 7 -10284520.921 9
  22907515.842    -4203643.115 5  -3142837.938 6
 91  4 18 21 20  0.1250000  0  6 18 11 16 19 02 06
  21173121.549     5402893.768 7   4206626.345 9
  21947537.084    -6780965.156 7  -5219260.869 9
  23080247.660    -2988741.321 5  -2236849.686 5
  20078061.731    -2589811.494 6  -2006196.021 9
  21099566.862   -13408501.262 7 -10315697.639 9
  22899385.200    -4246366.807 5  -3176129.049 6
 91  4 18 21 20 15.2290000  0  6 18 11 16 19 02 06
  21179486.906     5436339.521 7   4232687.856 9
  21946568.095    -6786056.485 7  -5223228.131 9
  23078172.909    -2999632.424 5  -2245336.300 6
  20077488.701    -2592823.085 6  -2008542.711 9
  21091965.949   -13448440.347 7 -10346818.913 9
  22891252.025    -4289090.981 5  -3209420.530 7
 91  4 18 21 20 30.0770000  0  6 18 11 16 19 02 06
  21185756.467     5469294.160 7   4258366.683 9
  21945642.071    -6790915.536 7  -5227014.386 9
  23076159.000    -3010216.614 5  -2253583.770 6
  20076939.657    -2595735.881 6  -2010812.430 9
  21084508.028   -13487635.620 7 -10377360.592 9
  22883263.773    -4331093.642 5  -3242149.776 6
 91  4 18 21 20 45.1810000  0  6 18 11 16 19 02 06
  21192151.335     5502897.241 7   4284550.785 9
  21944731.716    -6795706.361 6  -5230747.491 9
  23074133.067    -3020855.523 4  -2261873.858 6
  20076380.693    -2598646.590 7  -2013080.523 9
  21076933.337   -13527434.838 7 -10408372.884 9
  22875131.599    -4373819.664 5  -3275442.706 6
 91  4 18 21 21  0.0290000  0  6 18 11 16 19 02 06
  21198451.122     5536001.049 7   4310345.842 9
  21943862.723    -6800274.814 6  -5234307.317 9
  23072165.116    -3031196.647 5  -2269931.899 6
  20075844.653    -2601464.750 6  -2015276.495 9
  21069499.606   -13566496.994 7 -10438810.853 9
  22867137.943    -4415828.817 5  -3308177.001 6
 91  4 18 21 21 15.1330000  0  6 18 11 16 19 02 06
  21204876.759     5569762.810 7   4336653.594 9
  21943008.501    -6804762.586 6  -5237804.280 9
  23070191.730    -3041581.127 5  -2278023.763 6
  20075309.878    -2604271.690 7  -2017463.732 9
  21061953.262   -13606153.306 7 -10469711.792 9
  22859008.946    -4458554.078 5  -3341469.326 6
 91  4 18 21 21 30.2370000  0  6 18 11 16 19 02 06
  21211317.586     5603613.782 7   4363030.848 9
  21942186.742    -6809088.116 6  -5241174.813 9
  23068239.582    -3051827.916 4  -2286008.311 6
  20074786.719    -2607016.591 6  -2019602.624 9
  21054424.326   -13645727.981 7 -10500549.126 9
  22850876.721    -4501269.468 5  -3374753.928 6
 91  4 18 21 21 45.0850000  0  6 18 11 16 19 02 06
  21217664.658     5636970.684 7   4389023.119 9
  21941405.538    -6813189.050 7  -5244370.341 9
  23066348.867    -3061773.669 4  -2293758.297 6
  20074284.868    -2609661.490 7  -2021663.592 9
  21047034.652   -13684559.386 7 -10530807.293 9
  22842887.355    -4543258.164 5  -3407472.318 7
 91  4 18 21 22  0.1890000  0  6 18 11 16 19 02 06
  21224136.651     5670982.630 7   4415525.808 9
  21940639.851    -6817207.863 7  -5247501.876 9
  23064445.466    -3071762.739 4  -2301542.030 5
  20073783.641    -2612298.249 6  -2023718.224 9
  21039530.927   -13723987.424 7 -10561530.366 9
  22834757.602    -4585969.138 5  -3440753.502 7
 91  4 18 21 22 15.0370000  0  6 18 11 16 19 02 06
  21230518.086     5704502.202 7   4441644.840 9
  21939918.273    -6821002.481 7  -5250458.717 9
  23062602.211    -3081450.647 4  -2309091.130 6
  20073302.425    -2614831.602 6  -2025692.270 9
  21032170.275   -13762669.769 7 -10591672.379 9
  22826771.383    -4627948.753 5  -3473464.781 7
 91  4 18 21 22 30.1410000  0  6 18 11 16 19 02 06
  21237021.276     5738689.461 7   4468284.136 9
  21939213.937    -6824699.471 7  -5253339.484 9
  23060752.571    -3091167.269 4  -2316662.563 5
  20072824.784    -2617344.566 6  -2027650.442 9
  21024698.850   -13801935.905 7 -10622269.296 9
  22818647.545    -4670640.197 5  -3506730.748 7
 91  4 18 21 22 45.2450000  0  6 18 11 16 19 02 06
  21243543.783     5772963.335 7   4494990.930 9
  21938542.230    -6828235.477 7  -5256094.802 9
  23058934.150    -3100747.771 5  -2324127.926 5
  20072355.244    -2619796.328 6  -2029560.920 9
  21017240.725   -13841121.395 7 -10652803.363 9
  22810526.352    -4713322.992 5  -3539989.971 6
 91  4 18 21 23  0.0930000  0  6 18 11 16 19 02 06
  21249971.534     5806729.464 7   4521302.081 9
  21937908.093    -6831565.882 7  -5258689.923 9
  23057163.351    -3110044.751 5  -2331372.363 6
  20071905.756    -2622158.015 7  -2031401.207 9
  21009922.763   -13879575.339 7 -10682767.405 9
  22802538.988    -4755285.260 5  -3572687.748 6
 91  4 18 21 23 15.1970000  0  6 18 11 16 19 02 06
  21256522.194     5841164.208 7   4548134.220 9
  21937292.241    -6834793.276 7  -5261204.772 9
  23055390.989    -3119366.381 5  -2338636.058 5
  20071462.683    -2624498.729 6  -2033225.156 9
  21002495.406   -13918611.415 7 -10713185.059 9
  22794420.248    -4797961.647 5  -3605941.968 7
 91  4 18 21 23 30.0450000  0  6 18 11 16 19 02 06
  21262977.168     5875087.388 7   4574567.747 9
  21936717.343    -6837820.899 7  -5263563.958 9
  23053668.284    -3128409.415 5  -2345682.614 5
  20071034.116    -2626751.631 6  -2034980.681 9
  20995205.116   -13956919.075 7 -10743035.115 9
  22786436.827    -4839918.105 5  -3638635.219 7
 91  4 18 21 23 45.1490000  0  6 18 11 16 19 02 06
  21269559.525     5909672.923 7   4601517.385 9
  21936159.687    -6840748.722 7  -5265845.371 9
  23051943.116    -3137481.508 5  -2352751.858 6
  20070608.082    -2628989.882 6  -2036724.790 9
  20987803.052   -13995814.796 7 -10773343.396 9
  22778310.768    -4882597.023 5  -3671891.396 7
 91  4 18 21 24  0.2530000  0  6 18 11 16 19 02 06
  21276156.122     5944335.974 7   4628527.430 9
  21935631.563    -6843523.683 7  -5268007.671 9
  23050242.526    -3146425.938 5  -2359721.587 6
  20070193.704    -2631174.321 6  -2038426.969 9
  20980417.454   -14034637.744 7 -10803594.966 9
  22770193.836    -4925275.261 5  -3705147.061 6
 91  4 18 21 24 15.1010000  0  6 18 11 16 19 02 06
  21282654.511     5978483.603 7   4655135.848 9
  21935142.604    -6846106.064 7  -5270019.906 9
  23048590.520    -3155097.809 5  -2366478.970 6
  20069789.469    -2633272.623 6  -2040062.015 9
  20973166.819   -14072735.191 7 -10833281.222 9
  22762205.808    -4967233.043 5  -3737841.321 7
 91  4 18 21 24 30.2050000  0  6 18 11 16 19 02 06
  21289280.497     6013299.384 6   4682264.899 9
  21934671.982    -6848578.487 7  -5271946.452 9
  23046937.278    -3163790.211 5  -2373252.370 6
  20069399.209    -2635350.694 6  -2041681.309 9
  20965804.900   -14111414.566 7 -10863420.920 9
  22754088.395    -5009910.746 5  -3771096.578 6
 91  4 18 21 24 45.0530000  0  6 18 11 16 19 02 06
  21295804.495     6047593.251 6   4708987.264 9
  21934232.965    -6850866.641 7  -5273729.413 9
  23045332.710    -3172218.171 5  -2379819.662 6
  20069017.438    -2637347.560 6  -2043237.321 9
  20958582.377   -14149374.052 7 -10892999.654 9
  22746100.327    -5051871.163 5  -3803792.917 7
 91  4 18 21 25  0.1570000  0  6 18 11 16 19 02 06
  21302459.708     6082550.752 7   4736226.752 9
  21933819.894    -6853046.298 7  -5275427.839 9
  23043723.332    -3180668.943 5  -2386404.755 6
  20068641.305    -2639328.905 6  -2044781.246 9
  20951246.762   -14187919.331 7 -10923034.868 9
  22737977.091    -5094558.029 5  -3837055.319 6
 91  4 18 21 25 15.0050000  0  6 18 11 16 19 02 06
  21309013.044     6116999.827 6   4763070.054 9
  21933440.932    -6855030.437 6
  23042165.877    -3188842.847 5  -2392774.102 6
  20068282.190    -2641214.178 7
  20944050.880   -14225730.487 7 -10952498.029 9
  22729995.652    -5136511.015 5  -3869745.884 6
 91  4 18 21 25 30.1090000  0  6 18 11 16 19 02 06
  21315696.512     6152110.926 6   4790429.216 9
  21933085.006    -6856904.775 6
  23040609.045    -3197039.296 5  -2399161.017 5
  20067923.781    -2643085.615 7  -2047708.57419
  20936744.859   -14264128.763 7 -10982418.691 9
  22721874.705    -5179194.201 5  -3903005.411 6
 91  4 18 21 25 45.2130000  0  6 18 11 16 19 02 06
  21322388.600     6187292.519 6   4817843.320 9
  21932756.200    -6858632.037 7
  23039070.897    -3205114.580 5  -2405453.518 6
  20067580.378    -2644908.237 6  -2049128.824 9
  20929450.922   -14302459.677 7 -11012286.862 9
  22713749.048    -5221882.357 5  -3936268.831 7
 91  4 18 21 26  0.0610000  0  6 18 11 16 19 02 06
  21328983.788     6221948.792 6   4844848.077 9
  21932459.123    -6860183.893 7
  23037584.917    -3212931.922 5  -2411545.023 5
  20067247.036    -2646649.463 6  -2050485.639 9
  20922293.480   -14340072.432 7 -11041595.428 9
  22705762.451    -5263849.020 5  -3968970.038 7
 91  4 18 21 26 15.1650000  0  6 18 11 16 19 02 06
  21335707.963     6257279.487 6   4872378.353 9
  21932190.372    -6861609.067 7  -5282100.10319
  23036094.402    -3220756.439 5  -2417642.082 6
  20066920.355    -2648364.385 6  -2051821.954 9
  20915027.022   -14378259.167 7 -11071351.254 9
  22697640.850    -5306536.500 5  -4002232.932 7
 91  4 18 21 26 30.0130000  0  6 18 11 16 19 02 06
  21342331.743     6292089.187 6   4899502.665 9
  21931955.045    -6862856.692 7  -5283072.268 9
  23034655.688    -3228320.163 4  -2423535.950 5
  20066606.330    -2649992.291 6  -2053090.470 9
  20907897.407   -14415722.669 7 -11100543.530 9
  22689656.224    -5348495.170 5  -4034927.907 7
 91  4 18 21 26 45.1170000  0  6 18 11 16 19 02 06
  21349083.855     6327570.281 6   4927150.129 9
  21931738.310    -6863977.656 7  -5283945.735 9
  23033215.882    -3235892.202 4  -2429436.274 6
  20066305.156    -2651597.049 6  -2054340.950 9
  20900658.939   -14453762.755 7 -11130185.084 9
  22681531.466    -5391179.704 5  -4068188.498 6
 91  4 18 21 27  0.2210000  0  6 18 11 16 19 02 06
  21355848.236     6363120.734 6   4954851.650 9
  21931552.997    -6864951.476 7  -5284704.552 9
  23031798.375    -3243343.405 5  -2435242.467 5
  20066009.346    -2653152.346 6  -2055552.886 9
  20893432.596   -14491735.219 7 -11159773.948 9
  22673408.731    -5433868.972 5  -4101452.778 6
 91  4 18 21 27 15.0690000  0  6 18 11 16 19 02 06
  21362511.314     6398133.986 6   4982134.567 9
  21931398.758    -6865767.416 6  -5285340.348 9
  23030425.937    -3250552.478 5  -2440859.941 5
  20065727.284    -2654634.943 7  -2056708.181 9
  20886341.144   -14529000.078 7 -11188811.443 9
  22665420.356    -5475841.283 5  -4134158.376 7
 91  4 18 21 27 30.1730000  0  6 18 11 16 19 02 06
  21369303.950     6433820.913 6   5009942.424 9
  21931265.960    -6866449.824 6  -5285872.090 9
  23029053.785    -3257764.353 5  -2446479.628 5
  20065454.049    -2656092.005 6  -2057843.576 9
  20879140.840   -14566838.412 7 -11218295.796 9
  22657298.030    -5518540.135 5  -4167430.120 6
 91  4 18 21 27 45.0210000  0  6 18 11 16 19 02 06
  21375990.246     6468973.678 6   5037334.056 9
  21931172.093    -6866973.467 6  -5286280.129 9
  23027729.348    -3264732.688 5  -2451909.564 6
  20065186.891    -2657471.911 6  -2058918.849 9
  20872075.447   -14603965.472 7 -11247225.910 9
  22649308.307    -5560515.952 5  -4200138.454 6
 91  4 18 21 28  0.1250000  0  6 18 11 16 19 02 06
  21382812.946     6504799.575 6   5065250.209 9
  21931098.054    -6867361.099 6  -5286582.182 9
  23026401.724    -3271702.526 5  -2457340.632 5
  20064931.062    -2658826.797 6  -2059974.628 9
  20864901.141   -14641666.177 7 -11276603.018 9
  22641181.751    -5603220.733 5  -4233414.809 6
 91  4 18 21 28 15.2290000  0  6 18 11 16 19 02 06
  21389642.795     6540697.318 6   5093222.340 9
  21931048.653    -6867597.935 7  -5286766.728 9
  23025100.966    -3278548.075 5  -2462674.889 5
  20064683.273    -2660127.778 6  -2060988.394 9
  20857741.707   -14679295.137 7 -11305924.222 9
  22633056.217    -5645926.335 5  -4266691.835 6
 91  4 18 21 28 30.0770000  0  6 18 11 16 19 02 06
  21396372.230     6576058.834 6   5120776.627 9
  21931035.454    -6867681.605 7
  23023840.200    -3285154.258 5  -2467822.640 6
  20064447.210    -2661351.941 6  -2061942.307 9
  20850715.776   -14716213.976 7 -11334692.098 9
  22625066.514    -5687906.666 5  -4299403.711 6
 91  4 18 21 28 45.1810000  0  6 18 11 16 19 02 06
  21403230.815     6612102.515 6   5148862.470 9
  21931047.855    -6867615.775 7
  23022583.970    -3291749.715 5  -2472961.996 6
  20064221.465    -2662541.955 6  -2062869.609 9
  20843581.319   -14753696.399 7 -11363899.119 9
  22616943.749    -5730609.856 5  -4332678.845 7
 91  4 18 21 29  0.0290000  0  6 18 11 16 19 02 06
  21409986.349     6647605.213 6   5176526.766 9
  21931088.276    -6867403.714 7
  23021374.106    -3298112.125 5  -2477919.770 6
  20064010.746    -2663658.527 6  -2063739.689 9
  20836584.603   -14790472.870 7 -11392556.050 9
  22608951.839    -5772589.514 5  -4365390.173 6
 91  4 18 21 29 15.1330000  0  6 18 11 16 19 02 06
  21416871.371     6683789.844 6   5204722.434 9
  21931157.034    -6867039.178 7
  23020167.471    -3304462.128 5  -2482867.907 6
  20063803.123    -2664741.009 6  -2064583.203 9
  20829478.830   -14827812.542 7 -11421651.836 9
  22600827.766    -5815294.035 5  -4398666.323 6
 91  4 18 21 29 30.2370000  0  6 18 11 16 19 02 06
  21423769.468     6720042.801 6   5232971.352 9
  21931254.170    -6866526.620 6  -5285931.97219
  23018980.663    -3310691.316 5  -2487721.894 5
  20063607.737    -2665771.515 6  -2065386.214 9
  20822386.664   -14865082.953 7 -11450693.648 9
  22592695.654    -5858001.798 5  -4431944.997 7
 91  4 18 21 29 45.0850000  0  6 18 11 16 19 02 06
  21430563.697     6755744.362 6   5260790.618 9
  21931377.068    -6865881.681 6  -5285429.432 9
  23017839.138    -3316699.842 5  -2492403.917 6
  20063424.844    -2666736.869 7  -2066138.458 9
  20815427.142   -14901657.128 7 -11479192.943 9
  22584708.024    -5899991.873 5  -4464664.450 7
 91  4 18 21 30  0.1890000  0  6 18 11 16 19 02 06
  21437489.691     6792132.979 6   5289145.237 9
  21931533.615    -6865074.721 6  -5284800.642 9
  23016700.464    -3322687.645 5  -2497069.838 5
  20063247.692    -2667663.078 6  -2066860.199 9
  20808360.391   -14938788.817 7 -11508126.666 9
  22576579.406    -5942704.862 5  -4497947.203 6
 91  4 18 21 30 15.0370000  0  6 18 11 16 19 02 06
  21444307.486     6827975.513 6   5317074.344 9
  21931710.848    -6864132.645 6  -5284066.565 9
  23015601.966    -3328451.639 5  -2501561.298 5
  20063084.229    -2668517.830 6  -2067526.269 9
  20801427.224   -14975218.872 7 -11536513.658 9
  22568589.672    -5984692.225 5  -4530664.524 6
 91  4 18 21 30 30.1410000  0  6 18 11 16 19 02 06
  21451261.695     6864505.869 6   5345539.411 9
  21931919.001    -6863024.758 6  -5283203.282 9
  23014508.423    -3334192.148 5  -2506034.542 6
  20062931.665    -2669332.476 6  -2068161.072 9
  20794389.157   -15012205.080 7 -11565334.020 9
  22560461.891    -6027403.557 5  -4563945.996 6
 91  4 18 21 30 45.2450000  0  6 18 11 16 19 02 06
  21458226.282     6901108.730 6   5374060.975 9
  21932161.519    -6861763.650 7  -5282220.599 9
  23013441.326    -3339806.600 5  -2510409.515 6
  20062786.527    -2670089.129 6  -2068750.691 9
  20787365.576   -15049116.017 7 -11594095.729 9
  22552332.873    -6070112.421 5  -4597225.541 7
 91  4 18 21 31  0.0930000  0  6 18 11 16 19 02 06
  21465086.225     6937156.792 6   5402150.229 9
  21932425.928    -6860379.333 7  -5281141.917 9
  23012416.132    -3345208.322 5  -2514618.728 6
  20062654.516    -2670781.189 6  -2069289.967 9
  20780474.618   -15085333.019 7 -11622316.711 9
  22544344.059    -6112099.836 5  -4629942.929 6
 91  4 18 21 31 15.1970000  0  6 18 11 16 19 02 06
  21472074.409     6973888.881 6   5430772.493 9
  21932719.153    -6858828.198 7  -5279933.251 9
  23011386.965    -3350587.187 5  -2518810.138 6
  20062531.515    -2671436.245 6  -2069800.416 9
  20773475.502   -15122108.947 7 -11650973.216 9
  22536215.645    -6154817.544 5  -4663229.359 6
 91  4 18 21 31 30.0450000  0  6 18 11 16 19 02 06
  21478960.114     7010060.771 6   5458958.241 9
  21933037.437    -6857161.733 7  -5278634.715 9
  23010406.727    -3355759.950 5  -2522840.925 6
  20062416.216    -2672031.029 6  -2070263.891 9
  20766607.794   -15158195.823 7 -11679092.801 9
  22528224.083    -6196816.393 5  -4695955.661 6
 91  4 18 21 31 45.1490000  0  6 18 11 16 19 02 06
  21485975.766     7046925.029 6   5487683.486 9
  21933387.060    -6855317.119 6  -5277197.372 9
  23009428.421    -3360899.857 5  -2526846.112 6
  20062313.247    -2672580.527 6  -2070692.080 9
  20759635.452   -15194832.701 7 -11707640.950 9
  22520095.402    -6239539.067 5  -4729245.969 6
 91  4 18 21 32  0.2520000  0  6 18 11 16 19 02 06
  21493002.890     7083857.643 6   5516462.000 9
  21933768.912    -6853320.270 6  -5275641.393 9
  23008473.221    -3365914.446 5  -2530753.680 6
  20062219.297    -2673072.023 6  -2071075.065 9
  20752679.649   -15231392.444 7 -11736129.005 9
  22511966.916    -6282256.887 5  -4762532.492 6
 91  4 18 21 32 15.1000000  0  6 18 11 16 19 02 06
  21499925.227     7120233.070 6   5544806.344 9
  21934169.734    -6851211.104 6  -5273997.897 9
  23007557.340    -3370725.278 5  -2534502.454 5
  20062137.024    -2673501.088 6  -2071409.422 9
  20745853.322   -15267264.562 7 -11764081.237 9
  22503975.732    -6324253.989 5  -4795257.438 6
 91  4 18 21 32 30.2040000  0  6 18 11 16 19 02 06
  21506978.542     7157304.755 6   5573693.232 9
  21934604.490    -6848915.125 6  -5272208.829 9
  23006650.662    -3375495.971 5  -2538219.933 6
  20062066.181    -2673880.414 6  -2071705.004 9
  20738923.608   -15303681.455 7 -11792457.974 9
  22495843.773    -6366973.521 5  -4828545.307 6
 91  4 18 21 32 45.0520000  0  6 18 11 16 19 02 06
  21513924.732     7193808.107 6   5602137.255 9
  21935062.119    -6846517.958 7  -5270340.917 9
  23005782.618    -3380072.700 5  -2541786.295 6
  20062003.756    -2674204.670 6  -2071957.685 9
  20732122.095   -15339416.346 7 -11820303.282 9
  22487852.732    -6408975.157 5  -4861273.770 7
 91  4 18 21 33  0.1560000  0  6 18 11 16 19 02 06
  21521003.636     7231000.272 6   5631118.024 9
  21935553.457    -6843938.439 7  -5268330.911 9
  23004916.260    -3384614.889 4  -2545325.746 6
  20061953.568    -2674486.324 6  -2072177.162 9
  20725217.612   -15375703.006 7 -11848578.529 9
  22479717.112    -6451708.571 5  -4894572.454 6
 91  4 18 21 33 15.0040000  0  6 18 11 16 19 02 06
  21527973.483     7267624.940 6   5659656.588 9
  21936063.724    -6841259.348 7  -5266243.313 9
  23004088.086    -3388963.957 5  -2548714.708 6
  20061905.832    -2674711.080 6  -2072352.318 9
  20718442.699   -15411306.572 7 -11876321.526 9
  22471725.489    -6493720.507 5  -4927308.959 7
 91  4 18 21 33 30.1080000  0  6 18 11 16 19 02 06
  21535076.454     7304943.342 6   5688735.717 9
  21936611.061    -6838389.838 7  -5264007.340 9
  23003269.003    -3393271.285 5  -2552071.134 6
  20061872.765    -2674888.104 6  -2072490.276 9
  20711563.980   -15447456.368 7 -11904490.141 9
  22463589.137    -6536461.044 5  -4960613.180 6
 91  4 18 21 33 45.2120000  0  6 18 11 16 19 02 06
  21542188.343     7342330.162 6   5717868.162 9
  21937184.448    -6835369.321 7  -5261653.700 9
  23002472.976    -3397455.591 5  -2555331.715 5
  20061849.198    -2675007.211 6
  20704697.968   -15483532.041 7 -11932601.000 9
  22455458.496    -6579200.186 5  -4993916.343 7
 91  4 18 21 34  0.0600000  0  6 18 11 16 19 02 06
  21549194.668     7379143.139 6   5746553.464 9
  21937777.049    -6832259.266 7  -5259230.300 9
  23001712.538    -3401455.572 5  -2558448.665 6
  20061835.724    -2675074.201 6
  20697962.761   -15518930.474 7 -11960184.133 9
  22447460.631    -6621219.897 5  -5026658.901 7
 91  4 18 21 34 15.1640000  0  6 18 11 16 19 02 06
  21556332.892     7416655.792 6   5775783.958 9
  21938404.381    -6828948.541 6  -5256650.528 9
  23000955.370    -3405405.019 4  -2561526.264 6
  20061835.008    -2675087.199 6
  20691123.799   -15554868.238 7 -11988187.524 9
  22439328.692    -6663965.106 5  -5059966.775 7
 91  4 18 21 34 30.0120000  0  6 18 11 16 19 02 06
  21563361.721     7453593.971 6   5804566.808 9
  21939051.531    -6825551.249 6  -5254003.304 9
  23000242.433    -3409172.385 5  -2564461.937 6
  20061844.671    -2675047.538 6
  20684412.763   -15590128.914 7 -12015663.307 9
  22431331.226    -6705988.506 5  -5092712.195 6
 91  4 18 21 34 45.1160000  0  6 18 11 16 19 02 06
  21570522.959     7491225.522 6   5833889.943 9
  21939736.017    -6821956.158 6  -5251201.944 9
  22999536.840    -3412893.310 4  -2567361.455 6
  20061860.494    -2674959.493 6
  20677600.840   -15625934.192 7 -12043563.461 9
  22423194.005    -6748745.161 5  -5126028.986 7
 91  4 18 21 35  0.2200000  0  6 18 11 16 19 02 06
  21577695.025     7528919.433 6   5863261.682 9
  21940448.431    -6818215.285 6  -5248286.992 9
  22998849.492    -3416496.740 5  -2570169.388 6
  20061885.694    -2674817.758 6
  20670799.806   -15661670.090 7 -12071409.552 9
  22415058.838    -6791505.112 5  -5159348.347 7
 91  4 18 21 35 15.0680000  0  6 18 11 16 19 02 06
  21584760.813     7566036.629 6   5892184.021 9
  21941175.392    -6814393.914 6  -5245309.319 9
  22998195.211    -3419922.852 4  -2572839.185 6
  20061925.164    -2674624.369 6
  20664127.330   -15696731.009 7 -12098729.690 9
  22407059.431    -6833541.785 5  -5192104.122 7
 91  4 18 21 35 30.1720000  0  6 18 11 16 19 02 06
  21591957.310     7603857.892 6   5921654.983 9
  21941944.286    -6810359.152 6  -5242165.360 9
  22997559.868    -3423288.842 4  -2575462.101 6
  20061969.702    -2674371.455 6  -2072087.86819
  20657354.143   -15732324.611 7 -12126464.894 9
  22398919.147    -6876303.367 5  -5225424.769 7
 91  4 18 21 35 45.0200000  0  6 18 11 16 19 02 06
  21599042.875     7641097.439 6   5950672.665 9
  21942724.846    -6806251.452 7  -5238964.564 9
  22996950.339    -3426484.322 4  -2577952.199 6
  20062029.317    -2674070.747 6  -2071853.578 9
  20650709.094   -15767247.815 7 -12153677.716 9
  22390921.588    -6918343.741 5  -5258183.415 7
 91  4 18 21 36  0.1240000  0  6 18 11 16 19 02 06
  21606264.965     7679037.818 6   5980236.447 9
  21943549.177    -6801930.625 7  -5235597.697 9
  22996349.585    -3429620.817 4  -2580396.295 6
  20062099.147    -2673713.090 6  -2071574.912 9
  20643960.812   -15802706.182 7 -12181307.553 9
  22382780.834    -6961113.935 5  -5291510.760 7
 91  4 18 21 36 15.2280000  0  6 18 11 16 19 02 06
  21613496.442     7717038.324 6   6009847.078 9
  21944397.872    -6797465.381 7  -5232118.305 9
  22995775.319    -3432641.016 4  -2582749.794 6
  20062175.831    -2673302.064 6  -2071254.658 9
  20637226.095   -15838096.064 7 -12208884.024 9
  22374639.129    -7003888.035 5  -5324841.152 7
 91  4 18 21 36 30.0760000  0  6 18 11 16 19 02 06
  21620616.953     7754455.906 6   6039003.485 9
  21945259.979    -6792932.176 7  -5228585.948 9
  22995235.968    -3435494.246 4  -2584973.178 6
  20062263.232    -2672843.013 6  -2070896.985 9
  20630620.120   -15872816.277 7 -12235938.673 9
  22366640.549    -7045938.021 5  -5357607.295 7
 91  4 18 21 36 45.1800000  0  6 18 11 16 19 02 06
  21627871.691     7792577.200 6   6068708.237 9
  21946166.624    -6788178.261 7  -5224881.612 9
  22994705.392    -3438282.728 5  -2587146.116 6
  20062359.090    -2672323.599 6  -2070492.278 9
  20623911.544   -15908067.614 7 -12263407.184 9
  22358499.223    -7088717.378 5  -5390941.781 7
 91  4 18 21 37  0.0280000  0  6 18 11 16 19 02 06
  21635014.838     7830111.070 6   6097955.253 9
  21947080.471    -6783363.515 6  -5221129.878 9
  22994204.521    -3440910.347 5  -2589193.688 5
  20062472.498    -2671759.972 6  -2070053.108 9
  20617330.064   -15942653.575 7 -12290357.218 9
  22350496.168    -7130774.410 5  -5423713.421 7
 91  4 18 21 37 15.1320000  0  6 18 11 16 19 02 06
  21642290.935     7868352.101 6   6127753.294 9
  21948038.652    -6778321.447 6  -5217201.005 9
  22993717.615    -3443467.168 5  -2591186.092 6
  20062588.460    -2671131.777 6  -2069563.640 9
  20610648.273   -15977766.157 7 -12317717.609 9
  22342356.548    -7173558.899 5  -5457051.902 7
 91  4 18 21 37 30.2360000  0  6 18 11 16 19 02 06
  21649577.432     7906653.211 6   6157598.161 9
  21949025.833    -6773134.166 7  -5213158.982 9
  22993256.012    -3445907.729 5  -2593087.927 6
  20062720.480    -2670448.549 6  -2069031.281 9
  20603979.341   -16012808.745 7 -12345023.460 9
  22334212.872    -7216345.926 5  -5490392.373 7
 91  4 18 21 37 45.0840000  0  6 18 11 16 19 02 06
  21656756.322     7944363.643 6   6186982.760 9
  21950022.341    -6767893.061 6  -5209075.018 9
  22992815.738    -3448193.496 5  -2594869.110 6
  20062857.260    -2669722.902 6  -2068465.866 9
  20597438.121   -16047188.840 7 -12371813.089 9
  22326208.449    -7258409.895 5  -5523169.415 7
 91  4 18 21 38  0.1880000  0  6 18 11 16 19 02 06
  21664066.578     7982780.730 6   6216917.984 9
  21951064.889    -6762420.295 6  -5204810.538 9
  22992398.049    -3450406.060 5  -2596593.276 6
  20063005.839    -2668932.362 6  -2067849.891 9
  20590795.126   -16082094.844 7 -12399012.515 9
  22318063.598    -7301204.025 5  -5556515.420 7
 91  4 18 21 38 15.0360000  0  6 18 11 16 19 02 06
  21671261.567     8020608.532 6   6246394.037 9
  21952116.589    -6756895.173 7  -5200505.261 9
  22992008.902    -3452464.217 5  -2598197.114 6
  20063166.543    -2668097.328 6  -2067199.240 9
  20584279.637   -16116337.152 7 -12425694.762 9
  22310058.562    -7343271.267 5  -5589295.009 7
 91  4 18 21 38 30.1400000  0  6 18 11 16 19 02 06
  21678598.904     8059151.450 6   6276427.316 9
  21953214.216    -6751126.945 7  -5196010.557 9
  22991630.511    -3454439.077 5  -2599736.023 6
  20063337.043    -2667188.551 6  -2066491.124 9
  20577664.806   -16151096.218 7 -12452779.682 9
  22301915.039    -7386061.808 5  -5622638.204 7
 91  4 18 21 38 45.2440000  0  6 18 11 16 19 02 06
  21685944.750     8097760.700 6   6306512.284 9
  21954341.784    -6745206.395 7  -5191397.154 9
  22991278.629    -3456290.577 5  -2601178.858 6
  20063523.673    -2666216.511 6  -2065733.716 9
  20571064.623   -16185777.545 7 -12479804.028 9
  22293772.916    -7428847.034 5  -5655977.274 7
 91  4 18 21 39  0.0920000  0  6 18 11 16 19 02 06
  21693178.005     8135771.839 6   6336131.198 9
  21955476.636    -6739246.074 7  -5186752.767 9
  22990950.180    -3457998.907 5  -2602510.096 6
  20063714.471    -2665207.389 6  -2064947.403 9
  20564589.239   -16219803.683 7 -12506317.841 9
  22285770.117    -7470910.105 5  -5688753.617 7
 91  4 18 21 39 15.1960000  0  6 18 11 16 19 02 06
  21700551.922     8174501.552 6   6366310.021 9
  21956656.536    -6733034.484 7  -5181912.586 9
  22990648.659    -3459617.190 5  -2603771.190 6
  20063924.004    -2664120.234 6  -2064100.295 9
  20558017.035   -16254341.838 7 -12533230.629 9
  22277627.105    -7513695.370 5  -5722092.715 7
 91  4 18 21 39 30.0440000  0  6 18 11 16 19 02 06
  21707805.005     8212635.124 6   6396024.342 9
  21957848.654    -6726783.865 7  -5177041.995 9
  22990366.107    -3461092.076 5  -2604920.530 6
  20064136.223    -2662993.376 6  -2063222.244 9
  20551570.601   -16288222.751 7 -12559631.283 9
  22269624.245    -7555753.903 5  -5754865.513 7
 91  4 18 21 39 45.1480000  0  6 18 11 16 19 02 06
  21715199.740     8251485.736 6   6426297.377 9
  21959085.881    -6720280.081 7  -5171974.139 9
  22990100.797    -3462476.230 5  -2605999.211 6
  20064366.451    -2661788.986 6  -2062283.777 9
  20545025.018   -16322615.800 7 -12586431.000 9
  22261483.541    -7598537.211 5  -5788203.078 7
 91  4 18 21 40  0.2520000  0  6 18 11 16 19 02 06
  21722604.701     8290395.788 6   6456616.733 9
  21960350.343    -6713630.093 7  -5166792.345 9
  22989861.823    -3463743.467 5  -2606986.795 6
  20064609.857    -2660526.372 6  -2061299.942 9
  20538494.503   -16356936.680 7 -12613174.488 9
  22253341.561    -7641320.538 5  -5821540.661 7
 91  4 18 21 40 15.1000000  0  6 18 11 16 19 02 06
  21729893.342     8328704.297 6   6486467.355 9
  21961621.699    -6706950.697 6  -5161587.642 9
  22989645.322    -3464875.697 5  -2607869.143 5
  20064853.835    -2659228.546 6  -2060288.673 9
  20532087.234   -16390605.653 7 -12639409.991 9
  22245338.118    -7683378.848 5  -5854313.301 7
 91  4 18 21 40 30.2040000  0  6 18 11 16 19 02 06
  21737326.895     8367727.562 6   6516874.926 9
  21962940.198    -6700015.511 6  -5156183.629 9
  22989447.035    -3465915.800 5  -2608679.703 5
  20065117.835    -2657854.473 6  -2059217.986 9
  20525582.298   -16424787.580 7 -12666045.204 9
  22237195.964    -7726166.362 5  -5887654.143 7
 91  4 18 21 40 45.0520000  0  6 18 11 16 19 02 06
  21744631.216     8406142.581 6   6546808.536 9
  21964264.480    -6693059.872 6  -5150763.674 9
  22989272.232    -3466829.160 5  -2609391.518 6
  20065382.825    -2656450.900 6  -2058124.314 9
  20519200.189   -16458323.966 7 -12692177.403 9
  22229191.868    -7768232.707 5  -5920433.031 7
 91  4 18 21 41  0.1560000  0  6 18 11 16 19 02 06
  21752074.504     8445278.841 6   6577304.160 9
  21965639.224    -6685839.179 6  -5145137.185 9
  22989115.572    -3467642.482 5  -2610025.370 6
  20065665.212    -2654964.208 6  -2056965.874 9
  20512722.282   -16492366.412 7 -12718703.932 9
  22221049.101    -7811023.527 5  -5953776.442 7
 91  4 18 21 41 15.0040000  0  6 18 11 16 19 02 06
  21759410.451     8483809.396 6   6607327.797 9
  21967016.225    -6678598.199 6  -5139494.884 9
  22988988.229    -3468328.327 5  -2610559.874 6
  20065953.493    -2653444.644 6  -2055781.814 9
  20506369.051   -16525760.697 7 -12744725.400 9
  22213043.228    -7853088.047 5  -5986553.903 7
 91  4 18 21 41 30.1080000  0  6 18 11 16 19 02 06
  21766879.461     8523055.556 6   6637909.058 9
  21968444.752    -6671094.683 7  -5133648.012 9
  22988878.425    -3468917.548 5  -2611019.134 6
  20066260.397    -2651846.948 6  -2054536.877 9
  20499917.418   -16559665.460 7 -12771144.646 9
  22204900.522    -7895883.886 5  -6019901.225 7
 91  4 18 21 41 45.2120000  0  6 18 11 16 19 02 06
  21774360.208     8562357.707 6   6668533.937 9
  21969899.817    -6663447.573 6  -5127689.252 9
  22988782.616    -3469392.998 5  -2611389.730 6
  20066574.512    -2650191.936 6  -2053247.274 9
  20493478.145   -16593499.668 7 -12797508.911 9
  22196756.713    -7938681.131 5  -6053249.644 7
 91  4 18 21 42  0.0600000  0  6 18 11 16 19 02 06
  21781720.528     8601055.020 6   6698687.523 9
  21971356.875    -6655783.336 6  -5121717.137 9
  22988720.650    -3469742.544 5  -2611662.238 6
  20066893.980    -2648502.089 6  -2051930.530 9
  20487162.220   -16626684.847 7 -12823367.449 9
  22188751.105    -7980747.312 5  -6086028.401 7
 91  4 18 21 42 15.1640000  0  6 18 11 16 19 02 06
  21789224.820     8640483.298 6   6729410.688 9
  21972868.471    -6647836.204 6  -5115524.591 9
  22988673.118    -3469976.691 5  -2611844.790 6
  20067235.686    -2646717.335 6  -2050539.828 9
  20480753.143   -16660363.354 7 -12849610.388 9
  22180608.101    -8023531.371 5  -6119366.546 7
 91  4 18 21 42 30.0120000  0  6 18 11 16 19 02 06
  21796608.983     8679299.146 6   6759656.641 8
  21974383.295    -6639882.329 6  -5109326.790 9
  22988653.361    -3470094.632 5
  20067580.886    -2644904.733 6  -2049127.428 9
  20474468.834   -16693400.326 7 -12875353.435 9
  22172602.881    -8065589.663 5  -6152139.154 7
 91  4 18 21 42 45.1160000  0  6 18 11 16 19 02 06
  21804134.135     8718839.524 6   6790467.160 9
  21975949.052    -6631648.725 6  -5102911.016 9
  22988650.173    -3470101.646 5
  20067942.573    -2643002.829 6  -2047645.449 9
  20468085.019   -16726936.165 7 -12901485.206 9
  22164463.485    -8108373.596 5  -6185477.177 7
 91  4 18 21 43  0.2200000  0  6 18 11 16 19 02 06
  21811667.939     8758428.310 6   6821315.397 9
  21977543.278    -6623278.730 6  -5096388.968 9
  22988671.450    -3470002.191 5
  20068312.167    -2641049.786 6  -2046123.602 9
  20461715.669   -16760408.035 7 -12927567.134 9
  22156319.533    -8151165.195 5  -6218821.207 7
 91  4 18 21 43 15.0680000  0  6 18 11 16 19 02 06
  21819087.149     8797410.016 6   6851690.589 9
  21979137.934    -6614900.625 6  -5089860.597 9
  22988714.036    -3469783.768 5
  20068690.229    -2639062.685 6  -2044575.230 9
  20455467.798   -16793232.991 7 -12953144.978 9
  22148319.237    -8193221.774 6  -6251592.473 7
 91  4 18 21 43 30.1720000  0  6 18 11 16 19 02 06
  21826643.906     8837125.789 6   6882637.779 9
  21980788.609    -6606228.370 6  -5083103.019 9
  22988778.533    -3469441.535 5
  20069089.222    -2636975.640 6  -2042948.972 9
  20449129.186   -16826545.700 7 -12979102.885 9
  22140177.583    -8235996.212 5  -6284923.107 7
 91  4 18 21 43 45.0200000  0  6 18 11 16 19 02 06
  21834087.562     8876224.379 6   6913104.051 9
  21982437.946    -6597560.896 7  -5076349.167 9
  22988863.063    -3468992.329 5  -2611078.47415
  20069490.523    -2634863.794 6  -2041303.403 9
  20442912.195   -16859221.664 7 -13004564.626 9
  22132176.542    -8278043.218 6  -6317686.915 7
 91  4 18 21 44  0.1240000  0  6 18 11 16 19 02 06
  21841663.656     8916051.768 6   6944138.211 9
  21984141.924    -6588601.441 6  -5069367.792 9
  22988966.368    -3468422.764 5  -2610634.759 6
  20069911.601    -2632656.447 6  -2039583.408 9
  20436600.336   -16892389.624 7 -13030409.745 9
  22124038.331    -8320814.774 6  -6351015.316 7
 91  4 18 21 44 15.2280000  0  6 18 11 16 19 02 06
  21849253.194     8955937.497 6   6975217.828 9
  21985877.130    -6579494.977 7  -5062271.872 9
  22989100.951    -3467736.128 5  -2610099.811 6
  20070344.130    -2630385.913 6  -2037814.178 9
  20430303.595   -16925482.150 7 -13056196.088 9
  22115897.954    -8363582.426 6  -6384340.653 7
 91  4 18 21 44 30.0760000  0  6 18 11 16 19 02 06
  21856725.941     8995201.772 6   7005813.178 8
  21987605.828    -6570401.862 6  -5055186.347 9
  22989249.765    -3466949.723 5  -2609487.122 6
  20070779.448    -2628094.440 6  -2036028.636 9
  20424125.647   -16957942.410 7 -13081489.745 9
  22107899.497    -8405623.480 6  -6417099.838 7
 91  4 18 21 44 45.1800000  0  6 18 11 16 19 02 06
  21864338.677     9035204.801 6   7036984.210 8
  21989394.204    -6561002.163 6  -5047861.931 9
  22989426.026    -3466029.806 5  -2608770.392 5
  20071234.379    -2625696.163 6  -2034159.863 9
  20417856.069   -16990883.136 7 -13107157.794 9
  22099762.746    -8448381.047 6  -6450417.309 7
 91  4 18 21 45  0.0280000  0  6 18 11 16 19 02 06
  21871832.172     9074585.482 6   7067670.278 8
  21991181.608    -6551619.284 6  -5040550.612 9
  22989618.918    -3465012.944 5  -2607978.147 6
  20071695.143    -2623276.978 6  -2032274.797 9
  20411709.267   -17023192.566 7 -13132333.924 9
  22091763.043    -8490410.349 6  -6483167.322 7
 91  4 18 21 45 15.1320000  0  6 18 11 16 19 02 06
  21879467.238     9114705.997 6   7098932.836 8
  21993024.390    -6541925.300 6  -5032996.884 9
  22989838.318    -3463859.310 5  -2607079.348 6
  20072176.561    -2620748.767 6  -2030304.778 9
  20405469.752   -17055980.012 7 -13157882.537 9
  22083631.972    -8533155.955 6  -6516475.498 7
 91  4 18 21 45 30.2360000  0  6 18 11 16 19 02 06
  21887113.036     9154885.227 6   7130241.147 8
  21994898.010    -6532083.485 6  -5025327.954 9
  22990082.704    -3462587.959 5  -2606088.780 6
  20072673.078    -2618155.236 6  -2028283.858 9
  20399245.182   -17088690.255 7 -13183370.982 9
  22075495.171    -8575895.629 6  -6549779.033 7
 91  4 18 21 45 45.0840000  0  6 18 11 16 19 02 06
  21894643.081     9194435.316 6   7161059.226 8
  21996765.216    -6522269.655 6  -5017680.840 9
  22990340.411    -3461228.990 5  -2605029.937 6
  20073165.550    -2615547.138 6  -2026251.589 9
  20393139.486   -17120776.068 7 -13208372.868 9
  22067500.360    -8617910.381 6  -6582517.706 7
 91  4 18 21 46  0.1880000  0  6 18 11 16 19 02 06
  21902307.506     9234725.236 6   7192453.792 8
  21998692.589    -6512139.729 6  -5009787.414 9
  22990624.146    -3459730.105 5  -2603862.079 6
  20073685.459    -2612828.593 6  -2024133.262 9
  20386942.517   -17153338.153 7 -13233745.867 9
  22059369.749    -8660643.112 6  -6615815.846 7
 91  4 18 21 46 15.0360000  0  6 18 11 16 19 02 06
  21909854.161     9274392.875 6   7223363.461 9
  22000615.079    -6502033.561 6  -5001912.494 9
  22990928.127    -3458138.560 5  -2602622.017 6
  20074206.176    -2610088.042 6  -2021997.786 9
  20380866.312   -17185268.995 7 -13258626.992 9
  22051377.584    -8702641.408 6  -6648541.674 7
 91  4 18 21 46 30.1400000  0  6 18 11 16 19 02 06
  21917543.246     9314793.375 6   7254844.180 8
  22002598.849    -6491615.365 6  -4993794.441 9
  22991259.567    -3456412.113 5  -2601276.845 6
  20074747.895    -2607243.327 6  -2019781.143 9
  20374698.507   -17217682.087 7 -13283883.896 9
  22043247.362    -8745366.107 6  -6681833.566 7
 91  4 18 21 46 45.2440000  0  6 18 11 16 19 02 06
  21925240.921     9355250.948 6   7286369.378 8
  22004609.189    -6481050.298 6  -4985561.936 9
  22991606.166    -3454569.344 5  -2599841.034 6
  20075300.370    -2604332.866 6  -2017513.270 9
  20368545.044   -17250018.449 7 -13309081.008 9
  22035120.234    -8788084.850 6  -6715120.803 7
 91  4 18 21 47  0.0920000  0  6 18 11 16 19 02 06
  21932820.703     9395078.821 6   7317403.899 8
  22006613.727    -6470520.594 6  -4977356.992 9
  22991974.227    -3452643.852 5  -2598340.746 6
  20075858.597    -2601406.844 6  -2015233.270 9
  20362510.445   -17281730.965 7 -13333792.003 9
  22027128.611    -8830073.028 6  -6747838.767 7
 91  4 18 21 47 15.1960000  0  6 18 11 16 19 02 06
  21940543.559     9435653.003 6   7349019.935 8
  22008679.995    -6459660.427 6  -4968894.551 9
  22992369.501    -3450566.713 5  -2596722.298 6
  20076436.252    -2598361.375 6  -2012860.203 9
  20356387.698   -17313910.336 7 -13358866.784 9
  22019003.690    -8872775.514 6  -6781113.325 7
 91  4 18 21 47 30.0440000  0  6 18 11 16 19 02 06
  21948143.608     9475597.514 6   7380145.350 8
  22010739.102    -6448838.624 6  -4960461.996 9
  22992781.355    -3448409.072 5  -2595041.106 5
  20077018.873    -2595300.183 6  -2010474.873 9
  20350381.834   -17345466.359 7 -13383455.839 9
  22011015.917    -8914745.284 6  -6813816.949 7
 91  4 18 21 47 45.1480000  0  6 18 11 16 19 02 06
  21955884.564     9516287.425 6   7411851.569 8
  22012861.441    -6437684.235 6  -4951770.291 9
  22993222.853    -3446098.453 5  -2593240.699 6
  20077624.446    -2592119.694 6  -2007996.593 9
  20344288.212   -17377489.238 7 -13408408.672 9
  22002891.936    -8957431.550 6  -6847078.889 7
 91  4 18 21 48  0.2520000  0  6 18 11 16 19 02 06
  21963637.953     9557036.123 6   7443603.605 8
  22015012.219    -6426380.823 6  -4942962.457 9
  22993684.301    -3443669.512 5  -2591348.118 6
  20078243.014    -2588870.050 6  -2005464.430 9
  20338209.810   -17409432.236 7 -13433299.268 9
  21994770.151    -9000108.635 6  -6880333.676 7
 91  4 18 21 48 15.1000000  0  6 18 11 16 19 02 06
  21971276.717     9597144.503 6   7474856.691 8
  22017153.926    -6415130.550 6  -4934196.032 9
  22994159.253    -3441173.541 5  -2589403.295 6
  20078861.448    -2585614.725 6  -2002927.841 9
  20332247.238   -17440762.837 7 -13457712.671 9
  21986786.771    -9042060.056 6  -6913023.015 7
 91  4 18 21 48 30.2040000  0  6 18 11 16 19 02 06
  21979050.035     9638008.825 6   7506698.824 8
  22019360.111    -6403532.266 6  -4925158.426 9
  22994664.922    -3438511.033 5  -2587328.734 6
  20079510.896    -2582227.735 6  -2000288.655 9
  20326199.114   -17472547.733 7 -13482480.074 9
  21978671.616    -9084718.891 6  -6946263.582 7
 91  4 18 21 48 45.0520000  0  6 18 11 16 19 02 06
  21986703.775     9678233.073 6   7538042.190 8
  22021556.560    -6391989.805 6  -4916164.326 9
  22995185.608    -3435783.359 5  -2585203.384 6
  20080153.101    -2578834.557 6  -1997644.653 9
  20320266.962   -17503720.029 7 -13506770.118 9
  21970690.535    -9126649.609 6  -6978936.783 7
 91  4 18 21 49  0.1560000  0  6 18 11 16 19 02 06
  21994502.212     9719208.532 6   7569970.917 8
  22023819.776    -6380100.699 6  -4906900.114 9
  22995731.944    -3432891.455 5  -2582950.074 6
  20080825.911    -2575313.351 6  -1994900.884 9
  20314248.309   -17535350.057 7 -13531416.840 9
  21962577.770    -9169293.338 6  -7012165.582 8
 91  4 18 21 49 15.0040000  0  6 18 11 16 19 02 06
  22002180.212     9759536.490 6   7601395.108 8
  22026069.242    -6368277.702 6  -4897687.413 9
  22996296.176    -3429943.466 5  -2580653.050 6
  20081491.601    -2571792.847 6  -1992157.668 9
  20308343.800   -17566375.149 7 -13555592.182 9
  21954598.476    -9211214.028 6  -7044830.985 7
 91  4 18 21 49 30.1080000  0  6 18 11 16 19 02 06
  22009993.461     9800620.054 6   7633408.065 8
  22028387.232    -6356100.541 6  -4888198.736 9
  22996891.208    -3426825.336 5  -2578223.442 6
  20082190.081    -2568139.040 6  -1989310.570 9
  20302353.791   -17597852.390 7 -13580119.857 9
  21946487.478    -9253844.388 6  -7078049.364 7
 91  4 18 21 49 45.2120000  0  6 18 11 16 19 02 06
  22017823.269     9841756.294 6   7665462.075 8
  22030730.401    -6343779.764 6  -4878598.157 9
  22997502.195    -3423594.529 5  -2575706.054 6
  20082896.754    -2564419.497 6  -1986412.257 9
  20296378.164   -17629253.977 7 -13604588.569 9
  21938375.459    -9296469.333 6  -7111263.539 7
 91  4 18 21 50  0.0600000  0  6 18 11 16 19 02 06
  22025527.226     9882246.440 6   7697012.643 8
  22033062.917    -6331527.824 6  -4869051.208 9
  22998130.477    -3420308.960 5  -2573145.979 5
  20083603.580    -2560698.675 6  -1983512.938 9
  20290517.999   -17660049.531 7 -13628585.053 9
  21930402.335    -9338366.308 6  -7143910.462 7
 91  4 18 21 50 15.1640000  0  6 18 11 16 19 02 06
  22033374.624     9923479.295 6   7729141.919 8
  22035460.983    -6318929.836 6  -4859234.630 9
  22998784.072    -3416863.077 5  -2570460.987 6
  20084336.731    -2556855.582 6  -1980518.354 9
  20284569.698   -17691308.226 7 -13652942.431 9
  21922291.460    -9380987.280 6  -7177121.549 7
 91  4 18 21 50 30.0120000  0  6 18 11 16 19 02 06
  22041098.777     9964057.760 6   7760761.306 8
  22037842.827    -6306412.043 6  -4849480.528 9
  22999450.804    -3413372.543 5  -2567741.157 6
  20085064.682    -2553019.489 6  -1977529.215 9
  20278734.928   -17721969.658 7 -13676834.408 9
  21914319.358    -9422886.650 6  -7209770.341 7
 91  4 18 21 50 45.1160000  0  6 18 11 16 19 02 06
  22048962.713    10005387.150 6   7792965.802 7
  22040292.479    -6293536.726 6  -4839447.846 9
  23000144.800    -3409711.197 5  -2564888.280 6
  20085820.092    -2549051.684 6  -1974437.449 9
  20272814.698   -17753084.820 7 -13701079.937 9
  21906209.157    -9465502.638 6  -7242977.536 7
 91  4 18 21 51  0.2200000  0  6 18 11 16 19 02 06
  22056836.691    10046763.680 6   7825207.054 7
  22042768.844    -6280523.018 6  -4829307.315 9
  23000863.363    -3405942.492 5  -2561951.737 6
  20086585.921    -2545021.964 6  -1971297.436 9
  20266906.185   -17784128.641 7 -13725269.877 9
  21898100.407    -9508117.221 6  -7276183.655 8
 91  4 18 21 51 15.0680000  0  6 18 11 16 19 02 06
  22064582.570    10087482.122 6   7856935.494 7
  22045229.059    -6267597.437 6  -4819235.457 9
  23001588.689    -3402135.777 5  -2558985.572 6
  20087351.516    -2541002.384 6  -1968165.318 9
  20261112.481   -17814578.989 7 -13748997.370 9
  21890126.067    -9550010.240 6  -7308827.494 7
 91  4 18 21 51 30.1720000  0  6 18 11 16 19 02 06
  22072475.415    10128952.461 6   7889249.825 7
  22047756.479    -6254308.522 6  -4808880.488 9
  23002351.576    -3398154.316 5  -2555883.272 6
  20088140.748    -2536848.279 6  -1964928.379 9
  20255231.538   -17845480.178 7 -13773076.170 9
  21882018.804    -9592620.390 6  -7342030.152 8
 91  4 18 21 51 45.0200000  0  6 18 11 16 19 02 06
  22080240.581    10169761.194 6   7921048.624 7
  22050267.044    -6241114.311 6  -4798599.312 9
  23003111.408    -3394140.369 5  -2552755.623 6
  20088931.289    -2532707.662 6  -1961701.955 9
  20249463.270   -17875791.895 7 -13796695.637 9
  21874046.181    -9634510.469 6  -7374671.706 7
 91  4 18 21 52  0.1240000  0  6 18 11 16 19 02 06
  22088155.869    10211330.736 6   7953440.265 8
  22052849.738    -6227544.617 6  -4788025.550 9
  23003912.591    -3389940.352 5
  20089746.100    -2528422.338 6
  20243611.287   -17906544.087 7 -13820658.340 9
  21865941.516    -9677109.616 6  -7407865.776 7
 91  4 18 21 52 15.2280000  0  6 18 11 16 19 02 06
  22096070.768    10252946.537 6   7985867.937 8
  22055458.113    -6213836.973 6  -4777344.295 9
  23004728.944    -3385633.991 5
  20090573.905    -2524074.071 6
  20237772.677   -17937224.546 7 -13844565.138 9
  21857833.562    -9719706.308 6  -7441057.961 7
 91  4 18 21 52 30.0760000  0  6 18 11 16 19 02 06
  22103865.395    10293901.111 6   8017780.372 7
  22058049.021    -6200228.070 6  -4766739.987 9
  23005554.205    -3381297.848 5
  20091401.434    -2519738.855 6  -1951596.46919
  20232046.883   -17967315.684 7 -13868012.731 9
  21849868.008    -9761579.449 6  -7473686.312 8
 91  4 18 21 52 45.1800000  0  6 18 11 16 19 02 06
  22111799.999    10335598.085 6   8050271.299 7
  22060707.266    -6186257.144 6  -4755853.578 9
  23006411.510    -3376790.697 5
  20092246.768    -2515275.293 6  -1948118.395 9
  20226235.026   -17997863.307 7 -13891816.018 9
  21841758.553    -9804180.919 6  -7506882.227 8
 91  4 18 21 53  0.0280000  0  6 18 11 16 19 02 06
  22119608.712    10376627.959 6   8082242.418 7
  22063344.969    -6172393.596 6  -4745050.850 9
  23007276.150    -3372261.347 5
  20093095.658    -2510830.289 6  -1944654.773 9
  20220532.645   -18027827.708 7 -13915164.862 9
  21833790.128    -9846062.409 6  -7539517.097 8
 91  4 18 21 53 15.1320000  0  6 18 11 16 19 02 06
  22127560.468    10418417.753 6   8114805.657 7
  22066055.383    -6158147.302 6  -4733949.869 9
  23008169.954    -3367541.433 5
  20093966.519    -2506238.147 6  -1941076.508 9
  20214746.500   -18058230.003 7 -13938854.910 9
  21825686.036    -9888655.704 6  -7572706.630 8
 91  4 18 21 53 30.2360000  0  6 18 11 16 19 02 06
  22135524.175    10460250.180 6   8147402.139 7
  22068793.286    -6143766.347 6  -4722743.965 9
  23009090.440    -3362718.725 5  -2528271.03716
  20094853.961    -2501584.906 6  -1937450.630 9
  20208974.411   -18088562.830 7 -13962490.827 9
  21817579.982    -9931248.737 6  -7605895.934 8
 91  4 18 21 53 45.0840000  0  6 18 11 16 19 02 06
  22143354.462    10501417.362 6   8179480.240 7
  22071508.654    -6129495.443 6  -4711623.800 9
  23010012.040    -3357875.078 5  -2524496.903 7
  20095736.141    -2496948.154 6  -1933837.600 9
  20203313.851   -18118311.258 7 -13985671.369 9
  21809612.927    -9973116.672 6  -7638520.249 8
 91  4 18 21 54  0.1880000  0  6 18 11 16 19 02 06
  22151330.213    10543331.081 6   8212140.058 8
  22074295.763    -6114850.346 6  -4700212.077 9
  23010965.562    -3352851.192 5  -2520582.332 6
  20096646.954    -2492175.534 6  -1930118.689 9
  20197567.055   -18148508.742 7 -14009201.830 9
  21801506.086   -10015710.933 6  -7671710.519 8
 91  4 18 21 54 15.0360000  0  6 18 11 16 19 02 06
  22159179.398    10584586.217 6   8244286.703 8
  22077062.125    -6100311.622 6  -4688883.229 9
  23011929.442    -3347801.392 5  -2516647.553 6
  20097551.087    -2487412.832 6  -1926407.515 9
  20191933.024   -18178115.568 7 -14032272.034 9
  21793540.593   -10057571.532 6  -7704329.113 8
 91  4 18 21 54 30.1400000  0  6 18 11 16 19 02 06
  22167179.593    10626600.855 6   8277025.148 7
  22079903.416    -6085382.515 6  -4677250.182 9
  23012926.930    -3342556.285 5  -2512560.566 6
  20098484.240    -2482499.991 6  -1922579.347 9
  20186216.250   -18208156.970 7 -14055680.866 9
  21785440.219   -10100146.084 6  -7737504.032 9
 91  4 18 21 54 45.2440000  0  6 18 11 16 19 02 06
  22175183.732    10668670.092 6   8309806.145 7
  22082772.297    -6070306.587 6  -4665502.737 9
  23013944.327    -3337196.184 5  -2508383.994 6
  20099433.626    -2477512.384 6  -1918692.925 9
  20180515.238   -18238115.924 7 -14079025.455 9
  21777340.560   -10142706.684 6  -7770668.086 8
 91  4 18 21 55  0.0920000  0  6 18 11 16 19 02 06
  22183061.111    10710070.344 6   8342065.861 7
  22085617.918    -6055351.794 6  -4653849.676 9
  23014970.856    -3331823.836 5  -2504197.866 7
  20100379.222    -2472544.888 6  -1914822.170 9
  20174924.121   -18267495.251 7 -14101918.394 9
  21769378.704   -10184540.858 6  -7803266.099 8
 91  4 18 21 55 15.1960000  0  6 18 11 16 19 02 06
  22191081.154    10752223.591 6   8374912.319 8
  22088538.407    -6040008.245 6  -4641893.692 9
  23016027.633    -3326259.328 5  -2499862.026 6
  20101352.572    -2467431.617 6  -1910837.827 9
  20169249.474   -18297313.541 7 -14125153.369 9
  21761280.955   -10227096.583 6  -7836426.344 8
 91  4 18 21 55 30.0440000  0  6 18 11 16 19 02 06
  22198975.195    10793713.104 6   8407241.581 7
  22091434.859    -6024783.802 6  -4630030.518 9
  23017091.417    -3320679.269 5  -2495514.051 6
  20102322.511    -2462333.378 6  -1906865.197 9
  20163686.868   -18326547.755 7 -14147933.228 9
  21753324.094   -10268918.813 6  -7869015.041 8
 91  4 18 21 55 45.1480000  0  6 18 11 16 19 02 06
  22207014.668    10835957.192 6   8440158.826 7
  22094408.067    -6009165.636 6  -4617860.544 9
  23018187.134    -3314903.615 5  -2491013.677 6
  20103322.656    -2457086.326 6  -1902776.612 9
  20158039.997   -18356217.910 7 -14171052.783 9
  21745225.957   -10311461.586 6  -7902165.208 8
 91  4 18 21 56  0.2520000  0  6 18 11 16 19 02 06
  22215066.848    10878246.990 6   8473111.680 7
  22097405.057    -5993408.827 6  -4605582.538 9
  23019305.702    -3309021.478 5  -2486430.321 6
  20104332.546    -2451771.075 6  -1898634.885 9
  20152408.458   -18385812.730 7 -14194113.632 9
  21737134.603   -10353997.117 6  -7935309.730 8
 91  4 18 21 56 15.1000000  0  6 18 11 16 19 02 06
  22222981.768    10919860.477 6   8505537.538 7
  22100377.662    -5977788.246 6  -4593410.692 9
  23020429.050    -3303139.349 5  -2481846.995 6
  20105338.401    -2446483.483 6  -1894514.712 9
  20146886.222   -18414836.577 7 -14216729.572 9
  21729176.098   -10395808.713 6  -7967890.140 8
 91  4 18 21 56 30.2040000  0  6 18 11 16 19 02 06
  22231048.904    10962242.064 6   8538561.917 7
  22103429.037    -5961755.706 6  -4580917.831 9
  23021586.436    -3297045.075 5  -2477098.314 6
  20106376.566    -2441031.612 6  -1890266.521 9
  20141282.776   -18444280.593 7 -14239672.908 9
  21721084.151   -10438328.279 6  -8001022.209 8
 91  4 18 21 56 45.0520000  0  6 18 11 16 19 02 06
  22238987.084    11003948.523 6   8571060.224 7
  22106453.444    -5945861.076 6  -4568532.435 9
  23022749.920    -3290951.489 5  -2472350.207 6
  20107408.776    -2435606.129 6  -1886038.897 9
  20135789.040   -18473153.071 7 -14262170.897 9
  21713130.743   -10480120.736 6  -8033587.711 8
 91  4 18 21 57  0.1560000  0  6 18 11 16 19 02 06
  22247064.720    11046408.490 6   8604145.676 7
  22109553.106    -5929565.695 6  -4555834.764 9
  23023941.199    -3284657.953 5  -2467446.303 6
  20108471.142    -2430028.906 6  -1881693.035 9
  20130212.214   -18502458.739 7 -14285006.432 9
  21705042.719   -10522636.195 6  -8066716.588 8
 91  4 18 21 57 15.0040000  0  5 18 11 19 02 06
  22255016.312    11088184.167 6   8636697.913 7
  22112627.117    -5913420.365 6  -4543254.024 9
  20109524.231    -2424487.405 6  -1877375.006 9
  20124742.801   -18531202.236 7 -14307403.915 9
  21697087.932   -10564431.544 6  -8099284.328 8
 91  4 18 21 57 30.1080000  0  5 18 11 19 02 06
  22263110.171    11130719.723 6   8669842.254 7
  22115777.303    -5896864.774 6  -4530353.588 9
  20110609.744    -2418786.455 6  -1872932.730 9
  20119191.462   -18560371.096 7 -14330132.849 9
  21688997.323   -10606944.283 6  -8132411.084 8
 91  4 18 21 57 45.2120000  0  5 18 11 19 02 06
  22271212.109    11173289.690 6   8703013.413 6
  22118953.210    -5880181.561 6  -4517353.720 9
  20111705.727    -2413026.144 6  -1868444.210 9
  20113652.862   -18589474.274 7 -14352810.601 9
  21680907.338   -10649458.733 6  -8165539.163 8
 91  4 18 21 58  0.0600000  0  5 18 11 19 02 06
  22279182.936    11215177.836 6   8735653.277 7
  22122096.930    -5863650.469 6  -4504472.377 9
  20112798.054    -2407299.153 6  -1863981.647 9
  20108222.327   -18618013.639 7 -14375049.021 9
  21672956.034   -10691247.810 6  -8198102.029 8
 91  4 18 21 58 15.1640000  0  5 18 11 19 02 06
  22287299.033    11257826.537 6   8768885.783 7
  22125323.667    -5846703.537 6  -4491267.008 9
  20113916.398    -2401409.653 6  -1859392.456 9
  20102710.981   -18646975.139 7 -14397616.382 9
  21664865.732   -10733754.178 6  -8231223.803 8
 91  4 18 21 58 30.0120000  0  5 18 11 19 02 06
  22295283.415    11299797.467 6   8801590.145 7
  22128518.626    -5829907.980 6  -4478179.592 9
  20115031.136    -2395549.798 6  -1854826.366 9
  20097308.303   -18675369.575 7 -14419741.863 9
  21656917.105   -10775529.445 6  -8263775.908 8
 91  4 18 21 58 45.1160000  0  5 18 11 19 02 06
  22303417.838    11342534.257 6   8834891.287 7
  22131796.164    -5812688.181 6  -4464761.595 9
  20116178.869    -2389520.650 6  -1850128.358 9
  20091825.713   -18704179.509 7 -14442191.120 9
  21648831.982   -10818017.245 6  -8296883.219 8
 91  4 18 21 59  0.2200000  0  5 18 11 19 02 06
  22311555.028    11385308.077 5   8868221.280 7
  22135096.389    -5795338.001 6  -4451242.012 9
  20117336.981    -2383427.625 6  -1845380.580 9
  20086357.056   -18732920.010 7 -14464586.277 9
  21640748.657   -10860502.401 6  -8329988.471 8
 91  4 18 21 59 15.0680000  0  5 18 11 19 02 06
  22319569.740    11427395.668 6   8901016.544 7
  22138368.298    -5778152.202 6  -4437850.510 8
  20118491.007    -2377372.907 6  -1840662.656 9
  20080992.964   -18761102.966 7 -14486546.969 9
  21632799.141   -10902262.035 6  -8362528.382 8
 91  4 18 21 59 30.1720000  0  5 18 11 19 02 06
  22327722.192    11470247.878 5   8934407.604 7
  22141719.885    -5760538.546 6  -4424125.613 8
  20119675.596    -2371147.763 6  -1835811.926 9
  20075551.366   -18789700.319 7 -14508830.577 9
  21624719.105   -10944736.197 6  -8395625.076 8
 91  4 18 21 59 45.0200000  0  5 18 11 19 02 06
  22335745.330    11512409.879 5   8967260.848 7
  22145039.224    -5743096.306 6  -4410534.293 9
  20120850.930    -2364965.040 6  -1830994.248 9
  20070216.108   -18817744.554 7 -14530683.184 9
  21616774.002   -10986486.947 6  -8428158.054 8
 91  4 18 22  0  0.1240000  0  5 18 11 19 02 06
  22343912.717    11555336.371 5   9000709.794 7
  22148439.884    -5725222.858 6  -4396606.963 9
  20122061.201    -2358610.201 6  -1826042.463 9
  20064798.546   -18846201.409 7 -14552857.316 9
  21608692.945   -11028952.556 6  -8461248.077 8
 91  4 18 22  0 15.2280000  0  5 18 11 19 02 06
  22352087.121    11598304.391 5   9034191.096 7
  22151865.684    -5707214.155 6  -4382574.250 9
  20123282.912    -2352185.117 6  -1821035.937 9
  20059398.054   -18874582.856 7 -14574972.687 9
  21600611.959   -11071409.141 6  -8494331.060 9
 91  4 18 22  0 30.0760000  0  5 18 11 19 02 06
  22360136.697    11640575.309 5   9067129.197 7
  22155258.398    -5689388.203 6  -4368683.936 9
  20124497.442    -2345809.726 6  -1816068.128 9
  20054101.675   -18902419.086 7 -14596663.212 9
  21592670.002   -11113146.449 6  -8526853.566 8
 91  4 18 22  0 45.1800000  0  4 18 11 19 02
  22368327.037    11683614.372 5   9100665.859 7
  22158734.834    -5671122.698 6  -4354451.111 9
  20125744.292    -2339256.045 6  -1810961.398 9
  20048727.600   -18930661.886 7 -14618670.539 9
 91  4 18 22  1  0.0280000  0  5 18 11 19 02 06
  22376382.506    11725965.214 5   9133666.237 7
  22162176.917    -5653034.063 6  -4340356.110 9
  20126986.056    -2332743.211 6  -1805886.495 9
  20043458.097   -18958350.938 7 -14640246.388 9
  21576653.918   -11197314.745 6  -8592439.116 8
 91  4 18 22  1 15.1320000  0  5 18 11 19 02 06
  22384591.570    11769086.113 5   9167266.659 7
  22165703.530    -5634500.728 6  -4325914.590 9
  20128258.404    -2326048.420 6  -1800669.811 9
  20038112.358   -18986443.086 7 -14662136.332 9
  21568579.122   -11239744.247 6  -8625500.997 8
 91  4 18 22  1 30.2360000  0  5 18 11 19 02 06
  22392803.780    11812252.165 5   9200902.259 7
  22169258.030    -5615828.455 6  -4311364.795 9
  20129548.607    -2319277.946 6  -1795394.152 9
  20032781.870   -19014455.042 7 -14683963.795 9
  21560508.791   -11282159.266 6  -8658551.601 8
 91  4 18 22  1 45.0840000  0  5 18 11 19 02 06
  22400887.086    11854723.714 5   9233996.688 7
  22172773.182    -5597344.214 6  -4296961.524 9
  20130827.370    -2312555.213 6  -1790155.689 9
  20027554.188   -19041920.884 7 -14705365.708 9
  21552575.639   -11323847.950 6  -8691036.229 8
 91  4 18 22  2  0.1880000  0  5 18 11 19 02 06
  22409116.611    11897968.975 5   9267694.007 7
  22176379.269    -5578406.780 6  -4282205.112 9
  20132143.255    -2305644.176 6  -1784770.505 9
  20022252.089   -19069783.596 7 -14727076.872 9
  21544507.964   -11366243.682 6  -8724071.793 8
 91  4 18 22  2 15.0360000  0  5 18 11 19 02 06
  22417212.185    11940521.080 5   9300851.205 7
  22179945.517    -5559658.829 6  -4267596.370 8
  20133448.281    -2298779.590 6  -1779421.506 9
  20017054.736   -19097099.181 7 -14748361.705 9
  21536578.347   -11407909.797 6  -8756538.831 8
 91  4 18 22  2 30.1400000  0  5 18 11 19 02 06
  22425457.124    11983843.245 5   9334608.456 6
  22183601.566    -5540458.215 6  -4252634.889 9
  20134789.151    -2291728.845 6  -1773927.456 9
  20011780.892   -19124813.719 7 -14769957.405 9
  21528514.094   -11450287.084 6  -8789560.010 8
 91  4 18 22  2 45.2440000  0  5 18 11 19 02 06
  22433710.880    12027208.297 5   9368399.119 6
  22187277.922    -5521120.801 6  -4237566.814 9
  20136144.702    -2284603.007 6  -1768374.891 9
  20006521.645   -19152449.195 7 -14791491.505 9
  21520453.069   -11492650.341 6  -8822570.271 8
 91  4 18 22  3  0.0920000  0  5 18 11 19 02 06
  22441832.093    12069878.181 5   9401648.092 7
  22190919.508    -5501979.615 6  -4222651.648 9
  20137489.699    -2277526.293 6  -1762860.605 9
  20001367.144   -19179541.001 7 -14812601.966 9
  21512531.899   -11534283.526 6  -8855011.641 8
 91  4 18 22  3 15.1960000  0  5 18 11 19 02 06
  22450098.628    12113322.836 5   9435500.789 7
  22194652.407    -5482376.254 6  -4207376.340 9
  20138876.099    -2270255.949 6  -1757195.437 9
  19996136.970   -19207024.497 7 -14834017.641 9
  21504474.858   -11576623.493 6  -8888003.762 8
 91  4 18 22  3 30.0440000  0  5 18 11 19 02 06
  22458232.416    12156063.953 5   9468805.269 7
  22198341.269    -5462980.645 6  -4192262.923 9
  20140246.512    -2263043.598 6  -1751575.450 9
  19991008.140   -19233973.304 7 -14855016.670 9
  21496554.424   -11618240.177 6  -8920432.273 8
 91  4 18 22  3 45.1480000  0  5 18 11 19 02 06
  22466511.862    12199583.174 5   9502716.070 7
  22202123.160    -5443116.033 6  -4176784.044 9
  20141658.654    -2255632.049 6  -1745800.261 9
  19985806.814   -19261308.371 7 -14876316.687 9
  21488500.008   -11660560.272 6  -8953408.894 8
 91  4 18 22  4  0.2520000  0  5 18 11 19 02 06
  22474801.278    12243135.600 5   9536652.740 6
  22205927.330    -5423124.078 6  -4161205.942 9
  20143079.918    -2248153.222 6  -1739972.637 9
  19980617.858   -19288572.844 7 -14897561.690 9
  21480449.127   -11702874.209 6  -8986380.721 8
 91  4 18 22  4 15.1000000  0  5 18 11 19 02 06
  22482959.573    12285990.994 5   9570046.264 7
  22209693.898    -5403338.126 6  -4145788.360 9
  20144495.512    -2240726.628 6  -1734185.716 9
  19975531.860   -19315297.280 7 -14918385.887 9
  21472535.026   -11744455.840 6  -9018781.930 8
 91  4 18 22  4 30.2040000  0  5 18 11 19 02 06
  22491259.162    12329617.406 5   9604040.574 6
  22213546.733    -5383085.379 6  -4130007.039 9
  20145944.214    -2233105.169 6  -1728246.963 9
  19970372.978   -19342412.413 7 -14939514.521 9
  21464486.699   -11786748.173 6  -9051736.912 8
 91  4 18 22  4 45.0520000  0  5 18 11 19 02 06
  22499427.304    12372547.795 5   9637492.554 7
  22217360.975    -5363040.899 6  -4114387.999 9
  20147386.021    -2225535.294 6  -1722348.398 9
  19965315.460   -19368987.327 7 -14960222.206 9
  21456580.617   -11828305.629 6  -9084119.270 8
 91  4 18 22  5  0.1560000  0  5 18 11 19 02 06
  22507747.958    12416259.701 5   9671553.478 6
  22221267.490    -5342516.219 6  -4098394.785 9
  20148867.953    -2217758.596 6  -1716288.669 9
  19960187.111   -19395941.018 7 -14981225.048 9
  21448538.490   -11870563.612 6  -9117047.497 8
 91  4 18 22  5 15.0040000  0  5 18 11 19 02 06
  22515931.699    12459266.576 5   9705065.043 7
  22225129.549    -5322211.742 6  -4082573.155 9
  20150333.234    -2210042.867 6  -1710276.448 9
  19955158.554   -19422364.209 7 -15001814.499 9
  21440635.749   -11912094.186 6  -9149408.906 9
 91  4 18 22  5 30.1080000  0  5 18 11 19 02 06
  22524259.698    12503044.131 5   9739177.129 6
  22229084.106    -5301434.358 6  -4066383.037 8
  20151841.378    -2202128.670 6  -1704109.583 9
  19950056.805   -19449174.890 7 -15022705.904 9
  21432595.696   -11954335.985 6  -9182324.517 8
 91  4 18 22  5 45.2120000  0  5 18 11 19 02 06
  22532599.986    12546858.500 5   9773317.896 6
  22233062.087    -5280525.728 6  -4050090.636 8
  20153359.369    -2194140.779 6  -1697885.288 9
  19944969.909   -19475909.161 7 -15043537.760 9
  21424561.363   -11996565.235 6  -9215230.356 9
 91  4 18 22  6  0.0600000  0  5 18 11 19 02 06
  22540802.349    12589966.618 5   9806908.332 6
  22236998.379    -5259843.363 6  -4033974.548 9
  20154867.278    -2186216.013 6  -1691710.180 9
  19939981.323   -19502115.591 7 -15063958.312 9
  21416664.567   -12038065.890 6  -9247568.449 8
 91  4 18 22  6 15.1640000  0  5 18 11 19 02 06
  22549153.567    12633850.756 5   9841103.490 6
  22241027.445    -5238678.334 6  -4017482.355 9
  20156415.128    -2178085.098 6  -1685374.436 9
  19934924.276   -19528702.017 7 -15084674.969 9
  21408631.062   -12080272.801 6  -9280456.887 8
 91  4 18 22  6 30.0120000  0  5 18 11 19 02 06
  22557369.312    12677026.360 5   9874746.515 6
  22245011.616    -5217744.825 6  -4001170.578 8
  20157951.526    -2170019.899 6  -1679089.901 9
  19929963.077   -19554763.605 7 -15104982.662 9
  21400737.678   -12121751.790 6  -9312778.093 8
 91  4 18 22  6 45.1160000  0  5 18 11 19 02 06
  22565734.483    12720980.801 5   9908996.422 7
  22249087.611    -5196322.497 6  -3984477.893 9
  20159526.957    -2161743.376 6  -1672640.702 9
  19924933.254   -19581200.235 7 -15125582.588 9
  21392711.190   -12163934.220 6  -9345647.447 8
 91  4 18 22  7  0.2190000  0  5 18 11 19 02 06
  22574104.272    12764963.670 5   9943268.503 7
  22253186.834    -5174777.316 6  -3967689.486 8
  20161110.928    -2153399.957 6  -1666139.370 9
  19919913.962   -19607567.765 7 -15146128.671 9
  21384684.396   -12206110.582 6  -9378512.067 8
 91  4 18 22  7 15.0660000  0  5 18 11 19 02 06
  22282544.516    12808231.824 5   9976983.641 6
  21957449.654    -5153473.240 6  -3951088.947 9
  19862894.075    -2145127.130 6  -1659693.045 9
  19615204.690   -19633413.447 7 -15166268.118 9
  21077005.327   -12247557.354 6  -9410808.172 9
 91  4 18 22  7 30.1700000  0  5 18 11 19 02 06
  22290929.229    12852288.867 5  10011313.502 7
  21961598.585    -5131666.729 6  -3934096.907 8
  19864510.325    -2136632.339 6  -1653073.761 9
  19610217.126   -19659625.831 7 -15186693.318 9
  21068986.102   -12289703.024 6  -9443648.879 8
 91  4 18 22  7 45.0180000  0  5 18 11 19 02 06
  22299180.543    12895625.099 5  10045081.691 6
  21965699.423    -5110111.949 6  -3917301.011 8
  19866112.990    -2128217.255 6  -1646516.583 9
  19605325.718   -19685327.915 7 -15206720.873 9
  21061102.648   -12331129.295 6  -9475929.018 8
 91  4 18 22  8  0.1220000  0  5 18 11 19 02 06
  22307570.313    12939738.465 5  10079455.440 6
  21969895.680    -5088062.017 6  -3900119.293 9
  19867753.123    -2119587.624 6  -1639792.227 9
  19600364.428   -19711402.077 7 -15227038.359 9
  21053084.302   -12373260.729 6  -9508758.623 8
 91  4 18 22  8 15.2260000  0  5 18 11 19 02 06
  22315974.210    12983886.386 5  10113856.126 6
  21974117.362    -5065883.183 6  -3882837.126 9
  19869410.766    -2110883.200 6  -1633009.586 9
  19595415.897   -19737399.839 7 -15247296.316 9
  21045071.400   -12415378.103 6  -9541577.289 8
 91  4 18 22  8 30.0740000  0  5 18 11 19 02 06
  22324237.537    13027313.497 5  10147695.117 7
  21978288.133    -5043960.822 6  -3865754.808 8
  19871051.369    -2102259.189 6  -1626289.604 9
  19590566.391   -19762888.672 7 -15267157.706 9
  21037192.430   -12456773.831 6  -9573833.625 9
 91  4 18 22  8 45.1780000  0  5 18 11 19 02 06
  22332650.597    13071523.077 5  10182143.844 6
  21982556.049    -5021533.099 6  -3848278.698 8
  19872736.051    -2093411.963 6  -1619395.689 9
  19585646.656   -19788741.324 7 -15287302.586 9
  21029183.196   -12498869.097 6  -9606635.057 9
 91  4 18 22  9  0.0260000  0  5 18 11 19 02 06
  22340923.209    13115013.142 5  10216031.903 6
  21986775.474    -4999363.697 6  -3831003.882 8
  19874403.173    -2084644.648 6  -1612564.043 9
  19580824.129   -19814084.758 7 -15307050.675 9
  21021310.007   -12540239.877 6  -9638871.963 9
 91  4 18 22  9 15.1300000  0  5 18 11 19 02 06
  22349348.660    13159283.108 5  10250527.663 6
  21991090.267    -4976688.539 6  -3813334.976 8
  19876116.192    -2075655.049 6  -1605559.190 9
  19575932.179   -19839792.950 8 -15327082.983 9
  21013304.287   -12582312.901 6  -9671656.075 9
 91  4 18 22  9 30.2340000  0  5 18 11 19 02 06
  22357780.495    13203583.569 5  10285047.191 6
  21995428.229    -4953888.369 6  -3795568.657 8
  19877839.466    -2066592.947 6  -1598497.827 9
  19571053.816   -19865427.635 7 -15347058.027 9
  21005299.027   -12624374.121 6  -9704430.982 9
 91  4 18 22  9 45.0820000  0  5 18 11 19 02 06
  22366073.037    13247153.594 5  10318997.551 6
  21999715.431    -4931362.086 6  -3778015.753 8
  19879546.846    -2057622.595 6  -1591507.973 9
  19566269.299   -19890565.254 7 -15366645.744 9
  20997431.682   -12665719.638 6  -9736648.211 8
 91  4 18 22 10  0.1860000  0  5 18 11 19 02 06
  22374511.308    13291504.002 5  10353556.004 6
  22004098.727    -4908324.654 6  -3760064.572 8
  19881296.507    -2048426.000 6  -1584341.820 9
  19561416.658   -19916064.093 7 -15386514.925 9
  20989430.712   -12707766.530 6  -9769411.954 8
 91  4 18 22 10 15.0340000  0  5 18 11 19 02 06
  22382813.442    13335132.276 5  10387551.744 6
  22008432.919    -4885556.239 6  -3742323.001 8
  19883029.179    -2039313.964 6  -1577241.559 9
  19556661.418   -19941058.799 7 -15405991.282 9
  20981566.940   -12749088.280 6  -9801610.669 9
 91  4 18 22 10 30.1380000  0  5 18 11 19 02 06
  22391265.984    13379543.003 5  10422157.184 6
  22012861.928    -4862271.298 6  -3724178.938 8
  19884809.832    -2029971.406 6  -1569961.665 9
  19551836.531   -19966410.534 8 -15425745.843 9
  20973569.647   -12791109.022 6  -9834354.049 9
 91  4 18 22 10 45.2420000  0  5 18 11 19 02 06
  22399724.644    13423990.004 5  10456790.891 7
  22017318.875    -4838855.708 6  -3705933.077 8
  19886600.568    -2020548.830 6  -1562619.420 9
  19547028.173   -19991681.764 8 -15445437.674 9
  20965577.574   -12833110.233 6  -9867082.213 9
 91  4 18 22 11  0.0900000  0  5 18 11 19 02 06
  22408044.675    13467706.684 5  10490855.535 7
  22021720.956    -4815722.059 6  -3687906.902 8
  19888374.683    -2011219.885 6  -1555350.140 9
  19542312.190   -20016458.727 8 -15464744.360 9
  20957723.049   -12874392.484 6  -9899250.141 9
 91  4 18 22 11 15.1940000  0  5 18 11 19 02 06
  22416512.692    13512207.832 5  10525531.452 7
  22026220.848    -4792065.366 6  -3669473.174 8
  19890195.696    -2001655.322 6  -1547897.257 9
  19537530.248   -20041587.935 8 -15484325.532 9
  20949734.143   -12916371.692 6  -9931961.156 9
 91  4 18 22 11 30.0420000  0  5 18 11 19 02 06
  22424841.937    13555977.588 5  10559637.449 7
  22030670.246    -4768694.811 6  -3651262.405 8
  19891997.617    -1992186.189 6  -1540518.745 9
  19532843.276   -20066224.481 8 -15503522.811 9
  20941881.589   -12957631.656 6  -9964111.736 9
 91  4 18 22 11 45.1460000  0  5 18 11 19 02 06
  22433319.750    13600532.534 5  10594355.267 6
  22035216.371    -4744796.953 6  -3632640.750 8
  19893845.721    -1982478.113 6  -1532954.034 9
  19528088.261   -20091210.132 8 -15522992.113 9
  20933898.935   -12999587.072 6  -9996804.214 9
 91  4 18 22 12  0.2500000  0  5 18 11 19 02 06
  22441805.971    13645117.367 5  10629096.388 6
  22039789.382    -4720774.589 6  -3613922.077 8
  19895708.432    -1972694.294 6  -1525330.309 9
  19523348.231   -20116120.560 8 -15542402.802 9
  20925917.976   -13041527.144 6 -10029484.741 9
 91  4 18 22 12 15.0980000  0  5 18 11 19 02 06
  22450150.722    13688974.076 5  10663270.159 6
  22044304.443    -4697039.782 6  -3595427.475 8
  19897552.327    -1963003.850 6  -1517779.350 9
  19518702.263   -20140537.034 8 -15561428.599 9
  20918074.667   -13082742.806 6 -10061600.793 9
 91  4 18 22 12 30.2020000  0  5 18 11 19 02 06
  22458640.988    13733611.626 5  10698052.349 6
  22048923.126    -4672777.732 6  -3576522.040 8
  19899439.810    -1953075.760 6  -1510043.214 9
  19513988.518   -20165304.492 8 -15580727.890 9
  20910097.652   -13124658.215 6 -10094262.094 9
 91  4 18 22 12 45.0500000  0  5 18 11 19 02 06
  22467001.266    13777520.634 5  10732266.864 6
  22053484.451    -4648806.822 6  -3557843.468 8
  19901313.788    -1943242.394 6  -1502380.881 9
  19509369.068   -20189579.167 8 -15599643.189 9
  20902260.563   -13165848.310 6 -10126358.227 9
 91  4 18 22 13  0.1540000  0  5 18 11 19 02 06
  22475506.017    13822211.626 5  10767090.697 6
  22058145.456    -4624303.967 6  -3538750.394 8
  19903228.546    -1933167.737 6  -1494530.537 9
  19504683.527   -20214201.221 8 -15618829.176 9
  20894289.514   -13207736.397 6 -10158998.239 9
 91  4 18 22 13 15.0020000  0  5 18 11 19 02 06
  22483873.967    13866173.710 5  10801346.570 6
  22062752.657    -4600096.029 6  -3519887.127 8
  19905129.115    -1923189.249 6  -1486755.129 9
  19500091.760   -20238332.053 8 -15637632.397 9
  20886457.186   -13248898.484 6 -10191072.548 9
 91  4 18 22 13 30.1060000  0  5 18 11 19 02 06
  22492390.579    13910923.917 5  10836216.551 6
  22067462.878    -4575347.111 6  -3500602.314 8
  19907075.804    -1912961.378 6  -1478785.402 9
  19495434.852   -20262802.552 8 -15656700.290 9
  20878491.346   -13290752.406 6 -10223685.947 9
 91  4 18 22 13 45.2100000  0  5 18 11 19 02 06
  22500912.052    13955704.842 5  10871110.473 6
  22072195.827    -4550473.108 6  -3481220.038 8
  19909036.550    -1902654.583 6  -1470754.176 9
  19490793.787   -20287195.359 8 -15675707.644 9
  20870530.021   -13332587.426 6 -10256284.612 9
 91  4 18 22 14  0.0580000  0  4 18 11 19 06
  22509289.799    13999751.156 5  10905431.969 6
  22076871.255    -4525904.209 6  -3462075.499 8
  19910978.838    -1892450.760 6  -1462803.182 9
  20862706.529   -13373699.984 6 -10288320.326 9
 91  4 18 22 14 15.1620000  0  5 18 11 19 02 06
  22517821.375    14044577.219 5  10940361.058 6
  22081648.518    -4500797.705 6  -3442512.055 8
  19912965.755    -1882002.197 6  -1454661.490 9
  19481628.324   -20335357.681 8 -15713236.672 9
  20854750.465   -13415511.964 6 -10320901.041 9
 91  4 18 22 14 30.0100000  0  5 18 11 19 02 06
  22526209.254    14088665.782 5  10974715.484 6
  22086368.688    -4476002.447 6  -3423191.136 8
  19914935.224    -1871660.474 6  -1446603.044 9
  19477103.651   -20359131.233 8 -15731761.498 9
  20846930.038   -13456603.273 6 -10352920.186 9
 91  4 18 22 14 45.1140000  0  5 18 11 19 02 06
  22534750.187    14133538.812 5  11009681.156 6
  22091189.446    -4450661.873 6  -3403445.302 8
  19916950.407    -1861066.934 6  -1438348.382 9
  19472516.061   -20383242.856 8 -15750549.750 9
  20838979.970   -13498388.978 6 -10385480.431 9
 91  4 18 22 15  0.2180000  0  5 18 11 19 02 06
  22543295.268    14178441.161 5  11044669.698 6
  22096036.560    -4425197.890 6  -3383603.282 8
  19918980.197    -1850394.252 6  -1430032.048 9
  19467942.702   -20407276.994 8 -15769277.623 9
  20831031.006   -13540155.264 6 -10418025.539 9
 91  4 18 22 15 15.0660000  0  5 18 11 19 02 06
  22551699.849    14222604.294 5  11079082.208 6
  22100821.709    -4400051.964 6  -3364009.123 8
  19920992.754    -1839831.697 6  -1421801.531 9
  19463458.981   -20430834.876 8 -15787634.393 9
  20823220.354   -13581201.228 6 -10450009.355 9
 91  4 18 22 15 30.1700000  0  5 18 11 19 02 06
  22560254.951    14267550.684 5  11114105.046 6
  22105710.602    -4374357.128 6  -3343987.231 8
  19923047.643    -1829014.957 6  -1413372.947 9
  19458912.355   -20454728.720 8 -15806252.951 9
  20815277.233   -13622941.822 6 -10482534.447 9
 91  4 18 22 15 45.0180000  0  5 18 11 19 02 06
  22568666.161    14311766.363 5  11148558.524 6
  22110539.757    -4348974.776 6  -3324208.837 9
  19925087.903    -1818300.832 6  -1405024.319 9
  19454457.277   -20478138.762 8 -15824494.520 9
  20807472.925   -13663952.302 6 -10514490.615 9
 91  4 18 22 16  0.1220000  0  5 18 11 19 02 06
  22577230.988    14356762.650 5  11183620.246 6
  22115474.833    -4323043.172 6  -3304002.445 9
  19927174.408    -1807333.080 6  -1396478.059 9
  19449938.548   -20501885.533 8 -15842998.478 9
  20799537.384   -13705659.870 6 -10546989.964 9
 91  4 18 22 16 15.2260000  0  5 18 11 19 02 06
  22585794.894    14401776.023 5  11218695.306 6
  22120430.728    -4297000.122 6  -3283709.226 8
  19929275.019    -1796296.476 6  -1387878.146 9
  19445433.089   -20525565.740 8 -15861450.560 9
  20791602.148   -13747358.123 6 -10579482.061 9
 91  4 18 22 16 30.0740000  0  5 18 11 19 02 06
  22594221.704    14446051.754 5  11253195.532 5
  22125328.028    -4271281.279 6  -3263668.634 8
  19931352.218    -1785370.998 6  -1379364.829 9
  19441017.207   -20548770.960 8 -15879532.532 9
  20783805.308   -13788331.432 6 -10611409.261 9
 91  4 18 22 16 45.1780000  0  5 18 11 19 02 06
  22602794.743    14491114.173 5  11288308.800 6
  22130327.551    -4245002.299 6  -3243191.576 8
  19933483.720    -1774181.811 6  -1370646.015 9
  19436538.532   -20572303.511 8 -15897869.553 9
  20775876.682   -13829994.703 6 -10643874.102 9
 91  4 18 22 17  0.0260000  0  5 18 11 19 02 06
  22611235.138    14535436.497 5  11322845.385 6
  22135264.262    -4219053.397 6  -3222971.725 8
  19935589.950    -1763107.156 6  -1362016.456 9
  19432149.353   -20595364.721 8 -15915839.298 9
  20768086.257   -13870934.640 6 -10675775.301 9
 91  4 18 22 17 15.1300000  0  5 18 11 19 02 06
  22619812.866    14580542.215 5  11357992.361 6
  22140308.343    -4192544.292 6  -3202315.345 8
  19937749.421    -1751769.658 6  -1353182.078 9
  19427699.219   -20618754.138 8 -15934064.793 9
  20760164.056   -13912567.163 6 -10708216.186 9
 91  4 18 22 17 30.2340000  0  5 18 11 19 02 06
  22628403.976    14625671.942 5  11393158.086 5
  22145375.869    -4165916.933 6  -3181566.816 8
  19939922.499    -1740354.818 6  -1344287.439 9
  19423262.968   -20642068.975 8 -15952232.167 9
  20752244.328   -13954181.450 6 -10740642.849 9
 91  4 18 22 17 45.0820000  0  5 18 11 19 02 06
  22636849.336    14670051.425 5  11427739.188 6
  22150378.150    -4139634.650 6  -3161087.181 8
  19942069.712    -1729066.565 6  -1335491.434 9
  19418913.178   -20664924.715 8 -15970041.805 9
  20744461.329   -13995081.177 6 -10772512.713 9
 91  4 18 22 18  0.1860000  0  5 18 11 19 02 06
  22645444.777    14715218.170 5  11462933.730 5
  22155487.148    -4112784.025 6  -3140164.686 8
  19944270.177    -1717507.982 6  -1326484.787 9
  19414502.996   -20688101.884 8 -15988101.906 9
  20736545.748   -14036668.890 6 -10804918.674 9
 91  4 18 22 18 15.0340000  0  5 18 11 19 02 06
  22653896.715    14759635.904 5  11497544.692 6
  22160530.219    -4086280.295 6  -3119512.495 8
  19946444.756    -1706075.705 6  -1317576.557 9
  19410180.307   -20710819.654 8 -16005804.032 9
  20728769.501   -14077539.655 6 -10836765.978 9
 91  4 18 22 18 30.1380000  0  5 18 11 19 02 06
  22662496.242    14804831.017 5  11532761.327 6
  22165681.406    -4059214.539 6  -3098422.350 8
  19948670.156    -1694380.177 6  -1308463.198 9
  19405794.172   -20733866.093 8 -16023762.269 9
  20720858.915   -14119107.341 6 -10869156.336 9
 91  4 18 22 18 45.2420000  0  5 18 11 19 02 06
  22671101.244    14850043.044 5  11567991.185 6
  22170851.909    -4032038.062 6  -3077245.930 8
  19950908.713    -1682612.854 6  -1299293.889 9
  19401421.653   -20756844.028 8 -16041667.124 9
  20712951.169   -14160661.914 6 -10901536.475 9
 91  4 18 22 19  0.0900000  0  5 18 11 19 02 06
  22679561.906    14894513.186 5  11602642.929 6
  22175958.273    -4005206.371 6  -3056338.182 8
  19953126.410    -1670966.607 6  -1290218.926 9
  19397137.199   -20779357.608 8 -16059210.135 9
  20705182.380   -14201491.238 6 -10933351.487 9
 91  4 18 22 19 15.1940000  0  5 18 11 19 02 06
  22688172.854    14939768.386 5  11637906.429 6
  22181172.620    -3977800.492 6  -3034983.009 8
  19955393.610    -1659045.643 6  -1280929.901 9
  19392792.037   -20802189.184 8 -16077000.940 9
  20697282.550   -14243008.776 6 -10965702.762 9
 91  4 18 22 19 30.0420000  0  5 18 11 19 02 06
  22696643.905    14984263.876 5  11672577.938 6
  22186319.527    -3950760.323 6  -3013912.800 8
  19957633.842    -1647264.777 6  -1271750.039 9
  19388533.009   -20824575.352 8 -16094444.675 9
  20689516.387   -14283817.685 6 -10997501.861 9
 91  4 18 22 19 45.1460000  0  5 18 11 19 02 06
  22705258.060    15029551.411 5  11707866.607 6
  22191575.042    -3923135.982 6  -2992387.397 8
  19959933.230    -1635199.916 6  -1262348.882 9
  19384214.294   -20847270.289 8 -16112129.010 9
  20681620.155   -14325307.336 6 -11029831.397 9
 91  4 18 22 20  0.2500000  0  5 18 11 19 02 06
  22713883.236    15074853.229 5  11743166.437 6
  22196853.674    -3895403.434 6  -2970777.686 7
  19962241.107    -1623063.819 6  -1252892.217 9
  19379908.154   -20869897.945 8 -16129760.919 9
  20673729.192   -14366784.307 6 -11062151.071 9
 91  4 18 22 20 15.0980000  0  5 18 11 19 02 06
  22722357.985    15119400.668 5  11777878.431 6
  22202060.555    -3868036.129 6  -2949452.573 8
  19964524.610    -1611064.136 6  -1243541.852 9
  19375687.780   -20892076.786 8 -16147043.101 9
  20665970.505   -14407545.797 6 -11093913.219 9
 91  4 18 22 20 30.2020000  0  5 18 11 19 02 06
  22730986.870    15164742.057 5  11813209.087 6
  22207380.641    -3840078.309 6  -2927667.325 8
  19966862.662    -1598774.810 6  -1233965.795 9
  19371409.884   -20914559.341 8 -16164561.941 9
  20658086.448   -14448985.218 6 -11126203.617 9
 91  4 18 22 20 45.0500000  0  4 11 19 02 06
  22212630.384    -3812488.106 6  -2906168.526 8
  19969176.719    -1586622.539 6  -1224496.529 9
  19367216.243   -20936593.711 8 -16181731.550 9
  20650335.780   -14489707.737 6 -11157935.397 9
 91  4 18 22 21  0.1540000  0  4 11 19 02 06
  22217993.874    -3784312.843 6  -2884213.843 8
  19971540.503    -1574186.612 6  -1214806.238 9
  19362965.429   -20958938.200 8 -16199142.803 9
  20642455.962   -14531115.912 6 -11190201.454 9
 91  4 18 22 21 15.0020000  0  4 11 19 02 06
  22223283.783    -3756510.959 6  -2862550.100 8
  19973881.692    -1561891.430 6  -1205225.612 9
  19358796.304   -20980838.359 8 -16216207.833 9
  20634714.069   -14571808.901 6 -11221910.220 9
 91  4 18 22 21 30.1060000  0  4 11 19 02 06
  22228685.824    -3728118.983 6  -2840426.541 8
  19976276.275    -1549308.036 6  -1195420.409 9
  19354570.752   -21003044.566 8 -16233511.337 9
  20626839.614   -14613184.708 6 -11254151.058 9
 91  4 18 22 21 45.2100000  0  4 11 19 02 06
  22234111.881    -3699620.263 6  -2818219.819 8
  19978683.861    -1536652.255 6  -1185558.798 9
  19350357.549   -21025182.981 8 -16250762.019 9
  20618968.183   -14654546.114 6 -11286380.675 9
 91  4 18 22 22  0.0580000  0  4 11 19 02 06
  22239461.263    -3671493.399 6  -2796302.844 7
  19981065.430    -1524132.997 6  -1175803.568 9
  19346229.817   -21046872.932 8 -16267663.251 9
  20611235.473   -14695184.808 6 -11318047.136 9
 91  4 18 22 22 15.1620000  0  4 11 19 02 06
  22244926.331    -3642779.031 6  -2773928.091 8
  19983503.866    -1511328.533 6  -1165826.097 9
  19342044.052   -21068872.490 8 -16284805.736 9
  20603370.753   -14736512.215 6 -11350250.272 9
 91  4 18 22 22 30.0100000  0  4 11 19 02 06
  22250319.118    -3614451.569 6  -2751854.808 7
  19985910.483    -1498673.703 6  -1155965.234 9
  19337940.622   -21090436.665 8 -16301608.958 9
  20595641.803   -14777127.942 6 -11381898.841 9
 91  4 18 22 22 45.1140000  0  4 11 19 02 06
  22255818.335    -3585540.398 6  -2729326.695 7
  19988374.120    -1485738.035 6  -1145885.531 9
  19333777.422   -21112315.050 8 -16318657.026 9
  20587780.618   -14818438.416 6 -11414088.770 9
 91  4 18 22 23  0.2180000  0  4 11 19 02 06
  22261343.090    -3556519.704 6  -2706713.243 7
  19990851.466    -1472725.367 6  -1135745.830 9
  19329626.798   -21134121.554 8 -16335649.080 9
  20579923.161   -14859729.211 6 -11446263.368 9
 91  4 18 22 23 15.0660000  0  4 11 19 02 06
  22266788.607    -3527892.276 6  -2684406.213 7
  19993298.769    -1459866.041 6  -1125725.616 9
  19325560.173   -21155496.202 8 -16352304.624 9
  20572201.484   -14900308.808 6 -11477883.779 9
 91  4 18 22 23 30.1700000  0  4 11 19 02 06
  22272347.950    -3498667.983 6  -2661634.111 7
  19995798.118    -1446713.170 6  -1115476.673 9
  19321435.270   -21177172.879 8 -16369195.509 9
  20564348.246   -14941572.973 6 -11510037.632 9
 91  4 18 22 23 45.0180000  0  4 11 19 02 06
  22277836.891    -3469839.417 6  -2639170.351 7
  19998274.483    -1433714.130 6  -1105347.589 9
  19317392.273   -21198418.572 8 -16385750.575 9
  20556633.046   -14982124.442 6 -11541636.128 9
 91  4 18 22 24  0.1220000  0  3 11 19 06
  22283435.686    -3440411.019 6  -2616239.206 7
  20000802.333    -1420418.898 6  -1094987.719 9
  20548784.854   -15023359.590 6 -11573767.363 9
 91  4 18 22 24 15.2260000  0  4 11 19 02 06
  22289053.940    -3410881.555 6  -2593229.314 7
  20003347.824    -1407053.332 6  -1084573.037 9
  19309204.709       81004.817 8
  20540942.046   -15064581.614 6 -11605888.369 9
 91  4 18 22 24 30.0740000  0  3 11 19 06
  22294598.737    -3381759.388 6  -2570536.770 7
  20005859.829    -1393850.486 6  -1074285.149 9
  20533231.656   -15105096.588 6 -11637458.433 9
 91  4 18 22 24 45.1780000  0  4 11 19 02 06
  22300253.132    -3352034.608 6  -2547374.678 7
  20008429.898    -1380348.996 6  -1063764.553 9
  19301132.412       63887.824 8
  20525391.545   -15146295.492 6 -11669561.427 9
 91  4 18 22 25  0.0260000  0  4 11 19 02 06
  22305832.405    -3322718.949 6  -2524531.368 7
  20010964.786    -1367010.417 6  -1053370.897 9
  19297149.562       42952.743 8
  20517686.509   -15186785.386 6 -11701111.938 9
 91  4 18 22 25 15.1300000  0  4 11 19 02 06
  22311525.434    -3292796.477 6  -2501215.241 7
  20013563.160    -1353369.402 6  -1042741.579 9
  19293109.098       21723.096 8    149424.78619
  20509849.962   -15227957.079 6 -11733193.731 9
 91  4 18 22 25 30.2340000  0  4 11 19 02 06
  22317238.556    -3262770.709 6  -2477818.595 7
  20016171.076    -1339653.658 6  -1032054.032 9
  19289082.210         561.806 8    132935.490 9
  20502020.137   -15269110.715 6 -11765261.441 9
 91  4 18 22 25 45.0820000  0  4 11 19 02 06
  22322875.003    -3233164.392 6  -2454748.815 7
  20018750.859    -1326108.426 6  -1021499.354 9
  19285134.592      -20185.214 8    116769.008 9
  20494321.802   -15309559.914 6 -11796780.247 9
 91  4 18 22 26  0.1860000  0  4 11 19 02 06
  22328625.809    -3202943.270 6  -2431199.946 7
  20021388.583    -1312253.203 6  -1010703.114 9
  19281131.924      -41219.648 8    100378.559 9
  20486496.329   -15350685.753 6 -11828826.302 9
 91  4 18 22 26 15.0340000  0  4 11 19 02 06
  22334296.374    -3173133.008 6  -2407971.245 7
  20023993.393    -1298558.354 6  -1000031.852 9
  19277210.150      -61829.490 8     84318.966 9
  20478806.810   -15391094.948 6 -11860313.933 9
 91  4 18 22 26 30.1380000  0  4 11 19 02 06
  22340086.222    -3142712.508 5  -2384267.038 7
  20026658.033    -1284558.078 6   -989122.601 9
  19273232.939      -82732.164 8     68031.189 9
  20470986.751   -15432187.332 6 -11892333.929 9
 91  4 18 22 26 45.2420000  0  4 11 19 02 06
  22345893.854    -3112196.960 5  -2360488.762 8
  20029333.859    -1270489.612 6   -978160.209 9
  19269267.127     -103573.440 8
  20463169.950   -15473267.417 6 -11924344.323 9
 91  4 18 22 27  0.0900000  0  3 11 19 06
  22351618.764    -3082106.618 5  -2337041.817 7
  20031980.245    -1256593.304 6   -967331.970 9
  20455487.980   -15513639.496 6 -11955803.019 9
 91  4 18 22 27 15.1940000  0  4 11 19 02 06
  22357462.844    -3051400.808 5  -2313115.288 7
  20034681.874    -1242386.382 6   -956261.696 9
  19261436.420       64633.365 8
  20447676.205   -15554692.115 6 -11987792.009 9
 91  4 18 22 27 30.0420000  0  4 11 19 02 06
  22363226.316    -3021126.937 5  -2289525.341 8
  20037351.428    -1228356.814 6   -945329.615 9
  19257571.514       44324.276 8    167036.35419
  20439996.676   -15595039.736 6 -12019231.657 9
 91  4 18 22 27 45.1460000  0  4 11 19 02 06
  22369099.570    -2990242.708 5  -2265459.790 8
  20040079.515    -1214021.972 6   -934159.664 9
  19253650.609       23721.093 8    150981.954 9
  20432189.141   -15636074.780 6 -12051206.952 9
 91  4 18 22 28  0.2500000  0  3 11 19 06
  22374997.320    -2959261.872 5  -2241318.976 7
  20042822.168    -1199615.394 6   -922933.813 9
  20424382.597   -15677093.631 6 -12083169.638 9
 91  4 18 22 28 15.0980000  0  4 11 19 02 06
  22380808.548    -2928718.676 5  -2217519.151 7
  20045527.771    -1185389.403 6   -911848.679 9
  19245911.603       73339.947 8
  20416711.659   -15717407.606 6 -12114583.073 9
 91  4 18 22 28 30.2020000  0  4 11 19 02 06
  22386737.658    -2897559.571 5  -2193239.406 8
  20048293.684    -1170852.685 6   -900521.413 9
  19242024.224       52916.393 8
  20408910.263   -15758406.104 6 -12146529.894 9
 91  4 18 22 28 45.0500000  0  4 11 19 02 06
  22392584.588    -2866831.447 6  -2169295.499 7
  20051027.695    -1156488.401 6   -889328.513 9
  19238215.951       32905.519 8    158138.84519
  20401244.698   -15798689.585 6 -12177919.565 9
 91  4 18 22 29  0.1540000  0  4 11 19 02 06
  22398550.319    -2835483.760 6  -2144868.797 7
  20053820.413    -1141809.947 6   -877890.813 9
  19234355.192       12608.517 8    142323.028 9
  20393447.112   -15839655.643 6 -12209841.106 9
 91  4 18 22 29 15.0020000  0  3 11 19 02
  22404430.183    -2804580.614 6  -2120788.494 7
  20056578.655    -1127316.047 6   -866596.911 9
  19230568.606       -7287.694 8    126819.509 9
 91  4 18 22 29 30.1060000  0  4 11 19 02 06
  22410431.544    -2773051.871 6  -2096220.716 7
  20059397.697    -1112501.991 6   -855053.543 9
  19226729.013      -27464.353 8    111097.465 9
  20377997.012   -15920855.812 6 -12273113.861 9
 91  4 18 22 29 45.2100000  0  4 11 19 02 06
  22416449.271    -2741435.613 6  -2071584.756 7
  20062230.223    -1097622.703 6   -843459.338 9
  19222899.871      -47583.940 8     95419.895 9
  20370207.455   -15961784.501 6 -12305006.296 9
 91  4 18 22 30  0.0580000  0  4 11 19 02 06
  22422380.260    -2710261.427 6  -2047293.252 7
  20065031.031    -1082923.264 6   -832005.282 9
  19219147.986      -67298.144 8     80058.207 9
  20362556.293   -16002000.468 6 -12336343.361 9
 91  4 18 22 30 15.1620000  0  4 11 19 02 06
  22428433.392    -2678450.826 6  -2022505.847 7
  20067889.401    -1067892.751 6   -820293.246 9
  19215345.352      -87282.851 8     64485.742 9
  20354774.245   -16042886.123 6 -12368202.260 9
 91  4 18 22 30 30.0100000  0  4 11 19 02 06
  22434400.135    -2647095.734 6  -1998073.385 7
  20070712.305    -1053053.909 6   -808730.564 9
  19211617.298     -106873.764 8     49220.124 9
  20347128.824   -16083068.524 6 -12399513.179 9
 91  4 18 22 30 45.1140000  0  4 11 19 02 06
  22440485.547    -2615110.631 6  -1973150.014 7
  20073599.298    -1037890.500 6   -796914.971 9
  19207836.555     -126741.998 8     33738.422 9
  20339353.314   -16123928.796 6 -12431352.294 9
 91  4 18 22 31  0.2180000  0  4 11 19 02 06
  22446590.510    -2583039.759 6  -1948159.785 7
  20076494.371    -1022661.718 6   -785048.440 9
  19204066.783     -146553.359 8     18301.030 9
  20331579.437   -16164777.713 6 -12463182.572 9
 91  4 18 22 31 15.0660000  0  4 11 19 02 06
  22452606.051    -2551424.243 6  -1923524.392 7
  20079358.523    -1007622.297 6   -773329.457 9
  19200371.531     -165968.625 8      3172.284 9
  20323941.545   -16204918.023 6 -12494460.690 9
 91  4 18 22 31 30.1700000  0  4 11 19 02 06
  22458744.009    -2519178.044 6  -1898397.546 7
  20082283.363     -992257.342 6   -761356.815 9
  19196624.355     -185661.281 8    -12172.610 9
  20316173.583   -16245737.743 6 -12526268.220 9
 91  4 18 22 31 45.0180000  0  4 11 19 02 06
  22464792.238    -2487390.393 6  -1873628.020 7
  20085169.631     -977083.621 6   -749533.189 9
  19192952.363     -204959.470 8    -27210.126 9
  20308539.941   -16285848.881 6 -12557523.607 9
 91  4 18 22 32  0.1220000  0  4 11 19 02 06
  22470962.731    -2454965.874 6  -1848362.247 7
  20088118.172     -961578.301 6   -737451.173 9
  19189228.089     -224529.103 8    -42459.159 9
  20300777.291   -16326634.431 6 -12589304.507 9
 91  4 18 22 32 15.2260000  0  4 11 19 02 06
  22477149.170    -2422448.875 6  -1823024.395 7
  20091083.782     -945999.077 6   -725311.571 9
  19185517.045     -244033.841 8    -57657.623 9
  20293020.801   -16367399.525 6 -12621069.471 9
 91  4 18 22 32 30.0740000  0  4 11 19 02 06
  22483250.231    -2390393.972 6  -1798046.619 7
  20094009.767     -930612.521 6   -713322.101 9
  19181879.875     -263145.637 8    -72549.897 9
  20285400.040   -16407454.395 7 -12652281.016 9
 91  4 18 22 32 45.1780000  0  4 11 19 02 06
  22489472.877    -2357692.099 6  -1772564.729 7
  20097004.786     -914883.856 6   -701066.050 9
  19178192.580     -282519.374 8    -87646.279 9
  20277650.660   -16448175.912 7 -12684012.027 9
 91  4 18 22 33  0.0260000  0  4 11 19 02 06
  22495607.761    -2325462.954 6  -1747451.175 7
  20099958.025     -899357.049 6   -688967.298 9
  19174580.090     -301509.078 8   -102443.421 9
  20270034.424   -16488194.143 7 -12715195.026 9
 91  4 18 22 33 15.1300000  0  4 11 19 02 06
  22501861.744    -2292585.213 5  -1721832.242 7
  20102980.696     -883486.543 6   -676600.725 9
  19170916.351     -320759.321 8   -117443.577 9
  20262293.706   -16528878.877 7 -12746897.383 9
 91  4 18 22 33 30.2340000  0  4 11 19 02 06
  22508133.909    -2259620.825 5  -1696145.792 6
  20106011.999     -867545.968 6   -664179.550 9
  19167264.400     -339948.928 8   -132396.481 9
  20254552.661   -16569546.380 7 -12778586.310 9
 91  4 18 22 33 45.0820000  0  4 11 19 02 06
  22514316.815    -2227130.165 5  -1670828.459 7
  20109007.458     -851806.570 6   -651915.137 9
  19163686.253     -358753.580 8   -147049.427 9
  20246950.012   -16609506.832 7 -12809724.293 9
 91  4 18 22 34  0.1860000  0  4 11 19 02 06
  22520623.722    -2193992.464 5  -1645006.948 7
  20112068.150     -835724.550 6   -639383.755 9
  19160057.450     -377820.814 8   -161906.979 9
  20239219.305   -16650137.163 7 -12841384.260 9
 91  4 18 22 34 15.0340000  0  4 11 19 02 06
  22526838.478    -2161325.215 5  -1619552.019 6
  20115090.402     -819838.970 6   -627005.438 9
  19156503.626     -396498.276 8   -176460.815 9
  20231622.355   -16690053.781 7 -12872488.082 9
 91  4 18 22 34 30.1380000  0  4 11 19 02 06
  22533182.068    -2128007.695 5  -1593590.390 6
  20118179.104     -803607.317 6   -614357.457 9
  19152899.993     -415435.416 8   -191216.995 9
  20223899.749   -16730638.352 7 -12904112.388 9
 91  4 18 22 34 45.2420000  0  4 11 19 02 06
  22539534.698    -2094603.566 5  -1567561.266 6
  20121283.047     -787303.816 6   -601653.482 9
  19149308.056     -434310.654 8   -205924.945 9
  20216180.596   -16771203.127 7 -12935721.278 9
 91  4 18 22 35  0.0900000  0  4 11 19 02 06
  22545799.947    -2061682.888 5  -1541908.870 6
  20124344.485     -771207.932 6   -589111.296 9
  19145787.564     -452806.883 8   -220337.558 9
  20208594.770   -16811062.121 7 -12966780.205 9
 91  4 18 22 35 15.1940000  0  4 11 19 02 06
  22552189.556    -2028106.590 5  -1515745.566 6
  20127475.579     -754760.403 6   -576295.095 9
  19142219.684     -471557.810 8   -234948.641 9
  20200883.646   -16851585.470 7 -12998356.806 9
 91  4 18 22 35 30.0420000  0  4 11 19 02 06
  22558487.259    -1995013.715 5  -1489959.005 7
  20130566.181     -738519.104 6   -563639.599 9
  19138723.525     -489928.571 8   -249263.492 9
  20193308.322   -16891399.948 7 -13029381.039 9
 91  4 18 22 35 45.1460000  0  4 11 19 02 06
  22564907.830    -1961269.342 5  -1463664.762 7
  20133724.704     -721929.979 6   -550713.061 9
  19135179.753     -508558.487 8   -263780.279 9
  20185603.746   -16931884.230 7 -13060927.209 9
 91  4 18 22 36  0.2500000  0  4 11 19 02 06
  22571348.279    -1927444.172 5  -1437307.562 6
  20136892.828     -705273.158 6   -537733.784 9
  19131644.603     -527130.964 8   -278252.318 9
  20177902.826   -16972352.045 7 -13092460.538 9
 91  4 18 22 36 15.0980000  0  4 11 19 02 06
  22577689.948    -1894107.881 5  -1411331.267 7
  20140022.993     -688826.312 6   -524918.120 9
  19128181.929     -545326.475 8   -292430.617 9
  20170336.114   -17012111.370 7 -13123441.800 9
 91  4 18 22 36 30.2020000  0  4 11 19 02 06
  22584155.557    -1860116.669 5  -1384844.706 7
  20143219.149     -672027.857 6   -511828.466 9
  19124671.131     -563778.094 8   -306808.466 9
  20162643.520   -17052538.719 7 -13154943.600 9
 91  4 18 22 36 45.0500000  0  4 11 19 02 06
  22590531.099    -1826623.533 5  -1358746.223 7
  20146374.484     -655447.391 6   -498908.675 9
  19121229.848     -581860.631 8   -320898.744 9
  20155084.929   -17092263.949 7 -13185898.298 9
 91  4 18 22 37  0.1540000  0  4 11 19 02 06
  22597033.585    -1792474.318 5  -1332136.514 7
  20149596.534     -638513.835 6   -485713.748 9
  19117740.032     -600198.243 8   -335187.766 9
  20147397.565   -17132657.029 7 -13217373.391 9
 91  4 18 22 37 15.0020000  0  4 11 19 02 06
  22603433.786    -1758824.894 5  -1305916.262 6
  20152777.560     -621799.173 6   -472689.383 9
  19114321.079     -618167.396 8   -349189.683 9
  20139845.113   -17172346.771 7 -13248300.436 9
 91  4 18 22 37 30.1060000  0  4 11 19 02 06
  22609964.466    -1724513.952 5  -1279180.516 6
  20156027.375     -604725.499 6   -459385.268 9
  19110853.808     -636386.382 8   -363386.270 9
  20132166.095   -17212699.991 7 -13279744.473 9
 91  4 18 22 37 45.2100000  0  4 11 19 02 06
  22616508.997    -1690126.327 5  -1252385.030 6
  20159288.723     -587585.391 6   -446029.389 9
  19107396.794     -654549.954 8   -377539.686 9
  20124489.927   -17253036.837 7 -13311175.744 9
 91  4 18 22 38  0.0580000  0  4 11 19 02 06
  22622955.360    -1656238.806 5  -1225979.250 6
  20162508.301     -570662.546 6   -432842.805 9
  19104011.704     -672343.173 8   -391404.510 9
  20116948.527   -17292665.806 7 -13342055.434 9
 91  4 18 22 38 15.1620000  0  4 11 19 02 06
  22629530.894    -1621688.514 5  -1199056.995 7
  20165798.170     -553378.667 6   -419374.900 9
  19100578.164     -690385.011 8   -405463.064 9
  20109281.420   -17332958.445 7 -13373452.261 9
 91  4 18 22 38 30.0100000  0  4 11 19 02 06
  22636007.678    -1587650.950 5  -1172534.297 7
  20169045.983     -536323.791 6   -406085.432 9
  19097212.779     -708068.031 8   -419242.019 9
  20101746.355   -17372552.840 7 -13404304.990 9
 91  4 18 22 38 45.1140000  0  4 11 19 02 06
  22642612.417    -1552951.681 5  -1145495.990 6
  20172357.773     -518908.629 6   -392515.232 9
  19093800.691     -726000.979 8   -433215.726 9
  20094085.377   -17412812.938 7 -13435676.460 9
 91  4 18 22 39  0.2180000  0  4 11 19 02 06
  22649228.975    -1518173.230 5  -1118395.957 6
  20175685.836     -501422.590 6   -378889.803 9
  19090398.838     -743874.629 8   -447143.230 9
  20086428.822   -17453051.710 7 -13467031.306 9
 91  4 18 22 39 15.0660000  0  4 11 19 02 06
  22655749.643    -1483898.109 5  -1091688.127 7
  20178970.995     -484154.674 6   -365434.335 9
  19087068.328     -761378.268 8   -460782.409 9
  20078906.439   -17492578.101 7 -13497831.049 9
 91  4 18 22 39 30.1700000  0  4 11 19 02 06
  22662400.411    -1448954.341 5  -1064459.299 6
  20182327.967     -466518.998 6   -351692.318 9
  19083691.411     -779125.099 8   -474611.097 9
  20071259.394   -17532764.707 7 -13529145.252 9
 91  4 18 22 39 45.0180000  0  4 11 19 02 06
  22668951.244    -1414532.005 5  -1037636.747 7
  20185638.224     -449118.366 6   -338133.429 9
  19080381.393     -796518.657 8   -488164.498 9
  20063744.187   -17572254.153 7 -13559916.205 9
 91  4 18 22 40  0.1220000  0  4 11 19 02 06
  22675629.777    -1379436.217 5  -1010289.450 7
  20189019.304     -431344.512 6   -324283.738 9
  19077025.529     -814150.368 8   -501903.479 9
  20056106.009   -17612399.587 7 -13591198.319 9
 91  4 18 22 40 15.2260000  0  3 19 02 06
  20192415.267     -413507.432 6   -310384.774 9
  19073680.748     -831730.662 8   -515602.395 9
  20048467.719   -17652530.409 7 -13622469.046 9
 91  4 18 22 40 30.0740000  0  3 19 02 06
  20195762.054     -395902.060 6   -296666.360 9
  19070403.275     -848954.057 8   -529023.205 9
  20040965.505   -17691957.902 7 -13653191.714 9
 91  4 18 22 40 45.1780000  0  3 19 02 06
  20199186.752     -377920.867 6   -282655.105 9
  19067081.213     -866414.080 8   -542628.405 9
  20033338.032   -17732040.954 7 -13684425.215 9
 91  4 18 22 41  0.0260000  0  3 19 02 06
  20202562.039     -360174.189 6   -268826.588 9
  19063825.295     -883519.729 8   -555957.465 9
  20025845.022   -17771421.166 7 -13715111.051 9
 91  4 18 22 41 15.1300000  0  3 19 02 06
  20206011.917     -342054.064 6   -254707.070 9
  19060524.429     -900864.709 8   -569473.018 9
  20018226.171   -17811460.450 7 -13746310.438 9
 91  4 18 22 41 30.2340000  0  3 19 02 06
  20209471.173     -323864.933 6   -240533.786 9
  19057235.709     -918152.872 8   -582944.298 9
  20010610.007   -17851478.484 7 -13777493.273 9
 91  4 18 22 41 45.0820000  0  3 19 02 06
  20212890.518     -305920.011 6   -226550.792 9
  19054010.518     -935095.782 8   -596146.554 9
  20003128.428   -17890800.470 7 -13808133.731 9
 91  4 18 22 42  0.1860000  0  3 19 02 06
  20216374.066     -287595.412 6   -212271.946 9
  19050742.341     -952272.681 8   -609531.136 9
  19995520.426   -17930777.203 7 -13839284.375 9
 91  4 18 22 42 15.0340000  0  4 15 19 02 06
  22400038.252           0.778 5
  20219816.456     -269510.502 6   -198179.860 9
  19047539.653     -969099.624 8   -622643.022 9
  19988045.865   -17970051.580 7 -13869887.729 9
 91  4 18 22 42 30.1380000  0  4 15 19 02 06
  22392746.348      -38309.131 5
  20223333.234     -251049.331 6   -183794.601 9
  19044292.612     -986164.711 8   -635940.483 9
  19980446.443   -18009985.274 7 -13901004.831 9
 91  4 18 22 42 45.2420000  0  4 15 19 02 06
  22385468.603      -76550.100 5         0.44416
  20226856.426     -232524.577 6   -169359.788 9
  19041055.264    -1003178.962 8   -649198.329 9
  19972851.271   -18049902.485 7 -13932109.094 9
 91  4 18 22 43  0.0900000  0  4 15 19 02 06
  22378330.764     -114067.022 5    -29233.378 6
  20230334.038     -214243.976 6   -155115.220 9
  19037883.130    -1019847.174 8   -662186.528 9
  19965388.253   -18089118.753 7 -13962667.164 9
 91  4 18 22 43 15.1940000  0  4 15 19 02 06
  22371083.643     -152154.443 5    -58911.728 6
  20233886.425     -195577.819 6   -140570.220 9
  19034667.531    -1036744.966 8   -675353.628 9
  19957800.681   -18128986.897 7 -13993733.187 9
 91  4 18 22 43 30.0420000  0  4 15 19 02 06
  22363974.111     -189516.852 5    -88025.138 6
  20237389.851     -177155.063 6   -126214.892 9
  19031518.381    -1053295.764 8   -688250.337 9
  19950347.827   -18168151.521 7 -14024251.016 9
 91  4 18 22 43 45.1450000  0  4 15 19 02 06
  22356757.176     -227445.476 5   -117579.774 6
  20240970.994     -158343.411 6   -111556.524 9
  19028325.306    -1070073.428 8   -701323.823 9
  19942771.175   -18207965.839 7 -14055275.093 9
 91  4 18 22 44  0.2480000  0  4 15 19 02 06
  22049760.307     -265295.653 5   -147073.267 6
  19944774.909     -139464.391 6    -96845.655 9
  18725351.653    -1086794.314 8   -714353.072 9
  19635408.818   -18247754.873 7 -14086279.480 9
 91  4 18 22 44 15.0960000  0  4 15 19 02 06
  22042694.435     -302432.745 5   -176011.095 7
  19948316.233     -120837.563 6    -82331.301 9
  18722232.689    -1103179.053 8   -727120.380 9
  19627968.375   -18286850.307 7 -14116743.391 9
 91  4 18 22 44 30.2000000  0  4 15 19 02 06
  22035519.301     -340132.669 5   -205387.516 6
  19951933.732     -101820.179 6    -67512.626 9
  18719072.701    -1119789.792 8   -740063.797 9
  19620405.361   -18326595.611 7 -14147713.702 9
 91  4 18 22 44 45.0480000  0  4 15 19 02 06
  22028479.058     -377115.592 5   -234205.232 6
  19955506.191      -83055.131 6    -52890.564 9
  18715975.496    -1136061.935 8   -752743.369 9
  19612974.878   -18365641.667 7 -14178139.142 9
 91  4 18 22 45  0.1520000  0  4 15 19 02 06
  22021338.267     -414655.790 5   -263457.186 6
  19959150.882      -63894.677 6    -37960.400 9
  18712836.980    -1152555.815 8   -765595.721 9
  19605422.252   -18405333.890 7 -14209068.089 9
 91  4 18 22 45 15.0000000  0  4 15 19 02 06
  22014330.060     -451479.858 5   -292151.121 6
  19962750.300      -44987.662 6    -23227.719 9
  18709763.657    -1168711.691 8   -778184.701 9
  19598001.954   -18444325.978 7 -14239451.477 9
 91  4 18 22 45 30.1040000  0  4 15 19 02 06
  22007216.431     -488856.425 5   -321275.556 6
  19966423.092      -25681.651 6     -8184.140 9
  18706647.237    -1185086.101 8   -790943.963 9
  19590459.973   -18483961.748 7 -14270336.436 9
 91  4 18 22 45 45.2080000  0  4 15 19 02 06
  22000121.793     -526154.591 5   -350338.919 6
  19970110.595       -6307.242 6      6912.749 9
  18703540.868    -1201405.549 8   -803660.399 9
  19582921.097   -18523573.795 7 -14301202.901 9
 91  4 18 22 46  0.0560000  0  4 15 19 02 06
  21993157.735     -562737.170 5   -378844.690 6
  19973748.973       12812.079 6     21810.861 9
  18700499.152    -1217388.319 8   -816114.489 9
  19575516.612   -18562484.607 7 -14331522.970 9
 91  4 18 22 46 15.1600000  0  4 15 19 02 06
  21986089.330     -599878.621 5   -407785.939 6
  19977461.779       32322.530 6     37013.753 9
  18697415.226    -1233598.648 8   -828745.894 9
  19567987.787   -18602048.777 7 -14362352.121 9
 91  4 18 22 46 30.0080000  0  4 15 19 02 06
  21979156.827     -636314.285 5   -436177.232 6
  19981122.579       51567.933 6     52010.111 9
  18694392.060    -1249481.957 8   -841122.479 9
  19560591.852   -18640919.675 7 -14392641.078 9
 91  4 18 22 46 45.1120000  0  4 15 19 02 06
  21972118.648     -673293.509 5   -464992.074 6
  19984863.598       71218.626 6     67322.287 9
  18691329.289    -1265579.153 8   -853665.732 9
  19553072.998   -18680430.689 7 -14423428.825 9
 91  4 18 22 47  0.2160000  0  4 15 19 02 06
  21965099.132     -710193.338 5   -493745.067 6
  19988614.292       90937.079 6     82687.259 9
  18688276.949    -1281622.327 8   -866166.881 9
  19545557.372   -18719917.591 7 -14454197.776 9
 91  4 18 22 47 15.0640000  0  4 15 19 02 06
  21958208.899     -746383.291 5   -521944.895 6
  19992318.721      110394.132 6     97848.542 9
  18685286.471    -1297334.169 8   -878409.856 9
  19538175.851   -18758704.726 7 -14484421.459 9
 91  4 18 22 47 30.1680000  0  4 15 19 02 06
  21951220.949     -783115.714 5   -550567.429 6
  19996099.446      130255.869 6    113325.168 9
  18682256.482    -1313261.556 8   -890820.788 9
  19530673.862   -18798134.345 7 -14515145.782 9
 91  4 18 22 47 45.0160000  0  4 15 19 02 06
  21944368.053     -819142.364 5   -578640.016 6
  19999827.309      149851.911 6    128594.750 9
  18679286.976    -1328861.592 8   -902976.640 9
  19523302.893   -18836866.763 7 -14545326.821 9
 91  4 18 22 48  0.1200000  0  4 15 19 02 06
  21937410.329     -855699.589 5   -607126.036 6
  20003637.178      169863.457 6    144188.112 9
  18676279.735    -1344666.854 8   -915292.408 9
  19515812.416   -18876231.836 7 -14576000.855 9
 91  4 18 22 48 15.2240000  0  4 15 19 02 06
  21930471.002     -892171.137 5   -635545.288 6
  20007456.007      189947.177 6    159837.693 9
  18673283.088    -1360414.028 8   -927562.914 9
  19508326.455   -18915567.330 7 -14606651.835 9
 91  4 18 22 48 30.0720000  0  4 15 19 02 06
  21923663.022     -927944.428 5   -663420.475 6
  20011225.853      209757.058 6    175273.909 9
  18670347.016    -1375841.445 8   -939584.257 9
  19500972.484   -18954210.997 7 -14636763.736 9
 91  4 18 22 48 45.1760000  0  4 15 19 02 06
  21916753.729     -964251.547 5   -691711.630 6
  20015074.724      229977.426 6    191029.976 9
  18667371.443    -1391479.868 8   -951770.018 9
  19493497.750   -18993493.821 7 -14667373.677 9
 91  4 18 22 49  0.0240000  0  3 15 19 02
  21909974.586     -999866.517 5   -719463.402 6
  20018867.361      249917.659 6    206567.753 9
  18664454.893    -1406804.436 8   -963711.220 9
 91  4 18 22 49 15.1280000  0  4 15 19 02 06
  21903096.408    -1036008.503 5   -747625.899 6
  20022743.710      270273.753 6    222429.587 9
  18661499.147    -1422335.373 8   -975813.228 9
  19478688.406   -19071319.184 7 -14728016.707 9
 91  4 18 22 49 30.2320000  0  4 15 19 02 06
  21896232.919    -1072065.331 5   -775722.013 6
  20026632.400      290699.762 6    238345.895 9
  18658554.147    -1437810.695 8   -987871.907 9
  19471228.411   -19110520.893 7 -14758563.440 9
 91  4 18 22 49 45.0800000  0  4 15 19 02 06
  21889507.611    -1107430.593 5   -803279.237 6
  20030465.631      310844.720 6    254043.200 9
  18655668.753    -1452972.657 8   -999686.401 9
  19463899.569   -19149033.373 7 -14788573.118 9
 91  4 18 22 50  0.1840000  0  4 15 19 02 06
  21882677.630    -1143317.749 5   -831243.146 6
  20034377.172      331409.139 6    270067.364 9
  18652745.900    -1468338.279 8  -1011659.591 9
  19456450.168   -19188178.526 7 -14819075.785 9
 91  4 18 22 50 15.0320000  0  4 15 19 02 06
  21875977.471    -1178517.502 5   -858671.418 6
  20038236.432      351688.308 6    285869.246 9
  18649880.671    -1483394.436 8  -1023391.634 9
  19449131.061   -19226636.913 7 -14849043.314 9
 91  4 18 22 50 30.1360000  0  4 15 19 02 06
  21869180.380    -1214233.214 5   -886501.715 6
  20042175.471      372391.652 6    302001.661 9
  18646977.247    -1498650.243 8  -1035279.255 9
  19441695.287   -19265724.286 7 -14879500.963 9
 91  4 18 22 50 45.2400000  0  4 15 19 02 06
  21862399.020    -1249866.665 5   -914267.925 6
  20046126.953      393159.871 6    318184.625 9
  18644084.386    -1513855.761 8  -1047127.685 9
  19434260.646   -19304787.262 7 -14909939.598 9
 91  4 18 22 51  0.0880000  0  4 15 19 02 06
  21855750.877    -1284810.848 5   -941497.050 6
  20050028.309      413644.508 6    334146.621 9
  18641249.965    -1528749.238 8  -1058732.970 9
  19426958.660   -19343158.912 7 -14939839.546 9
 91  4 18 22 51 15.1920000  0  4 15 19 02 06
  21849004.146    -1320266.063 5   -969124.366 6
  20054004.972      434556.317 6    350441.474 9
  18638377.504    -1543840.004 8  -1070491.984 9
  19419537.769   -19382158.012 7 -14970228.412 9
 91  4 18 22 51 30.0400000  0  5 15 13 19 02 06
  21842387.803    -1355039.630 5   -996220.546 6
  21828895.161           0.003 3
  20057930.813      455176.515 6    366509.096 9
  18635564.249    -1558626.507 8  -1082013.907 9
  19412246.652   -19420472.033 7 -15000083.459 9
 91  4 18 22 51 45.1440000  0  5 15 13 19 02 06
  21835670.431    -1390323.834 5  -1023714.615 6
  21815403.694      -70906.100 3
  20061935.914      476222.608 6    382908.579 9
  18632712.197    -1573612.241 8  -1093691.077 9
  19404835.956   -19459415.570 7 -15030429.029 9
 91  4 18 22 52  0.2480000  0  5 15 13 19 02 06
  21828973.040    -1425519.947 5  -1051140.046 6
  21801915.303     -141785.143 3
  20065953.825      497337.870 6    399361.973 9
  18629870.392    -1588543.843 8  -1105326.060 9
  19397430.582   -19498329.282 7 -15060751.354 9
 91  4 18 22 52 15.0960000  0  5 15 13 19 02 06
  21822408.089    -1460030.095 5  -1078030.914 6
  21788659.429     -211432.798 3
  20069916.033      518166.106 6    415591.707 9
  18627088.620    -1603166.243 8  -1116720.116 9
  19390158.690   -19536550.898 7 -15090534.386 9
 91  4 18 22 52 30.2000000  0  5 15 13 19 02 06
  21815745.266    -1495048.593 5  -1105317.950 6
  21775183.347     -282255.460 3
  20073958.348      539420.632 6    432153.612 9
  18624268.123    -1617988.349 8  -1128269.783 9
  19382764.083   -19575402.910 7 -15120808.640 9
 91  4 18 22 52 45.0480000  0  5 15 13 19 02 06
  21809207.437    -1529385.825 5  -1132074.128 6
  21761942.122     -351849.224 3
  20077949.914      560383.321 6    448488.111 9
  18621505.352    -1632505.549 8  -1139581.860 9
  19375501.364   -19613565.729 7 -15150545.857 9
 91  4 18 22 53  0.1520000  0  5 15 13 19 02 06
  21802577.936    -1564227.910 5  -1159223.679 6
  21748473.772     -422615.952 3         0.40215
  20082018.256      581774.494 6    465156.492 9
  18618705.837    -1647220.877 8  -1151048.322 9
  19368119.516   -19652357.699 7 -15180773.321 9
 91  4 18 22 53 15.0000000  0  5 15 13 19 02 06
  21796077.034    -1598390.795 5  -1185844.001 6
  21735243.222     -492153.921 4    -54184.642 5
  20086034.339      602871.559 6    481595.702 9
  18615962.281    -1661632.994 8  -1162278.517 9
  19360869.065   -19690460.839 7 -15210464.044 9
 91  4 18 22 53 30.1040000  0  5 15 13 19 02 06
  21789484.574    -1633049.081 5  -1212850.326 6
  21721787.295     -562857.656 4   -109278.031 3
  20090132.924      624404.983 6    498374.931 9
  18613183.554    -1676235.884 8  -1173657.361 9
  19353499.731   -19729186.127 7 -15240639.558 9
 91  4 18 22 53 45.2080000  0  5 15 13 19 02 06
  21782903.350    -1667620.108 5  -1239788.650 6
  21708334.616     -633534.918 3   -164350.812 5
  20094241.127      646004.260 6    515205.476 9
  18610414.745    -1690788.353 8  -1184996.921 9
  19346136.433   -19767883.507 7 -15270793.325 9
 91  4 18 22 54  0.0560000  0  5 15 13 19 02 06
  21776451.706    -1701513.552 5  -1266199.023 6
  21695120.727     -702981.873 4   -218464.919 5
  20098295.435      667307.865 6    531805.625 9
  18607702.907    -1705038.555 8  -1196100.950 9
  19338902.919   -19805891.161 7 -15300409.658 9
 91  4 18 22 54 15.1600000  0  5 15 13 19 02 06
  21769910.628    -1735903.043 5  -1292995.885 6
  21681685.802     -773598.016 4   -273490.073 5
  20102433.579      689045.067 6    548743.638 9
  18604953.599    -1719483.301 8  -1207356.572 9
  19331551.451   -19844524.757 7 -15330513.723 9
 91  4 18 22 54 30.0080000  0  5 15 13 19 02 06
  21763492.357    -1769620.065 5  -1319268.769 6
  21668478.338     -842986.486 4   -327558.563 5
  20106512.240      710481.772 6    565447.499 9
  18602261.262    -1733630.455 8  -1218380.303 9
  19324330.227   -19882471.810 7 -15360082.811 9
 91  4 18 22 54 45.1120000  0  5 15 13 19 02 06
  21756982.844    -1803827.401 5  -1345923.704 6
  21655049.042     -913540.483 4   -382535.335 6
  20110677.076      732356.222 6    582492.467 9
  18599533.141    -1747968.722 8  -1229552.951 9
  19316989.413   -19921041.493 7 -15390137.071 9
 91  4 18 22 55  0.2160000  0  5 15 13 19 02 06
  21750491.320    -1837941.410 5  -1372505.917 6
  21641633.158     -984061.635 5   -437486.477 5
  20114854.200      754300.808 6    599592.081 9
  18596815.429    -1762252.124 8  -1240682.849 9
  19309656.271   -19959577.623 7 -15420165.187 9
 91  4 18 22 55 15.0640000  0  5 15 13 19 02 06
  21744127.823    -1871382.313 5  -1398563.642 7
  21628447.759    -1053351.576 5   -491478.179 5
  20118968.839      775945.267 6    616457.822 9
  18594153.706    -1776236.637 8  -1251579.846 9
  19302456.589   -19997424.178 7 -15449655.974 9
 91  4 18 22 55 30.1680000  0  5 15 13 19 02 06
  21737671.602    -1905300.538 5  -1424993.299 7
  21615043.183    -1123796.765 5   -546370.163 5
  20123176.119      798038.398 6    633673.185 9
  18591458.232    -1790402.238 8  -1262617.952 9
  19295137.657   -20035883.579 7 -15479624.301 9
 91  4 18 22 55 45.0160000  0  5 15 13 19 02 06
  21731344.185    -1938552.071 5  -1450903.461 7
  21601867.213    -1193014.785 5   -600305.879 5
  20127320.728      819825.291 6    650649.915 9
  18588818.370    -1804274.668 8  -1273427.613 9
  19287949.315   -20073657.904 7 -15509058.808 9
 91  4 18 22 56  0.1200000  0  5 15 13 19 02 06
  21724926.078    -1972286.076 5  -1477189.589 7
  21588475.489    -1263395.081 5   -655147.282 5
  20131549.981      842054.327 6    667971.183 9
  18586142.247    -1818335.361 8  -1284383.975 9
  19280643.570   -20112052.333 7 -15538976.508 9
 91  4 18 22 56 15.2240000  0  5 15 13 19 02 06
  21718525.724    -2005927.142 6  -1503403.293 6
  21575089.461    -1333742.990 5   -709963.388 5
  20135794.168      864351.075 6    685345.203 9
  18583477.613    -1832344.006 8  -1295299.782 9
  19273342.513   -20150414.338 7 -15568868.946 9
 91  4 18 22 56 30.0720000  0  5 15 13 19 02 06
  21712249.087    -2038902.560 6  -1529098.307 7
  21561935.086    -1402861.796 5   -763821.815 6
  20139981.763      886340.493 6    702479.745 9
  18580867.476    -1846059.793 8  -1305987.389 9
  19266173.131   -20188089.835 7 -15598226.444 9
 91  4 18 22 56 45.1760000  0  5 15 13 19 02 06
  21705884.466    -2072356.157 6  -1555165.931 6
  21548560.982    -1473141.607 5   -818584.927 3
  20144247.085      908774.015 6    719960.340 9
  18578221.760    -1859962.808 8  -1316820.886 9
  19258885.875   -20226384.513 7 -15628066.412 9
 91  4 18 22 57  0.0240000  0  5 15 13 19 02 06
  21699644.971    -2105146.289 6  -1580716.561 6
  21535420.795    -1542192.358 5   -872390.295 5
  20148455.712      930898.518 6    737200.146 9
  18575631.011    -1873574.638 8  -1327427.479 9
  19251729.200   -20263992.926 7 -15657371.625 9
 91  4 18 22 57 15.1280000  0  5 15 13 19 02 06
  21693317.871    -2138404.010 6  -1606631.547 6
  21522060.778    -1612395.489 5   -927093.671 5
  20152753.192      953476.110 6    754793.002 9
  18573006.645    -1887365.162 8  -1338173.319 9
  19244456.287   -20302212.370 7 -15687152.960 9
 91  4 18 22 57 30.2320000  0  5 15 13 19 02 06
  21687004.459    -2171566.459 5  -1632472.301 6
  21508705.246    -1682563.164 5   -981769.363 5
  20157062.582      976122.367 6    772439.369 9
  18570392.289    -1901102.919 8  -1348878.050 9
  19237189.339   -20340397.324 7 -15716907.420 9
 91  4 18 22 57 45.0800000  0  5 15 13 19 02 06
  21680816.684    -2204073.393 5  -1657802.261 7
  21495590.178    -1751506.538 5  -1035491.157 4
  20161313.224      998451.748 6    789838.820 9
  18567832.095    -1914556.300 8  -1359361.189 9
  19230053.166   -20377901.140 7 -15746131.125 9
 91  4 18 22 58  0.1840000  0  5 15 13 19 02 06
  21674543.989    -2237042.336 5  -1683492.233 6
  21482251.644    -1821599.333 5  -1090108.516 5
  20165649.347     1021237.307 6    807593.733 9
  18565239.191    -1928186.327 8  -1369981.971 9
  19222799.467   -20416013.761 7 -15775829.215 9
 91  4 18 22 58 15.0320000  0  5 15 13 19 02 06
  21668395.154    -2269359.016 5  -1708673.954 6
  21469145.280    -1890468.708 5  -1143772.616 5
  20169924.578     1043702.936 6    825099.352 9
  18562698.712    -1941534.596 8  -1380383.198 9
  19215676.605   -20453446.549 7 -15804997.576 9
 91  4 18 22 58 30.1360000  0  5 15 13 19 02 06
  21662157.641    -2302136.477 5  -1734214.719 6
  21455821.302    -1960488.510 5  -1198333.125 6
  20174284.318     1066624.227 6    842960.027 9
  18560125.012    -1955060.625 8  -1390922.951 9
  19208436.942   -20491489.294 7 -15834641.207 9
 91  4 18 22 58 45.2400000  0  5 15 13 19 02 06
  21655942.081    -2334810.012 5  -1759674.499 6
  21442504.434    -2030464.025 5  -1252859.141 5
  20178660.219     1089620.878 6    860879.428 9
  18557562.100    -1968527.315 8  -1401416.462 9
  19201206.370   -20529489.609 7 -15864251.784 9
 91  4 18 22 59  0.0880000  0  5 15 13 19 02 06
  21649843.065    -2366832.575 5  -1784627.023 7
  21429419.001    -2099214.524 4  -1306430.598 5
  20182976.872     1112296.462 6    878548.641 9
  18555052.593    -1981712.463 8  -1411690.589 9
  19194105.236   -20566808.830 7 -15893331.641 9
 91  4 18 22 59 15.1920000  0  5 15 13 19 02 06
  21643662.553    -2399320.774 5  -1809942.380 6
  21416116.046    -2169122.808 4  -1360904.255 5
  20187376.880     1135420.554 6    896567.345 9
  18552507.823    -1995083.437 8  -1422109.512 9
  19186884.399   -20604746.027 7 -15922893.038 9
 91  4 18 22 59 30.0400000  0  5 15 13 19 02 06
  21637604.827    -2431159.834 6  -1834751.921 6
  21403044.180    -2237805.727 4  -1414423.044 5
  20191715.312     1158222.211 6    914334.814 9
  18550017.082    -2008173.886 8  -1432309.850 9
  19179796.041   -20642002.095 7 -15951923.672 9
 91  4 18 22 59 45.1440000  0  5 15 13 19 02 06
  21631458.832    -2463456.601 6  -1859918.126 6
  21389753.023    -2307640.349 4  -1468839.294 6
  20196142.390     1181478.817 6    932456.779 9
  18547492.242    -2021444.427 8  -1442650.517 9
  19172589.873   -20679870.467 7 -15981431.430 9
 91  4 18 23  0  0.2480000  0  5 15 13 19 02 06
  21625331.132    -2495655.959 6  -1885008.413 7
  21376480.203    -2377436.914 5  -1523225.857 6
  20200578.703     1204802.330 6    950630.884 9
  18544976.299    -2034664.167 8  -1452951.597 9
  19165389.130   -20717703.478 7 -16010911.642 9
 91  4 18 23  0 15.0960000  0  5 15 13 19 02 06
  21619321.244    -2527219.277 6  -1909603.080 7
  21363423.935    -2446017.891 5  -1576665.250 5
  20204955.380     1227790.881 6    968543.977 9
  18542512.321    -2047615.401 8  -1463043.453 9
  19158319.498   -20754865.284 7 -16039868.827 9
 91  4 18 23  0 30.2000000  0  5 15 13 19 02 06
  21613232.811    -2559229.766 5  -1934546.205 7
  21350155.181    -2515743.157 4  -1630996.281 5
  20209419.621     1251241.983 6    986817.499 9
  18540014.541    -2060739.790 8  -1473270.238 9
  19151132.004   -20792632.544 7 -16069297.803 9
 91  4 18 23  0 45.0480000  0  5 15 13 19 02 06
  21607267.441    -2590594.207 6  -1958985.914 7
  21337122.030    -2584240.591 5  -1684370.592 5
  20213819.333     1274368.564 6   1004838.150 9
  18537570.319    -2073584.712 8  -1483279.253 9
  19144074.487   -20829716.677 7 -16098194.466 9
 91  4 18 23  1  0.1520000  0  5 15 13 19 02 06
  21601211.687    -2622402.185 5  -1983771.244 6
  21323872.102    -2653880.239 5  -1738634.864 5
  20218306.129     1297959.623 6   1023220.726 9
  18535093.460    -2086601.397 8  -1493422.114 9
  19136902.632   -20867404.620 7 -16127561.641 9
 91  4 18 23  1 15.0000000  0  5 15 13 19 02 06
  21595280.885    -2653571.012 5  -2008058.535 6
  21310851.271    -2722297.116 5  -1791946.393 5
  20222734.167     1321219.390 6   1041345.157 9
  18532667.063    -2099344.670 8  -1503351.925 9
  19129859.631   -20904414.616 7 -16156400.542 9
 91  4 18 23  1 30.1040000  0  5 15 13 19 02 06
  21589266.962    -2685169.783 5  -2032680.845 7
  21297613.642    -2791844.576 5  -1846138.896 5
  20227251.128     1344955.595 6   1059840.839 9
  18530213.065    -2112248.433 8  -1513406.789 9
  19122704.805   -20942017.164 7 -16185701.164 9
 91  4 18 23  1 45.2080000  0  5 15 13 19 02 06
  21583268.666    -2716672.143 5  -2057228.033 7
  21284387.360    -2861354.776 5  -1900302.325 5
  20231780.450     1368755.181 6   1078385.913 9
  18527766.157    -2125105.020 8  -1523424.894 9
  19115555.781   -20979585.950 7 -16214975.484 9
 91  4 18 23  2  0.0560000  0  5 15 13 19 02 06
  21577396.018    -2747548.570 5  -2081287.477 7
  21271388.787    -2929652.248 5  -1953520.849 5
  20236244.344     1392210.752 6   1096662.917 9
  18525369.292    -2137700.294 8  -1533239.378 9
  19108533.078   -21016487.175 7 -16243729.630 9
 91  4 18 23  2 15.1600000  0  5 15 13 19 02 06
  21571439.391    -2778856.739 5  -2105683.349 7
  21258176.614    -2999084.667 5  -2007623.656 6
  20240795.996     1416138.120 6   1115307.547 9
  18522941.690    -2150461.624 8  -1543183.255 9
  19101396.987   -21053986.225 7 -16272949.615 9
 91  4 18 23  2 30.0080000  0  5 15 13 19 02 06
  21565601.740    -2809533.318 5  -2129587.070 7
  21245196.960    -3067296.542 5  -2060775.436 5
  20245283.966     1439727.846 6   1133689.082 9
  18520563.571    -2162954.924 8  -1552918.283 9
  19094390.526   -21090810.022 7 -16301643.427 9
 91  4 18 23  2 45.1120000  0  5 15 13 19 02 06
  21559682.041    -2840636.870 5  -2153823.513 7
  21232001.837    -3136640.555 5  -2114809.360 6
  20249865.027     1463792.297 6   1152440.536 9
  18518155.613    -2175611.784 8  -1562780.754 9
  19087269.686   -21128228.951 7 -16330800.978 9
 91  4 18 23  3  0.2160000  0  5 15 13 19 02 06
  21553784.978    -2871640.256 5  -2177981.896 7
  21218813.057    -3205942.707 5  -2168810.735 6
  20254454.220     1487922.490 6   1171243.200 9
  18515755.837    -2188219.472 8  -1572604.917 9
  19080156.272   -21165610.609 7 -16359929.491 9
 91  4 18 23  3 15.0640000  0  5 15 13 19 02 06
  21548000.089    -2902019.335 5  -2201653.788 7
  21205857.878    -3274028.446 5  -2221864.201 6
  20258982.561     1511708.280 6   1189777.528 9
  18513406.953    -2200564.764 8  -1582224.609 9
  19073169.557   -21202321.335 7 -16388535.203 9
 91  4 18 23  3 30.1680000  0  5 15 13 19 02 06
  21542141.027    -2932815.254 5  -2225650.518 7
  21192686.566    -3343238.956 5  -2275794.131 6
  20263604.911     1535975.994 6   1208687.359 9
  18511027.710    -2213067.486 8  -1591966.972 9
  19066071.926   -21239620.687 7 -16417599.588 9
 91  4 18 23  3 45.0160000  0  5 15 13 19 02 06
  21536402.790    -2962988.061 5  -2249161.682 7
  21179750.286    -3411232.160 5  -2328775.543 5
  20268153.080     1559898.845 6   1227328.466 9
  18508698.347    -2225307.967 8  -1601504.999 9
  19059102.699   -21276248.320 7 -16446140.557 9
 91  4 18 23  4  0.1200000  0  5 15 13 19 02 06
  21530582.311    -2993573.815 5  -2272994.610 7
  21166596.054    -3480348.062 5  -2382631.756 5
  20272799.058     1584305.984 6   1246346.940 9
  18506339.197    -2237704.145 8  -1611164.353 9
  19052020.421   -21313462.706 7 -16475138.734 9
 91  4 18 23  4 15.2240000  0  5 15 13 19 02 06
  21524783.222    -3024053.507 5  -2296744.913 7
  21153449.167    -3549416.105 5  -2436450.690 6
  20277454.567     1608782.617 6   1265419.559 9
  18503989.404    -2250047.306 8  -1620782.377 9
  19044947.194   -21350634.469 7 -16504103.702 9
 91  4 18 23  4 30.0720000  0  5 15 13 19 02 06
  21519097.175    -3053914.170 5  -2320012.842 7
  21140536.953    -3617267.655 5  -2489321.731 6
  20282048.672     1632910.894 6   1284220.745 9
  18501690.708    -2262130.960 8  -1630198.195 9
  19038000.410   -21387135.748 7 -16532546.211 9
 91  4 18 23  4 45.1760000  0  5 15 13 19 02 06
  21513336.618    -3084183.426 5  -2343599.172 7
  21127414.910    -3686240.131 5  -2543066.173 6
  20286731.006     1657524.725 6   1303400.269 9
  18499362.009    -2274369.860 8  -1639734.978 9
  19030943.936   -21424223.019 7 -16561445.347 9
 91  4 18 23  5  0.0240000  0  5 15 13 19 02 06
  21507693.198    -3113833.911 5  -2366703.351 7
  21114521.738    -3753994.247 5  -2595861.245 6
  20291349.404     1681790.709 6   1322308.743 9
  18497083.089    -2286348.157 8  -1649068.702 9
  19024013.517   -21460637.790 7 -16589820.455 9
 91  4 18 23  5 15.1280000  0  5 15 13 19 02 06
  21501974.606    -3143896.688 5  -2390128.785 7
  21101411.002    -3822875.094 5  -2649534.280 5
  20296057.888     1706536.542 6   1341591.128 9
  18494772.911    -2298488.006 8  -1658528.305 9
  19016972.212   -21497644.594 7 -16618656.888 9
 91  4 18 23  5 30.2320000  0  5 15 13 19 02 06
  21496272.439    -3173851.800 5  -2413470.330 7
  21088313.853    -3891705.876 5  -2703168.324 6
  20300779.019     1731352.080 6   1360927.831 9
  18492472.723    -2310574.774 8  -1667946.551 9
  19009937.650   -21534607.190 7 -16647458.877 9
 91  4 18 23  5 45.0800000  0  5 15 13 19 02 06
  21490687.716    -3203197.682 5  -2436337.153 7
  21075445.259    -3959324.563 5  -2755857.875 6
  20305435.856     1755811.210 6   1379986.819 9
  18490219.790    -2322408.812 8  -1677167.857 9
  19003030.634   -21570903.818 7 -16675741.935 9
 91  4 18 23  6  0.1840000  0  5 15 13 19 02 06
  21485027.544    -3232947.242 5  -2459518.514 7
  21062365.925    -4028063.834 5  -2809420.634 6
  20310179.634     1780755.755 6   1399424.043 9
  18487938.939    -2334399.479 8  -1686511.214 9
  18996012.773   -21607787.123 7 -16704482.132 9
 91  4 18 23  6 15.0320000  0  5 15 13 19 02 06
  21479481.771    -3262090.052 5  -2482227.106 7
  21049514.676    -4095591.438 5  -2862039.191 6
  20314859.986     1805341.901 6   1418582.006 9
  18485704.516    -2346138.667 8  -1695658.612 9
  18989121.080   -21644004.877 7 -16732703.720 9
 91  4 18 23  6 30.1360000  0  5 15 13 19 02 06
  21473858.435    -3291627.198 5  -2505242.967 7
  21036452.402    -4164231.884 5  -2915524.923 6
  20319630.190     1830420.942 6   1438124.039 9
  18483441.940    -2358027.782 8  -1704922.837 9
  18982117.265   -21680802.113 7 -16761376.860 9
 91  4 18 23  6 45.2400000  0  5 15 13 19 02 06
  21468260.167    -3321053.364 5  -2528172.342 7
  21023400.977    -4232818.661 5  -2968968.833 5
  20324418.362     1855570.874 6   1457721.308 9
  18481189.784    -2369862.401 8  -1714144.605 9
  18975123.951   -21717552.471 7 -16790013.470 9
 91  4 18 23  7  0.0880000  0  5 15 13 19 02 06
  21462776.370    -3349874.850 5  -2550630.546 7
  21010580.670    -4300192.660 5  -3021467.715 6
  20329134.386     1880361.215 6   1477038.382 9
  18478985.343    -2381445.919 8  -1723170.704 9
  18968257.479   -21753636.312 7 -16818130.709 9
 91  4 18 23  7 15.1920000  0  5 15 13 19 02 06
  21457218.268    -3379083.614 5  -2573390.515 7
  20997547.897    -4368675.143 5  -3074830.361 6
  20333949.935     1905648.566 6   1496742.743 9
  18476754.138    -2393176.099 8  -1732311.089 9
  18961282.257   -21790295.993 7 -16846696.658 9
 91  4 18 23  7 30.0400000  0  4 15 19 02 06
  21451774.351    -3407689.375 5  -2595680.617 7
  20338692.671     1930574.974 5   1516165.845 9
  18474568.993    -2404656.130 8  -1741256.542 9
  18954432.160   -21826289.314 7 -16874743.363 9
 91  4 18 23  7 45.1440000  0  5 15 13 19 02 06
  21446260.082    -3436676.236 5  -2618267.671 7
  20971735.334    -4504318.754 5  -3180526.046 6
  20343529.253     1956002.467 6   1535979.399 9
  18472356.962    -2416279.435 8  -1750313.652 9
  18947473.731   -21862854.563 7 -16903235.723 9
 91  4 18 23  8  0.2480000  0  5 15 13 19 02 06
  21440762.332    -3465555.808 5  -2640771.128 7
  20958732.553    -4572642.138 5  -3233764.729 6
  20348384.906     1981495.761 5   1555844.228 9
  18470154.533    -2427853.730 8  -1759332.562 9
  18940524.016   -21899376.684 7 -16931694.472 9
 91  4 18 23  8 15.0960000  0  5 15 13 19 02 06
  21435379.318    -3493841.776 5  -2662812.050 7
  20945960.543    -4639758.648 5  -3286062.990 6
  20353163.661     2006620.366 6   1575421.762 9
  18467997.653    -2439184.827 8  -1768161.972 9
  18933700.121   -21935238.095 7 -16959638.390 9
 91  4 18 23  8 30.2000000  0  5 15 13 19 02 06
  21429923.562    -3522503.414 5  -2685145.694 7
  20932979.898    -4707976.448 5  -3339219.409 6
  20358039.418     2032248.178 6   1595391.406 9
  18465815.185    -2450657.971 8  -1777102.067 9
  18926767.618   -21971669.619 7 -16988026.544 9
 91  4 18 23  8 45.0480000  0  5 15 13 19 02 06
  21424582.941    -3550572.562 5  -2707017.653 7
  20920227.491    -4774986.361 5  -3391434.604 6
  20362846.815     2057506.890 6   1615073.439 9
  18463678.306    -2461887.514 8  -1785852.340 9
  18919960.589   -22007439.514 7 -17015899.148 9
 91  4 18 23  9  0.1520000  0  5 15 13 19 02 06
  21419171.325    -3579014.364 5  -2729179.994 7
  20907265.673    -4843096.115 5  -3444506.833 5
  20367749.356     2083269.928 5   1635148.453 9
  18461514.746    -2473258.458 8  -1794712.795 9
  18913045.585   -22043778.529 7 -17044215.221 9
 91  4 18 23  9 15.0000000  0  5 15 13 19 02 06
  21413873.955    -3606866.977 5  -2750883.234 7
  20894534.299    -4909999.303 5  -3496638.889 6
  20372581.096     2108661.192 6   1654933.776 9
  18459396.357    -2484388.092 8  -1803385.221 9
  18906255.921   -22079457.365 7 -17072016.861 9
 91  4 18 23  9 30.1040000  0  5 15 13 19 02 06
  21408504.548    -3635080.352 5  -2772867.579 7
  20881597.426    -4977991.899 5  -3549619.810 6
  20377508.348     2134566.670 6   1675119.781 9
  18457253.289    -2495649.737 8  -1812160.511 9
  18899359.560   -22115695.533 7 -17100254.345 9
 91  4 18 23  9 45.2080000  0  5 15 13 19 02 06
  21403159.116    -3663176.836 5  -2794760.837 7
  20868669.625    -5045923.728 5  -3602553.386 6
  20382453.006     2160544.945 5   1695362.514 9
  18455121.253    -2506855.315 8  -1820892.112 9
  18892474.057   -22151881.314 7 -17128450.997 9
 91  4 18 23 10  0.0560000  0  5 15 13 19 02 06
  21397919.595    -3690685.792 5  -2816196.285 7
  20855973.575    -5112647.335 5  -3654545.526 6
  20387326.415     2186151.095 6   1715315.275 9
  18453034.510    -2517818.881 8  -1829435.139 9
  18885713.951   -22187405.153 7 -17156131.857 9
 91  4 18 23 10 15.1600000  0  5 15 13 19 02 06
  21392613.154    -3718561.021 5  -2837917.155 7
  20843066.725    -5180469.012 5  -3707393.269 6
  20392294.078     2212262.363 5   1735661.642 9
  18450921.505    -2528924.354 8  -1838088.739 9
  18878845.876   -22223497.535 7 -17184255.735 9
 91  4 18 23 10 30.0080000  0  5 15 13 19 02 06
  21387420.000    -3745857.799 5  -2859187.269 7
  20830388.491    -5247089.822 5  -3759305.281 6
  20397192.524     2237993.242 6   1755711.596 9
  18448852.200    -2539795.732 8  -1846559.925 9
  18872101.056   -22258934.983 7 -17211869.279 9
 91  4 18 23 10 45.1120000  0  5 15 13 19 02 06
  21382158.118    -3773512.908 5  -2880736.598 7
  20817503.777    -5314802.163 5  -3812067.848 6
  20402187.206     2264235.147 5   1776159.751 9
  18446757.439    -2550803.738 8  -1855137.576 9
  18865251.837   -22294935.099 7 -17239921.259 9
 91  4 18 23 11  0.2160000  0  5 15 13 19 02 06
  21376918.821    -3801049.506 5  -2902193.588 7
  20804630.648    -5382451.599 5  -3864781.375 6
  20407192.523     2290550.050 5   1796664.790 9
  18444673.700    -2561755.461 8  -1863671.371 9
  18858411.046   -22330881.275 7 -17267931.218 9
 91  4 18 23 11 15.0640000  0  5 15 13 19 02 06
  21371790.584    -3828009.729 5  -2923201.455 7
  20791984.704    -5448898.854 5  -3916558.175 6
  20412128.468     2316483.641 5   1816872.702 9
  18442634.121    -2572473.260 8  -1872022.902 9
  18851695.952   -22366171.540 7 -17295430.073 9
 91  4 18 23 11 30.1680000  0  5 15 13 19 02 06
  21366593.303    -3855323.387 5  -2944484.729 7
  20779134.538    -5516435.550 5  -3969183.859 6
  20417160.282     2342929.546 5   1837479.818 9
  18440568.954    -2583327.105 8  -1880480.421 9
  18844873.283   -22402023.157 7 -17323366.351 9
 91  4 18 23 11 45.0160000  0  5 15 13 19 02 06
  21361505.120    -3882063.463 5  -2965321.044 7
  20766510.618    -5582770.873 5  -4020873.450 6
  20422119.539     2368992.351 5   1857788.415 9
  18438548.099    -2593948.073 8  -1888756.490 9
  18838175.198   -22437219.439 7 -17350791.971 9
 91  4 18 23 12  0.1200000  0  5 15 13 19 02 06
  21356348.975    -3909157.183 5  -2986432.941 7
  20753679.698    -5650196.996 5  -4073412.975 6
  20427177.177     2395565.515 5   1878494.695 9
  18436499.429    -2604707.714 8  -1897140.610 9
  18831370.426   -22472979.092 7 -17378656.581 9
 91  4 18 23 12 15.2240000  0  5 15 13 19 02 06
  21351214.855    -3936131.857 5  -3007452.062 7
  20740858.942    -5717559.199 5  -4125902.730 6
  20432249.187     2422210.301 5   1899256.778 9
  18434464.192    -2615412.236 8  -1905481.775 9
  18824576.399   -22508684.383 7 -17406478.829 9
 91  4 18 23 12 30.0720000  0  5 15 13 19 02 06
  21346189.045    -3962534.892 5  -3028025.751 7
  20728269.703    -5783718.998 5  -4177455.534 6
  20437245.688     2448471.279 5   1919719.796 9
  18432470.990    -2625883.844 8  -1913641.465 9
  18817906.753   -22543733.368 7 -17433789.671 9
 91  4 18 23 12 45.1760000  0  5 15 13 19 02 06
  21341099.718    -3989283.037 5  -3048868.369 7
  20715473.402    -5850963.564 5  -4229853.635 6
  20442343.094     2475247.677 5   1940584.441 9
  18430452.434    -2636489.895 8  -1921905.906 9
  18811130.195   -22579340.600 7 -17461535.506 9
 91  4 18 23 13  0.0240000  0  5 15 13 19 02 06
  21336116.026    -4015464.916 5  -3069269.726 7
  20702906.943    -5917008.945 5  -4281317.277 6
  20447362.251     2501636.016 5   1961146.697 9
  18428477.752    -2646866.534 8  -1929991.585 9
  18804478.773   -22614294.470 7 -17488772.248 9
 91  4 18 23 13 15.1280000  0  5 15 13 19 02 06
  21331070.972    -4041983.092 5  -3089933.140 7
  20690130.797    -5984132.308 5  -4333620.933 6
  20452484.224     2528546.039 5   1982115.462 9
  18426478.513    -2657371.802 8  -1938177.499 9
  18797723.749   -22649800.131 7 -17516438.949 9
 91  4 18 23 13 30.2320000  0  5 15 13 19 02 06
  21326044.019    -4068383.040 5  -3110504.431 7
  20677370.798    -6051191.910 5  -4385874.895 5
  20457616.463     2555525.537 5   2003138.360 9
  18424489.336    -2667824.171 8  -1946322.188 9
  18790976.437   -22685252.139 7 -17544063.848 9
 91  4 18 23 13 45.0800000  0  5 15 13 19 02 06
  21321128.084    -4094222.203 5  -3130638.749 7
  20664835.107    -6117054.882 5  -4437196.412 6
  20462678.085     2582112.729 5   2023855.571 9
  18422543.624    -2678050.348 8  -1954290.625 9
  18784353.515   -22720053.224 7 -17571181.532 9
 91  4 18 23 14  0.1840000  0  5 15 13 19 02 06
  21316148.172    -4120391.445 5  -3151030.272 7
  20652099.708    -6183991.964 5  -4489354.913 6
  20467836.230     2609224.516 5   2044981.562 8
  18420573.294    -2688403.183 8  -1962357.756 9
  18777626.593   -22755403.134 7 -17598726.872 9
 91  4 18 23 14 15.0320000  0  5 15 13 19 02 06
  21311277.316    -4145998.353 5  -3170983.613 7
  20639590.413    -6249728.636 5  -4540578.028 6
  20472923.103     2635946.635 5   2065803.908 8
  18418646.828    -2698526.872 8  -1970246.338 9
  18771023.836   -22790098.397 7 -17625762.108 9
 91  4 18 23 14 30.1360000  0  5 15 13 19 02 06
  21306341.677    -4171936.359 6  -3191194.949 7
  20626873.075    -6316541.745 5  -4592639.913 6
  20478104.498     2663190.003 5   2087032.413 8
  18416695.406    -2708780.796 8  -1978236.397 9
  18764317.262   -22825345.649 7 -17653227.464 9
 91  4 18 23 14 45.2400000  0  5 15 13 19 02 06
  21301427.142    -4197757.986 5  -3211315.593 7
  20614174.513    -6383292.524 5  -4644653.265 6
  20483300.775     2690499.072 5   2108312.127 9
  18414754.087    -2718985.358 8  -1986187.996 9
  18757619.810   -22860541.218 7 -17680652.541 9
 91  4 18 23 15  0.0880000  0  5 15 13 19 02 06
  21296616.474    -4223030.929 6  -3231008.709 7
  20601698.305    -6448853.466 5  -4695739.446 6
  20488421.461     2717406.622 5   2129278.962 9
  18412854.160    -2728971.653 8  -1993969.515 9
  18751044.961   -22895092.333 7 -17707575.447 9
 91  4 18 23 15 15.1920000  0  5 15 13 19 02 06
  21291747.295    -4248624.526 5  -3250951.674 7
  20589017.558    -6515482.958 5  -4747658.272 6
  20493646.065     2744842.415 5   2150657.424 9
  18410929.747    -2739082.307 8  -2001847.935 9
  18744367.378   -22930188.311 7 -17734922.922 9
 91  4 18 23 15 30.0400000  0  5 15 13 19 02 06
  21286981.442    -4273666.374 5  -3270464.714 7
  20576565.070    -6580917.339 6  -4798645.840 6
  20498786.609     2771880.906 5   2171726.283 9
  18409048.626    -2748969.905 8  -2009552.550 9
  18737811.100   -22964634.438 7 -17761764.016 9
 91  4 18 23 15 45.1440000  0  5 15 13 19 02 06
  21282158.794    -4299019.838 5  -3290220.556 7
  20563910.770    -6647412.843 5  -4850460.261 6
  20504036.843     2799454.124 5   2193211.825 8
  18407144.234    -2758975.615 8  -2017349.197 9
  18731154.550   -22999618.636 7 -17789024.393 9
 91  4 18 23 16  0.2480000  0  5 15 13 19 02 06
  21277356.717    -4324261.253 5  -3309889.104 7
  20551270.997    -6713849.583 6  -4902228.889 6
  20509296.608     2827087.207 5   2214744.001 8
  18405248.781    -2768937.862 8  -2025111.972 9
  18724504.926   -23034555.328 7 -17816247.747 9
 91  4 18 23 16 15.0960000  0  5 15 13 19 02 06
  21272655.636    -4348958.215 5  -3329133.391 7
  20538851.330    -6779095.919 6  -4953069.943 6
  20514475.714     2854317.081 5   2235962.005 8
  18403394.199    -2778682.115 8  -2032704.888 9
  18717980.489   -23068846.607 7 -17842968.198 9
 91  4 18 23 16 30.2000000  0  5 15 13 19 02 06
  21267899.251    -4373951.458 5  -3348608.580 7
  20526236.563    -6845390.276 6  -5004727.633 6
  20519762.599     2882093.559 5   2257605.919 9
  18401519.493    -2788533.482 8  -2040381.265 9
  18711354.861   -23103663.738 7 -17870098.393 9
 91  4 18 23 16 45.0480000  0  5 15 13 19 02 06
  21263244.589    -4398404.075 5  -3367662.461 7
  20513848.992    -6910495.688 6  -5055458.867 6
  20524969.153     2909464.223 5   2278933.621 9
  18399685.965    -2798168.840 8  -2047889.320 9
  18704851.395   -23137836.976 7 -17896726.852 9
 91  4 18 23 17  0.1520000  0  5 15 13 19 02 06
  21258529.943    -4423165.428 5  -3386956.935 7
  20501256.883    -6976663.357 6  -5107017.839 6
  20530281.536     2937366.223 5   2300675.354 8
  18397829.145    -2807926.819 8  -2055492.928 9
  18698245.237   -23172550.767 7 -17923776.523 9
 91  4 18 23 17 15.0000000  0  5 15 13 19 02 06
  21253923.220    -4447383.938 6  -3405828.404 7
  20488892.552    -7041637.654 6  -5157646.904 6
  20535512.045     2964866.177 5   2322103.805 9
  18396013.994    -2817464.556 8  -2062924.925 9
  18691762.989   -23206615.989 7 -17950320.825 9
 91  4 18 23 17 30.1040000  0  5 15 13 19 02 06
  21249257.209    -4471905.040 6  -3424935.674 7
  20476328.790    -7107669.525 6  -5209100.079 6
  20540848.933     2992901.575 5   2343949.481 8
  18394176.348    -2827121.624 8  -2070449.896 9
  18685178.834   -23241217.643 7 -17977283.114 9
 91  4 18 23 17 45.2080000  0  5 15 13 19 02 06
  21244612.731    -4496305.694 6  -3443949.087 7
  20463774.324    -7173633.462 6  -5260500.281 6
  20546194.811     3021002.620 5   2365846.306 8
  18392348.111    -2836729.163 8  -2077936.280 9
  18678605.170   -23275763.739 7 -18004202.119 9
 91  4 18 23 18  0.0560000  0  5 15 13 19 02 06
  21240071.774    -4520175.268 5  -3462548.672 7
  20451446.309    -7238412.945 6  -5310977.562 6
  20551460.664     3048691.286 5   2387421.813 9
  18390560.030    -2846125.684 8  -2085258.230 9
  18672153.240   -23309669.813 7 -18030622.403 9
 91  4 18 23 18 15.1600000  0  5 15 13 19 02 06
  21235472.222    -4544339.376 5  -3481377.748 7
  20438920.557    -7304244.119 6  -5362274.321 6
  20556836.319     3076919.668 5   2409417.853 9
  18388749.771    -2855637.811 8  -2092670.268 9
  18665599.629   -23344107.474 7 -18057456.908 9
 91  4 18 23 18 30.0080000  0  5 15 13 19 02 06
  21230974.864    -4567972.627 5  -3499793.201 7
  20426616.885    -7368889.302 6  -5412646.936 6
  20562127.761     3104736.683 5   2431093.370 8
  18386980.363    -2864937.407 8  -2099916.692 9
  18659167.946   -23377903.307 7 -18083791.292 9
 91  4 18 23 18 45.1120000  0  5 15 13 19 02 06
  21226423.007    -4591900.578 5  -3518438.267 7
  20414116.304    -7434587.744 6  -5463840.282 6
  20567527.391     3133090.821 5   2453187.406 8
  18385188.165    -2874355.973 8  -2107255.824 9
  18652635.613   -23412233.064 7 -18110541.725 9
 91  4 18 23 19  0.2160000  0  5 15 13 19 02 06
  21221894.093    -4615710.132 6  -3536991.079 7
  20401623.916    -7500219.762 6  -5514981.865 7
  20572929.810     3161507.096 5   2475329.860 9
  18383404.374    -2883728.587 8  -2114559.151 9
  18646113.597   -23446509.092 7 -18137250.287 9
 91  4 18 23 19 15.0640000  0  5 15 13 19 02 06
  21217464.032    -4638993.764 6  -3555134.100 7
  20389361.942    -7564667.405 6  -5565200.576 6
  20578259.241     3189508.939 5   2497149.401 8
  18381661.147    -2892890.755 8  -2121698.489 9
  18639712.845   -23480144.831 7 -18163459.917 9
 91  4 18 23 19 30.1680000  0  5 15 13 19 02 06
  21212974.437    -4662560.609 6  -3573497.792 7
  20376898.276    -7630159.277 6  -5616232.951 5
  20583694.522     3218055.579 5   2519393.442 8
  18379895.539    -2902164.725 8  -2128924.952 9
  18633211.321   -23514306.139 7 -18190079.083 9
 91  4 18 23 19 45.0160000  0  5 15 13 19 02 06
  21208588.485    -4685613.259 6  -3591460.831 8
  20364660.909    -7694476.488 6  -5666350.052 5
  20589048.276     3246177.349 5   2541306.419 9
  18378169.321    -2911238.001 8  -2135995.031 9
  18626830.734   -23547836.554 7 -18216206.649 9
 91  4 18 23 20  0.1200000  0  5 15 13 19 02 06
  21204147.820    -4708947.650 5  -3609643.394 7
  20352219.883    -7759837.668 6  -5717280.587 6
  20594503.721     3274842.712 5   2563642.975 8
  18376421.242    -2920424.802 8  -2143153.563 9
  18620350.366   -23581893.215 7 -18242744.270 9
 91  4 18 23 20 15.2240000  0  5 15 13 19 02 06
  21199732.980    -4732157.372 6  -3627728.822 7
  20339797.662    -7825125.814 6  -5768154.226 6
  20599965.684     3303574.856 5   2586031.572 8
  18374683.184    -2929560.725 8  -2150272.458 9
  18613880.264   -23615889.864 7 -18269235.131 9
 91  4 18 23 20 30.0720000  0  5 15 13 19 02 06
  21195412.568    -4754847.416 5  -3645409.318 7
  20327597.601    -7889230.928 6  -5818106.032 6
  20605358.245     3331889.779 5   2608095.062 8
  18372983.924    -2938487.550 8  -2157228.413 9
  18607533.551   -23649246.677 7 -18295227.418 9
 91  4 18 23 20 45.1760000  0  5 15 13 19 02 06
  21191046.107    -4777804.673 5  -3663298.020 7
  20315204.515    -7954367.950 6  -5868861.924 6
  20610850.025     3360758.747 5   2630590.260 9
  18371265.489    -2947517.920 8  -2164265.060 9
  18601087.434   -23683118.495 7 -18321621.009 9
 91  4 18 23 21  0.0230000  0  5 15 13 19 02 06
  21186771.010    -4800261.226 5  -3680796.562 7
  20303026.243    -8018338.958 6  -5918709.254 6
  20616258.369     3389192.785 5   2652746.565 8
  18369583.554    -2956356.199 8  -2171152.021 9
  18594760.405   -23716367.376 7 -18347529.197 9
 91  4 18 23 21 15.1260000  0  5 15 13 19 02 06
  20882656.649    -4822985.951 6  -3698504.072 7
  19990868.351    -8083341.459 6  -5969360.300 6
  20321983.709     3418174.097 5   2675329.322 8
  18068088.444    -2965302.819 8  -2178123.407 9
  18288542.240   -23750133.503 7 -18373840.437 9
 91  4 18 23 21 30.2300000  0  5 15 13 19 02 06
  20878352.572    -4845592.976 6  -3716119.863 6
  19978509.077    -8148279.764 6  -6019961.369 6
  20327512.489     3447216.996 5   2697960.052 8
  18066394.015    -2974205.896 8  -2185060.859 9
  18282127.010   -23783846.926 7 -18400110.608 9
 91  4 18 23 21 45.0780000  0  5 15 13 19 02 06
  20874144.650    -4867706.118 6  -3733350.818 6
  19966372.617    -8212055.474 6  -6069656.507 6
  20332954.175     3475820.333 5   2720248.285 8
  18064736.821    -2982920.429 8  -2191851.394 9
  18275828.900   -23816940.617 7 -18425897.865 9
 91  4 18 23 22  0.1820000  0  5 15 13 19 02 06
  20869888.461    -4890077.179 6  -3750782.722 7
  19954042.149    -8276857.390 6  -6120151.285 6
  20338502.159     3504980.652 5   2742970.516 8
  18063058.685    -2991736.961 8  -2198721.410 9
  18269434.900   -23850545.265 7 -18452083.268 9
 91  4 18 23 22 15.0300000  0  5 15 13 19 02 06
  20865728.009    -4911939.171 6  -3767817.981 7
  19941935.435    -8340479.877 6  -6169727.045 6
  20343970.638     3533717.939 5   2765363.118 8
  18061419.571    -3000348.182 8  -2205431.442 9
  18263162.512   -23883512.980 7 -18477772.364 9
 91  4 18 23 22 30.1340000  0  5 15 13 19 02 06
  20861520.966    -4934051.272 6  -3785048.120 7
  19929636.931    -8405122.177 6  -6220097.450 6
  20349541.739     3563017.409 5   2788193.784 8
  18059763.020    -3009056.595 8  -2212217.207 9
  18256790.658   -23916985.870 7 -18503855.099 9
 91  4 18 23 22 45.2380000  0  5 15 13 19 02 06
  20857339.083    -4956039.355 6  -3802181.626 7
  19917347.213    -8469690.094 6  -6270409.910 6
  20355133.628     3592380.116 5   2811073.714 9
  18058114.488    -3017717.353 8  -2218965.841 9
  18250432.545   -23950398.622 7 -18529890.973 9
 91  4 18 23 23  0.0860000  0  5 15 13 19 02 06
  20853245.234    -4977533.032 6  -3818929.879 7
  19905280.297    -8533090.502 6  -6319812.606 6
  20360639.771     3621307.064 5   2833614.100 8
  18056503.701    -3026184.423 8  -2225563.550 9
  18244193.581   -23983185.885 7 -18555439.457 9
 91  4 18 23 23 15.1900000  0  5 15 13 19 02 06
  20849108.655    -4999265.887 6  -3835864.519 7
  19893024.575    -8597501.827 6  -6370003.039 6
  20366250.465     3650803.355 5   2856598.120 8
  18054874.333    -3034742.199 8  -2232231.932 9
  18237859.799   -24016470.318 7 -18581375.352 9
 91  4 18 23 23 30.0380000  0  5 15 13 19 02 06
  20845067.996    -5020500.997 6  -3852411.307 7
  19880989.347    -8660740.195 6  -6419279.479 6
  20371781.625     3679868.938 5   2879246.539 8
  18053284.477    -3043100.769 8  -2238745.090 9
  18231646.465   -24049123.363 7 -18606819.253 9
 91  4 18 23 23 45.1420000  0  5 15 13 19 02 06
  20840981.900    -5041970.543 5  -3869140.765 7
  19868763.259    -8724985.788 6  -6469340.785 7
  20377420.564     3709505.817 5   2902340.103 8
  18051676.815    -3051548.267 8  -2245327.544 9
  18225339.386   -24082270.870 7 -18632648.454 9
 91  4 18 23 24  0.2460000  0  5 15 13 19 02 06
  20836922.732    -5063312.094 6  -3885770.492 7
  19856553.710    -8789152.731 6  -6519340.801 6
  20383074.275     3739208.044 5   2925484.598 8
  18050078.103    -3059945.611 8  -2251870.919 9
  18219043.228   -24115354.298 7 -18658427.718 9
 91  4 18 23 24 15.0940000  0  5 15 13 19 02 06
  20832954.754    -5084156.027 6  -3902012.473 6
  19844567.811    -8852144.204 6  -6568424.874 7
  20388646.466     3768481.286 5   2948294.819 8
  18048519.372    -3068140.981 8  -2258256.907 9
  18212868.701   -24147803.476 7 -18683712.754 9
 91  4 18 23 24 30.1980000  0  5 15 13 19 02 06
  20828943.382    -5105233.677 6  -3918436.553 7
  19832388.111    -8916144.622 6  -6618295.129 7
  20394318.820     3798322.421 5   2971547.551 8
  18046941.662    -3076429.584 8  -2264715.538 9
  18206598.795   -24180749.462 7 -18709384.921 9
 91  4 18 23 24 45.0460000  0  5 15 13 19 02 06
  20825022.589    -5125831.098 6  -3934486.412 6
  19820430.876    -8978984.975 6  -6667261.457 6
  20399920.812     3827718.948 5   2994453.832 8
  18045400.797    -3084531.498 8  -2271028.713 9
  18200447.253   -24213076.201 7 -18734574.551 9
 91  4 18 23 25  0.1500000  0  5 15 13 19 02 06
  20821061.414    -5146661.275 6  -3950717.655 7
  19808277.561    -9042834.394 6  -6717014.044 6
  20405616.119     3857681.583 5   3017801.243 8
  18043840.514    -3092728.695 8  -2277416.123 9
  18194201.353   -24245900.801 7 -18760152.127 9
 91  4 18 23 25 14.9980000  0  5 15 13 19 02 06
  20817189.460    -5167005.969 6  -3966570.604 7
  19796352.842    -9105516.381 6  -6765856.969 6
  20411240.717     3887206.409 5   3040807.506 8
  18042317.404    -3100731.492 8  -2283652.055 9
  18188073.530   -24278098.539 7 -18785241.230 9
 91  4 18 23 25 30.1020000  0  5 15 13 19 02 06
  20813277.625    -5187573.419 6  -3982597.111 6
  19784234.448    -9169199.109 6  -6815479.681 6
  20416968.478     3917304.434 5   3064260.414 8
  18040778.705    -3108822.792 8  -2289956.945 9
  18181854.384   -24310786.250 7 -18810712.133 9
 91  4 18 23 25 45.2060000  0  5 15 13 19 02 06
  20809388.948    -5208009.861 6  -3998521.545 7
  19772130.778    -9232799.015 6  -6865037.869 6
  20422706.832     3947468.681 5   3087764.911 8
  18039247.443    -3116862.627 8  -2296221.734 9
  18175646.270   -24343406.466 7 -18836130.448 9
 91  4 18 23 26  0.0540000  0  5 15 13 19 02 06
  20805590.583    -5227966.917 6  -4014072.444 7
  19760249.371    -9295234.859 6  -6913688.987 7
  20428359.532     3977191.471 5   3110925.430 8
  18037754.100    -3124710.935 8  -2302337.282 9
  18169558.000   -24375402.608 7 -18861062.466 9
 91  4 18 23 26 15.1580000  0  5 15 13 19 02 06
  20801748.517    -5248139.873 6  -4029791.560 7
  19748178.277    -9358666.039 6  -6963115.701 6
  20434129.879     4007490.700 5   3134535.111 8
  18036244.320    -3132645.247 8  -2308519.849 9
  18163376.497   -24407884.545 7 -18886373.032 9
 91  4 18 23 26 30.0060000  0  5 15 13 19 02 06
  20798001.586    -5267841.101 6  -4045143.119 7
  19736329.538    -9420938.566 6  -7011639.556 7
  20439808.423     4037342.675 5   3157796.275 8
  18034770.110    -3140393.123 8  -2314557.154 9
  18157312.846   -24439747.413 7 -18911201.195 9
 91  4 18 23 26 45.1100000  0  5 15 13 19 02 06
  20794211.281    -5287754.874 6  -4060660.290 7
  19724288.630    -9484204.734 6  -7060937.685 7
  20445601.264     4067771.329 5   3181506.807 7
  18033279.770    -3148227.108 8  -2320661.534 9
  18151157.718   -24472094.859 7 -18936406.966 9
 91  4 18 23 27  0.2140000  0  5 15 13 19 02 06
  20790446.892    -5307539.335 6  -4076076.702 7
  19712266.182    -9547389.078 6  -7110172.059 6
  20451397.967     4098262.979 5   3205266.431 7
  18031798.317    -3156012.507 8  -2326728.062 9
  18145014.256   -24504376.057 7 -18961561.099 9
 91  4 18 23 27 15.0620000  0  5 15 13 19 02 06
  20786770.874    -5326857.619 6  -4091129.837 7
  19700463.125    -9609417.434 6  -7158505.666 7
  20457118.761     4128304.065 5   3228674.964 7
  18030350.186    -3163613.979 8  -2332651.277 9
  18138989.576   -24536040.529 7 -18986234.671 9
 91  4 18 23 27 30.1660000  0  5 15 13 19 02 06
  20783057.755    -5346379.798 6  -4106341.860 7
  19688470.801    -9672432.847 6  -7207608.398 6
  20462945.210     4158926.124 5   3252536.197 7
  18028889.204    -3171297.782 8  -2338638.642 9
  18132872.643   -24568184.249 7 -19011281.686 9
 91  4 18 23 27 45.0140000  0  5 15 13 19 02 06
  20779429.187    -5365441.693 6  -4121195.212 7
  19676696.991    -9734296.741 6  -7255813.846 6
  20468685.065     4189093.228 5   3276042.923 8
  18027461.973    -3178801.197 8  -2344485.445 9
  18126872.132   -24599714.890 7 -19035850.979 9
 91  4 18 23 28  0.1180000  0  5 15 13 19 02 06
  20775766.449    -5384699.752 6  -4136201.436 7
  19664738.704    -9797140.971 6  -7304783.194 6
  20474538.288     4219846.193 5   3300006.171 8
  18026018.981    -3186382.415 8  -2350392.874 9
  18120781.575   -24631718.767 7 -19060789.017 9
 91  4 18 23 28 15.2220000  0  5 15 13 19 02 06
  20772127.012    -5403823.929 6  -4151103.318 7
  19652794.739    -9859897.948 6  -7353684.564 7
  20480403.299     4250665.479 5   3324021.093 8
  18024586.029    -3193911.549 8  -2356259.721 9
  18114705.247   -24663651.292 7 -19085671.461 9
 91  4 18 23 28 30.0700000  0  5 15 13 19 02 06
  20768573.536    -5422493.618 6  -4165651.074 7
  19641071.688    -9921506.115 6  -7401690.759 6
  20486180.950     4281026.496 5   3347678.913 7
  18023186.410    -3201262.684 8  -2361987.867 9
  18108744.872   -24694973.276 7 -19110078.158 9
 91  4 18 23 28 45.1740000  0  5 15 13 19 02 06
  20764980.261    -5441354.877 6  -4180348.095 7
  19629162.322    -9984091.997 6  -7450458.803 7
  20492073.153     4311973.830 5   3371793.610 7
  18021773.787    -3208692.065 8  -2367776.985 9
  18102694.725   -24726766.946 7 -19134852.404 9
 91  4 18 23 29  0.0220000  0  5 15 13 19 02 06
  20761478.075    -5459765.928 6  -4194694.309 6
  19617470.254   -10045531.451 6  -7498333.532 6
  20497872.716     4342460.459 5   3395549.314 8
  18020392.719    -3215945.210 8  -2373428.782 9
  18096759.765   -24757951.792 7 -19159152.242 9
 91  4 18 23 29 15.1260000  0  5 15 13 19 02 06
  20757939.329    -5478365.619 6  -4209187.525 7
  19605593.362   -10107946.980 6  -7546968.845 7
  20503787.311     4373533.313 5   3419761.811 7
  18018998.013    -3223276.702 8  -2379141.625 9
  18090736.403   -24789607.294 7 -19183818.824 9
 91  4 18 23 29 30.2300000  0  5 15 13 19 02 06
  20754427.010    -5496839.541 6  -4223582.731 7
  19593731.834   -10170282.595 6  -7595541.872 6
  20509710.660     4404662.958 5   3444018.561 7
  18017610.182    -3230565.345 8  -2384821.078 9
  18084724.697   -24821199.139 7 -19208435.805 9
 91  4 18 23 29 45.0780000  0  5 15 13 19 02 06
  20750992.938    -5514869.434 6  -4237631.940 7
  19582086.255   -10231475.102 6  -7643224.187 6
  20515544.352     4435328.289 5   3467913.511 7
  18016256.786    -3237680.631 8  -2390365.448 9
  18078828.412   -24852185.162 7 -19232580.718 9
 91  4 18 23 30  0.1820000  0  5 15 13 19 02 06
  20747528.273    -5533078.692 6  -4251820.920 7
  19570257.477   -10293635.979 6  -7691661.064 7
  20521491.451     4466585.095 5   3492269.358 7
  18014888.395    -3244869.466 8  -2395967.135 9
  18072844.194   -24883635.151 7 -19257087.168 9
 91  4 18 23 30 15.0300000  0  5 15 13 19 02 06
  20744146.513    -5550850.409 6  -4265668.954 7
  19558645.231   -10354658.658 6  -7739211.048 7
  20527347.840     4497372.897 5   3516259.738 7
  18013553.417    -3251889.118 8  -2401436.990 9
  18066973.130   -24914483.518 7 -19281124.820 9
 91  4 18 23 30 30.1340000  0  5 15 13 19 02 06
  20740729.675    -5568804.777 6  -4279659.306 7
  19546845.331   -10416654.572 6  -7787519.382 7
  20533320.692     4528745.793 5   3540706.034 7
  18012201.513    -3258989.260 8  -2406969.566 9
  18061013.317   -24945801.280 7 -19305528.236 9
 91  4 18 23 30 45.2380000  0  5 15 13 19 02 06
  20737336.802    -5586633.516 6  -4293551.773 7
  19535065.341   -10478569.556 6  -7835764.658 7
  20539302.768     4560173.982 5   3565195.423 7
  18010857.689    -3266047.683 8  -2412469.625 9
  18055065.946   -24977055.007 7 -19329881.754 9
 91  4 18 23 31  0.0860000  0  5 15 13 19 02 06
  20734027.376    -5604026.333 6  -4307104.555 7
  19523498.849   -10539345.004 6  -7883121.999 7
  20545192.193     4591133.982 5   3589319.983 7
  18009547.851    -3272934.939 8  -2417836.310 9
  18049233.659   -25007705.355 7 -19353765.105 9
 91  4 18 23 31 15.1900000  0  5 15 13 19 02 06
  20730684.414    -5621587.656 6  -4320788.651 7
  19511751.537   -10601081.373 6  -7931228.089 7
  20551194.873     4622688.547 5   3613907.837 7
  18008224.140    -3279893.397 8  -2423258.476 9
  18043313.930   -25038813.854 7 -19378005.460 9
 91  4 18 23 31 30.0380000  0  5 15 13 19 02 06
  20727426.422    -5638718.483 6  -4334137.279 7
  19500219.542   -10661681.686 6  -7978448.956 7
  20557111.797     4653771.801 5   3638128.442 8
  18006931.790    -3286683.544 8  -2428549.495 9
  18037507.590   -25069321.974 7 -19401777.984 9
 91  4 18 23 31 45.1420000  0  5 15 13 19 02 06
  20724133.055    -5656018.648 6  -4347617.862 7
  19488505.154   -10723244.884 6  -8026420.121 7
  20563140.536     4685445.958 5   3662809.481 8
  18005625.395    -3293549.015 8  -2433899.207 9
  18031615.115   -25100290.994 7 -19425909.648 9
 91  4 18 23 32  0.2460000  0  5 15 13 19 02 06
  20720867.156    -5673181.938 6  -4360991.788 7
  19476806.863   -10784715.265 6  -8074318.959 7
  20569180.338     4717185.137 5   3687541.183 7
  18004328.530    -3300362.652 8  -2439208.529 9
  18025736.533   -25131184.204 7 -19449982.241 9
 91  4 18 23 32 15.0940000  0  5 15 13 19 02 06
  20717684.143    -5689913.967 6  -4374029.687 7
  19465326.340   -10845046.184 6  -8121329.916 7
  20575129.838     4748456.619 5   3711908.464 7
  18003064.456    -3307003.246 8  -2444383.008 9
  18019972.381   -25161472.825 7 -19473583.732 9
 91  4 18 23 32 30.1980000  0  5 15 13 19 02 06
  20714467.849    -5706804.653 6  -4387191.206 7
  19453665.428   -10906330.577 6  -8169083.843 6
  20581198.814     4780325.554 5   3736741.285 7
  18001788.399    -3313712.894 8  -2449611.303 9
  18014122.105   -25192213.974 7 -19497537.845 9
 91  4 18 23 32 45.0460000  0  5 15 13 19 02 06
  20711335.370    -5723278.343 6  -4400027.782 7
  19442214.816   -10966487.810 6  -8215959.450 7
  20587169.214     4811714.327 5   3761199.957 7
  18000541.925    -3320261.484 8  -2454714.096 9
  18008385.882   -25222362.531 7 -19521030.202 9
 91  4 18 23 33  0.1500000  0  5 15 13 19 02 06
  20708170.009    -5739904.590 6  -4412983.252 7
  19430588.411   -11027593.801 6  -8263574.361 7
  20593259.744     4843703.525 5   3786126.495 7
  17999283.796    -3326876.648 8  -2459868.760 9
  18002562.901   -25252959.632 7 -19544872.063 9
 91  4 18 23 33 14.9980000  0  5 15 13 19 02 06
  20705084.694    -5756111.846 5  -4425612.245 7
  19419174.390   -11087569.066 6  -8310308.171 7
  20599259.042     4875216.320 5   3810681.816 7
  17998055.649    -3333326.298 8  -2464894.456 9
  17996853.870   -25282959.928 7 -19568248.891 9
 91  4 18 23 33 30.1020000  0  5 15 13 19 02 06
  20701974.536    -5772464.807 6  -4438354.764 7
  19407583.227   -11148487.292 6  -8357776.759 7
  20605367.479     4907333.234 5   3835707.869 7
  17996816.857    -3339839.073 8  -2469969.344 9
  17991060.677   -25313403.776 7 -19591971.345 9
 91  4 18 23 33 45.2060000  0  5 15 13 19 02 06
  20698888.762    -5788682.598 6  -4450991.933 7
  19396008.368   -11209313.163 6  -8405173.380 7
  20611488.573     4939511.637 5   3860781.841 7
  17995586.820    -3346303.101 8  -2475006.247 9
  17985282.239   -25343772.694 7 -19615635.407 9
 91  4 18 23 34  0.0540000  0  5 15 13 19 02 06
  20695879.938    -5804493.284 6  -4463311.900 7
  19384647.078   -11269017.417 6  -8451696.034 7
  20617517.506     4971204.576 4   3885477.532 8
  17994385.824    -3352609.906 8  -2479920.637 9
  17979614.865   -25373553.389 7 -19638841.115 9
 91  4 18 23 34 15.1580000  0  5 15 13 19 02 06
  20692845.086    -5820439.910 6  -4475737.775 6
  19373106.624   -11329656.461 6  -8498947.076 7
  20623665.986     5003506.954 5   3910648.100 7
  17993174.613    -3358974.714 8  -2484880.219 9
  17973864.554   -25403770.415 7 -19662386.821 9
 91  4 18 23 34 30.0060000  0  5 15 13 19 02 06
  20689886.633    -5835990.548 6  -4487855.087 6
  19361779.442   -11389183.319 6  -8545331.481 7
  20629715.369     5035314.812 4   3935433.342 7
  17991991.525    -3365190.581 8  -2489723.746 9
  17968224.679   -25433407.974 7 -19685480.991 9
 91  4 18 23 34 45.1100000  0  5 15 13 19 02 06
  20686900.099    -5851672.258 6  -4500074.540 6
  19350275.671   -11449641.239 6  -8592441.392 7
  20635887.140     5067733.728 4   3960694.712 8
  17990798.415    -3371463.006 8  -2494611.341 9
  17962502.082   -25463478.864 7 -19708912.833 9
 91  4 18 23 35  0.2140000  0  5 15 13 19 02 06
  20683944.334    -5867219.887 6  -4512189.510 6
  19338786.630   -11510007.123 6  -8639479.578 7
  20642064.948     5100211.651 4   3986002.085 7
  17989613.856    -3377688.604 8  -2499462.451 9
  17956795.175   -25493475.361 7 -19732286.693 9
 91  4 18 23 35 15.0620000  0  5 15 13 19 02 06
  20681058.223    -5882380.160 6  -4524002.650 7
  19327510.249   -11569266.545 6  -8685655.606 7
  20648153.190     5132189.655 4   4010919.906 7
  17988455.948    -3383770.026 8  -2504201.220 9
  17951196.131   -25522897.598 7 -19755213.084 9
 91  4 18 23 35 30.1660000  0  5 15 13 19 02 06
  20678149.792    -5897666.927 6  -4535914.361 6
  19316058.473   -11629453.960 6  -8732554.732 7
  20654352.919     5164778.841 4   4036313.964 8
  17987288.075    -3389908.361 8  -2508984.338 9
  17945514.344   -25552751.140 7 -19778475.560 9
 91  4 18 23 35 45.0140000  0  5 15 13 19 02 06
  20675314.257    -5912568.721 6  -4547526.117 7
  19304813.657   -11688535.723 6  -8778592.322 7
  20660459.966     5196867.618 4   4061318.107 7
  17986147.747    -3395902.400 8  -2513655.021 9
  17939942.502   -25582030.640 7 -19801290.732 9
 91  4 18 23 36  0.1180000  0  5 15 13 19 02 06
  20672452.663    -5927599.061 6  -4559238.026 7
  19293392.537   -11748548.451 6  -8825355.325 7
  20666688.053     5229562.379 5   4086794.443 7
  17984995.395    -3401958.704 8  -2518374.231 9
  17934287.570   -25611745.176 7 -19824444.889 9
 91  4 18 23 36 15.2220000  0  5 15 13 19 02 06
  20669613.031    -5942496.883 6  -4570846.688 7
  19281992.399   -11808470.083 6  -8872047.354 7
  20672914.373     5262313.218 4   4112314.468 7
  17983851.185    -3407970.910 8  -2523059.049 9
  17928648.043   -25641386.244 7 -19847541.798 9
 91  4 18 23 36 30.0700000  0  5 15 13 19 02 06
  20666856.735    -5957010.587 6  -4582156.029 7
  19270797.341   -11867284.594 6  -8917876.671 7
  20679054.609     5294565.729 4   4137446.184 7
  17982735.107    -3413835.760 8  -2527629.064 9
  17923117.155   -25670450.875 7 -19870189.537 9
 91  4 18 23 36 45.1740000  0  5 15 13 19 02 06
  20664070.264    -5971644.628 6  -4593559.143 7
  19259431.956   -11927023.518 6  -8964426.319 7
  20685309.521     5327427.712 4   4163052.815 7
  17981608.488    -3419759.621 8  -2532245.061 9
  17917503.349   -25699945.102 7 -19893172.023 9
 91  4 18 23 37  0.0220000  0  5 15 13 19 02 06
  20661359.118    -5985897.183 6  -4604664.985 7
  19248273.438   -11985655.554 6  -9010113.461 7
  20691464.647     5359790.998 4   4188270.837 8
  17980509.296    -3425535.987 8  -2536746.118 9
  17912001.400   -25728862.948 7 -19915705.384 9
 91  4 18 23 37 15.1260000  0  5 15 13 19 02 06
  20658624.775    -6000260.975 6  -4615857.496 6
  19236941.742   -12045203.804 6  -9056514.534 7
  20697739.673     5392769.922 4   4213968.590 7
  17979399.868    -3431365.524 8  -2541288.614 9
  17906419.058   -25758202.759 7 -19938567.545 9
 91  4 18 23 37 30.2300000  0  5 15 13 19 02 06
  20655915.530    -6014498.359 6  -4626951.508 7
  19225626.268   -12104665.706 6  -9102848.334 8
  20704025.915     5425797.429 4   4239704.201 8
  17978297.050    -3437157.596 8  -2545801.920 9
  17900848.166   -25787474.559 7 -19961376.715 9
 91  4 18 23 37 45.0780000  0  5 15 13 19 02 06
  20653277.229    -6028357.425 6  -4637750.717 7
  19214522.106   -12163021.709 6  -9148320.395 7
  20710219.557     5458326.083 5   4265051.089 7
  17977223.161    -3442801.500 8  -2550199.767 9
  17895387.936   -25816170.058 7 -19983736.822 9
 91  4 18 23 38  0.1820000  0  5 15 13 19 02 06
  20650625.812    -6042323.089 6  -4648632.998 7
  19203242.610   -12222291.019 6  -9194504.127 7
  20716529.406     5491470.422 4   4290877.739 7
  17976139.404    -3448498.977 8  -2554639.356 9
  17889847.373   -25845285.488 7 -20006424.141 9
 91  4 18 23 38 15.0300000  0  5 15 13 19 02 06
  20648036.585    -6055917.552 6  -4659226.036 7
  19192172.688   -12280460.056 6  -9239830.493 7
  20722735.612     5524110.909 4   4316311.778 6
  17975082.278    -3454052.741 8  -2558966.963 9
  17884415.541   -25873829.382 7 -20028666.121 9
 91  4 18 23 38 30.1340000  0  5 15 13 19 02 06
  20645425.487    -6069612.537 6  -4669897.392 7
  19180930.762   -12339537.097 6  -9285864.399 7
  20729066.454     5557369.882 5   4342227.738 7
  17974015.591    -3459657.442 8  -2563334.260 9
  17878904.593   -25902788.881 7 -20051231.934 9
 91  4 18 23 38 45.2380000  0  5 15 13 19 02 06
  20642846.026    -6083177.891 6  -4680467.770 7
  19169705.722   -12398523.779 6  -9331827.902 7
  20735404.670     5590679.336 4   4368183.043 7
  17972956.739    -3465222.461 8  -2567670.635 9
  17873406.852   -25931676.394 7 -20073741.658 9
 91  4 18 23 39  0.0860000  0  5 15 13 19 02 06
  20640331.451    -6096384.302 6  -4690758.441 7
  19158689.563   -12456419.656 6  -9376941.434 7
  20741641.981     5623476.012 5   4393738.773 7
  17971923.557    -3470651.859 8  -2571901.337 9
  17868016.770   -25960001.284 7 -20095812.974 9
 91  4 18 23 39 15.1900000  0  5 15 13 19 02 06
  20637803.259    -6109677.790 6  -4701116.977 7
  19147500.726   -12515211.253 6  -9422752.911 7
  20748002.120     5656899.840 4   4419783.188 7
  17970881.928    -3476123.472 8  -2576164.933 9
  17862549.276   -25988730.653 7 -20118199.462 9
 91  4 18 23 39 30.0380000  0  5 15 13 19 02 06
  20635340.639    -6122614.468 6  -4711197.455 7
  19136520.268   -12572912.194 6  -9467714.554 8
  20754270.444     5689810.915 4   4445428.076 7
  17969867.767    -3481458.776 8  -2580322.314 9
  17857189.778   -26016897.254 7 -20140147.446 9
 91  4 18 23 39 45.1420000  0  5 15 13 19 02 06
  20632864.055    -6135644.930 6  -4721351.042 7
  19125369.605   -12631517.078 6  -9513380.547 8
  20760654.843     5723339.081 5   4471553.790 7
  17968842.594    -3486846.534 8  -2584520.559 9
  17851751.368   -26045476.854 7 -20162417.236 9
 91  4 18 23 40  0.2460000  0  5 15 13 19 02 06
  20630406.767    -6148546.168 6  -4731403.916 7
  19114233.969   -12690030.951 6  -9558975.634 8
  20767039.589     5756916.324 5   4497717.752 6
  17967824.990    -3492195.422 8  -2588688.535 9
  17846326.809   -26073984.054 7 -20184630.621 9
 91  4 18 23 40 15.0940000  0  5 15 13 19 02 06
  20628016.572    -6161099.061 6  -4741185.352 7
  19103302.412   -12747460.423 6  -9603725.732 7
  20773328.558     5789975.599 4   4523478.104 7
  17966830.483    -3497412.514 8  -2592753.800 9
  17841008.784   -26101933.680 7 -20206409.525 9
 91  4 18 23 40 30.1980000  0  5 15 13 19 02 06
  20625615.855    -6173736.041 6  -4751032.325 7
  19092204.971   -12805785.076 6  -9649173.370 7
  20779736.227     5823656.952 4   4549723.197 6
  17965828.856    -3502677.338 8  -2596856.256 9
  17835613.022   -26130288.895 7 -20228504.480 9
 91  4 18 23 40 45.0460000  0  5 15 13 19 02 06
  20623276.277    -6186023.082 6  -4760606.592 6
  19081313.600   -12863021.951 6  -9693773.395 7
  20786052.502     5856824.322 5   4575567.787 7
  17964853.288    -3507805.695 8  -2600852.376 9
  17830323.252   -26158082.625 7 -20250161.908 9
 91  4 18 23 41  0.1500000  0  5 15 13 19 02 06
  20620918.158    -6198392.498 5  -4770245.083 7
  19070252.198   -12921153.330 6  -9739070.427 7
  20792479.968     5890612.452 4   4601896.053 6
  17963868.312    -3512983.465 8  -2604886.997 9
  17824956.573   -26186281.832 7 -20272135.293 9
 91  4 18 23 41 14.9980000  0  5 15 13 19 02 06
  20618632.219    -6210425.948 6  -4779621.765 7
  19059394.609   -12978209.077 6  -9783529.317 7
  20798812.136     5923874.807 5   4627814.656 7
  17962906.994    -3518036.055 8  -2608824.084 9
  17819695.518   -26213931.259 7 -20293680.274 9
 91  4 18 23 41 30.1020000  0  5 15 13 19 02 06
  20616326.371    -6222536.942 6  -4789058.859 7
  19048368.143   -13036155.233 6  -9828682.023 7
  20805256.038     5957759.632 4   4654218.290 7
  17961935.655    -3523136.256 8  -2612798.262 9
  17814357.615   -26241982.779 7 -20315538.579 9
 91  4 18 23 41 45.2060000  0  5 15 13 19 02 06
  20614049.677    -6234514.149 6  -4798391.721 7
  19037360.729   -13094004.636 6  -9873759.344 7
  20811717.153     5991696.079 4   4680662.154 6
  17960972.928    -3528194.410 8  -2616739.676 9
  17809034.902   -26269956.354 7 -20337336.141 9
 91  4 18 23 42  0.0540000  0  5 15 13 19 02 06
  20611830.331    -6246161.616 6  -4807467.631 7
  19026554.829   -13150782.642 6  -9918001.819 7
  20818076.484     6025103.638 4   4706693.882 6
  17960035.074    -3533129.792 8  -2620585.432 9
  17803815.096   -26297383.407 7 -20358707.853 9
 91  4 18 23 42 15.1580000  0  5 15 13 19 02 06
  20609602.915    -6257877.735 6  -4816597.046 7
  19015581.268   -13208443.332 6  -9962932.089 7
  20824547.864     6059137.575 4   4733213.712 7
  17959087.199    -3538108.941 8  -2624465.285 9
  17798520.188   -26325205.924 7 -20380387.707 9
 91  4 18 23 42 30.0060000  0  5 15 13 19 02 06
  20607438.281    -6269267.657 6  -4825472.275 7
  19004813.113   -13265034.167 6 -10007028.711 7
  20830922.896     6092641.693 4   4759320.690 6
  17958162.421    -3542965.529 8  -2628249.642 9
  17793329.680   -26352482.921 7 -20401642.482 9
 91  4 18 23 42 45.1100000  0  5 15 13 19 02 06
  20605257.702    -6280715.321 6  -4834392.519 7
  18993877.777   -13322497.595 6 -10051805.270 8
  20837422.491     6126779.814 4   4785921.699 7
  17957232.269    -3547858.529 8  -2632062.368 9
  17788066.613   -26380146.032 7 -20423198.132 9
 91  4 18 23 43  0.2140000  0  5 15 13 19 02 06
  20603101.526    -6292030.253 6  -4843209.319 7
  18982959.889   -13379864.174 6 -10096506.358 8
  20843927.019     6160967.416 4   4812561.271 7
  17956308.972    -3552711.097 8  -2635843.603 9
  17782816.591   -26407731.359 7 -20444693.163 9
 91  4 18 23 43 15.0620000  0  5 15 13 19 02 06
  20601007.694    -6303026.001 5  -4851777.417 7
  18972248.255   -13436165.428 6 -10140377.339 7
  20850336.496     6194621.650 4   4838785.217 7
  17955407.975    -3557443.870 8  -2639531.466 9
  17777670.559   -26434774.879 7 -20465766.008 9
 91  4 18 23 43 30.1660000  0  5 15 13 19 02 06
  20598905.076    -6314071.140 5  -4860384.011 7
  18961369.481   -13493332.368 6 -10184922.865 7
  20856853.640     6228913.224 4   4865505.791 7
  17954501.237    -3562209.789 8  -2643245.170 9
  17772452.184   -26462198.609 7 -20487135.123 9
 91  4 18 23 43 45.0140000  0  5 15 13 19 02 06
  20596864.822    -6324794.787 6  -4868740.080 7
  18950693.356   -13549430.323 6 -10228635.439 8
  20863278.103     6262676.120 3   4891814.413 6
  17953617.881    -3566850.670 8  -2646861.442 9
  17767336.113   -26489076.069 7 -20508078.566 9
 91  4 18 23 44  0.1180000  0  5 15 13 19 02 06
  20594814.588    -6335574.767 6  -4877140.044 6
  18939852.960   -13606401.471 6 -10273028.408 7
  20869821.275     6297066.212 4   4918611.756 6
  17952726.792    -3571534.819 8  -2650511.424 9
  17762148.853   -26516342.009 7 -20529324.725 9
 91  4 18 23 44 15.2220000  0  5 15 13 19 02 06
  20592792.691    -6346214.622 6  -4885430.815 6
  18929031.248   -13663267.299 6 -10317339.319 8
  20876377.646     6331511.975 4   4945452.466 7
  17951845.101    -3576171.798 8  -2654124.648 9
  17756976.242   -26543521.859 7 -20550503.798 9
 91  4 18 23 44 30.0700000  0  5 15 13 19 02 06
  20590829.010    -6356541.199 6  -4893477.469 7
  18918412.103   -13719070.161 6 -10360821.935 8
  20882831.824     6365424.330 4   4971877.556 6
  17950983.422    -3580687.752 8  -2657643.574 9
  17751907.284   -26570160.515 7 -20571261.166 9
 91  4 18 23 44 45.1740000  0  5 15 13 19 02 06
  20588854.399    -6366912.627 6  -4901559.060 7
  18907630.761   -13775736.041 6 -10404977.032 8
  20889409.043     6399970.436 3   4998796.461 7
  17950118.024    -3585240.605 8  -2661191.250 9
  17746766.013   -26597178.276 7 -20592313.937 9
 91  4 18 23 45  0.0220000  0  5 15 13 19 02 06
  20586938.372    -6376975.990 6  -4909400.603 7
  18897046.205   -13831342.423 6 -10448306.556 8
  20895887.676     6433980.404 4   5025297.600 7
  17949274.773    -3589674.653 8  -2664646.348 9
  17741727.853   -26623657.905 7 -20612947.384 9
 91  4 18 23 45 15.1260000  0  4 15 19 02 06
  20585017.983    -6387074.758 6  -4917269.743 7
  20902473.282     6468630.569 3   5052297.598 7
  17948424.852    -3594139.232 8  -2668125.236 9
  17736616.145   -26650508.296 7 -20633869.734 9
 91  4 18 23 45 30.2300000  0  5 15 13 19 02 06
  20583125.481    -6397034.797 6  -4925030.792 7
  18875578.917   -13944158.123 6 -10536214.631 8
  20909077.684     6503333.891 3   5079338.993 6
  17947583.061    -3598558.414 8  -2671568.749 9
  17731525.000   -26677273.034 7 -20654725.347 9
 91  4 18 23 45 45.0780000  0  5 15 13 19 02 06
  20581278.273    -6406692.117 5  -4932555.968 7
  18865056.284   -13999457.167 6 -10579304.673 8
  20915577.074     6537499.097 3   5105961.099 7
  17946765.082    -3602860.020 8  -2674920.649 9
  17726532.717   -26703501.760 7 -20675163.282 9
 91  4 18 23 46  0.1820000  0  5 15 13 19 02 06
  20579437.277    -6416376.710 5  -4940102.393 7
  18854372.455   -14055603.405 6 -10623054.852 8
  20922202.417     6572307.148 3   5133084.125 7
  17945940.678    -3607189.421 8  -2678294.204 9
  17721471.808   -26730095.791 7 -20695885.880 9
 91  4 18 23 46 15.0300000  0  5 15 13 19 02 06
  20577655.293    -6425768.587 6  -4947420.742 7
  18843887.997   -14110701.314 6 -10665988.171 8
  20928722.830     6606569.772 3   5159782.119 7
  17945137.103    -3611407.928 8  -2681581.347 9
  17716512.510   -26756161.462 7 -20716196.763 9
 91  4 18 23 46 30.1340000  0  5 15 13 19 02 06
  20575858.456    -6435185.876 6  -4954758.871 7
  18833241.025   -14166645.268 6 -10709580.721 8
  20935366.182     6641473.921 3   5186980.009 7
  17944329.952    -3615655.525 8  -2684891.158 9
  17711482.053   -26782591.744 7 -20736791.763 9
 91  4 18 23 46 45.2380000  0  5 15 13 19 02 06
  20574095.013    -6444470.239 6  -4961993.425 7
  18822613.840   -14222489.013 6 -10753095.206 8
  20942017.481     6676424.130 3   5214213.794 7
  17943529.635    -3619864.118 8  -2688170.575 9
  17706468.360   -26808941.085 7 -20757323.694 9
 91  4 18 23 47  0.0860000  0  5 15 13 19 02 06
  20572384.647    -6453464.742 6  -4969002.106 7
  18812185.954   -14277285.284 6 -10795793.470 8
  20948563.973     6710830.026 3   5241023.442 6
  17942749.289    -3623960.091 8  -2691362.242 9
  17701555.643   -26834761.752 7 -20777443.673 9
 91  4 18 23 47 15.1900000  0  5 15 13 19 02 06
  20570671.626    -6462469.174 6  -4976018.500 6
  18801600.876   -14332913.086 6 -10839139.673 8
  20955236.428     6745887.891 3   5268341.117 7
  17941966.338    -3628074.771 8  -2694568.483 9
  17696575.383   -26860933.782 7 -20797837.442 9
 91  4 18 23 47 30.0380000  0  5 15 13 19 02 06
  20569008.199    -6471188.265 6  -4982812.558 7
  18791215.505   -14387496.194 6 -10881671.842 8
  20961804.177     6780399.093 3   5295232.820 7
  17941204.522    -3632078.572 8  -2697688.325 9
  17691694.793   -26886579.468 7 -20817821.072 9
 91  4 18 23 47 45.1420000  0  5 15 13 19 02 06
  20567347.194    -6479922.792 6  -4989618.655 7
  18780667.325   -14442916.788 6 -10924856.590 8
  20968493.671     6815553.447 3   5322625.680 7
  17940438.508    -3636109.862 8  -2700829.586 9
  17686744.740   -26912583.248 7 -20838083.733 9
 91  4 18 23 48  0.2460000  0  5 15 13 19 02 06
  20565709.152    -6488518.822 5  -4996316.819 7
  18770140.995   -14498230.429 6 -10967958.008 8
  20975186.740     6850758.528 3   5350058.050 7
  17939679.542    -3640096.956 8  -2703936.413 9
  17681813.860   -26938499.580 7 -20858278.269 9
 91  4 18 23 48 15.0940000  0  5 15 13 19 02 06
  20564129.112    -6496830.895 5  -5002793.777 7
  18759814.555   -14552498.952 6 -11010245.038 8
  20981790.529     6885419.359 3   5377066.344 6
  17938942.681    -3643970.243 8  -2706954.559 9
  17676981.903   -26963887.969 7 -20878061.413 9
 91  4 18 23 48 30.1980000  0  5 15 13 19 02 06
  20562548.458    -6505156.894 6  -5009281.561 7
  18749328.259   -14607604.604 6 -11053184.374 8
  20988507.813     6920719.692 3   5404572.948 6
  17938198.599    -3647874.640 8  -2709996.948 9
  17672084.141   -26989634.930 7 -20898123.964 9
 91  4 18 23 48 45.0460000  0  5 15 13 19 02 06
  20561014.213    -6513201.726 6  -5015550.243 7
  18739041.373   -14661666.124 6 -11095310.112 8
  20995119.366     6955475.538 3   5431655.272 7
  17937478.522    -3651664.939 8  -2712950.434 9
  17667284.300   -27014854.559 7 -20917775.614 9
 91  4 18 23 49  0.1500000  0  5 15 13 19 02 06
  20559481.805    -6521248.965 6  -5021820.821 7
  18728596.050   -14716553.332 6 -11138079.232 8
  21001857.545     6990879.122 3   5459242.315 7
  17936753.491    -3655477.942 8  -2715921.608 9
  17662419.042   -27040422.287 7 -20937698.503 9
 91  4 18 23 49 14.9980000  0  5 15 13 19 02 06
  20558004.305    -6529028.450 6  -5027882.742 7
  18718346.827   -14770408.822 6 -11180044.416 8
  21008487.557     7025727.238 4   5486396.554 6
  17936045.856    -3659187.272 8  -2718812.000 9
  17657651.697   -27065474.083 7 -20957219.371 9
 91  4 18 23 49 30.1020000  0  5 15 13 19 02 06
  20556526.876    -6536800.927 6  -5033939.177 7
  18707942.395   -14825081.801 6 -11222646.616 8
  21015241.416     7061228.981 3   5514060.096 7
  17935337.220    -3662913.416 8  -2721715.494 9
  17652820.128   -27090865.949 7 -20977005.228 9
 91  4 18 23 49 45.2060000  0  5 15 13 19 02 06
  20555070.378    -6544434.736 6  -5039887.585 7
  18697559.937   -14879645.854 6 -11265163.928 8
  21022008.872     7096780.287 3   5541762.277 6
  17934636.532    -3666595.509 8  -2724584.664 9
  17648004.884   -27116168.491 7 -20996721.481 9
 91  4 18 23 50  0.0540000  0  5 15 13 19 02 06
  20553667.887    -6551808.320 6  -5045633.222 7
  18687371.464   -14933183.360 6 -11306881.348 8
  21028666.832     7131772.609 4   5569028.864 6
  17933955.579    -3670176.790 8  -2727375.278 9
  17643287.991   -27140959.492 7 -21016039.128 9
 91  4 18 23 50 15.1580000  0  5 15 13 19 02 06
  20552266.622    -6559163.150 6  -5051364.218 7
  18677030.060   -14987527.295 6 -11349227.149 8
  21035451.970     7167425.342 3   5596810.067 7
  17933272.052    -3673767.982 8  -2730173.621 9
  17638506.610   -27166080.616 7 -21035614.014 9
 91  4 18 23 50 30.0060000  0  5 15 13 19 02 06
  20550915.667    -6566263.423 6  -5056896.880 6
  18666883.848   -15040848.913 6 -11390776.342 9
  21042132.557     7202516.068 4   5624153.348 6
  17932607.260    -3677260.928 8  -2732895.399 9
  17633823.080   -27190693.639 7 -21054792.988 9
 91  4 18 23 50 45.1100000  0  5 15 13 19 02 06
  20549571.546    -6573349.523 6  -5062418.518 7
  18656583.530   -15094982.125 6 -11432957.938 8
  21048932.170     7238259.008 3   5652004.840 6
  17931938.708    -3680771.701 8  -2735631.070 9
  17629075.123   -27215642.651 7 -21074233.752 9
 91  4 18 23 51  0.2140000  0  5 15 13 19 02 06
  20548246.150    -6580293.954 6  -5067829.744 7
  18646303.019   -15149002.343 6 -11475051.492 8
  21055742.141     7274053.309 3   5679896.334 6
  17931279.351    -3684235.820 8  -2738330.397 9
  17624345.666   -27240498.401 7 -21093601.853 9
 91  4 18 23 51 15.0620000  0  5 15 13 19 02 06
  20546971.522    -6586989.241 6  -5073046.838 7
  18636217.638   -15202003.544 6 -11516351.005 8
  21062447.570     7309284.189 3   5707348.835 6
  17930639.289    -3687602.614 8  -2740953.890 9
  17619712.026   -27264848.434 7 -21112575.888 9
 91  4 18 23 51 30.1660000  0  5 15 13 19 02 06
  20545704.444    -6593655.782 6  -5078241.526 7
  18625978.714   -15255802.511 6 -11558272.159 9
  21069276.256     7345176.857 3   5735316.996 6
  17929998.134    -3690977.607 8  -2743583.762 9
  17615016.790   -27289521.592 7 -21131801.711 9
 91  4 18 23 51 45.0140000  0  5 15 13 19 02 06
  20544481.832    -6600072.336 6  -5083241.420 7
  18615937.167   -15308580.270 7 -11599397.577 8
  21075998.908     7380509.361 3   5762848.672 6
  17929373.968    -3694251.575 8  -2746134.916 9
  17610419.210   -27313686.303 7 -21150631.343 9
 91  4 18 23 52  0.1180000  0  5 15 13 19 02 06
  20543268.015    -6606462.350 6  -5088220.639 7
  18605740.962   -15362158.427 7 -11641146.670 9
  21082853.815     7416497.999 3   5790891.608 6
  17928748.861    -3697539.363 8  -2748696.843 9
  17605758.695   -27338177.615 7 -21169715.462 9
 91  4 18 23 52 15.2220000  0  5 15 13 19 02 06
  20542075.947    -6612715.992 6  -5093093.592 7
  18595565.055   -15415627.876 7 -11682811.056 9
  21089707.742     7452531.588 3   5818969.573 7
  17928131.018    -3700786.123 8  -2751226.794 9
  17601113.615   -27362579.807 7 -21188730.139 9
 91  4 18 23 52 30.0700000  0  5 15 13 19 02 06
  20540932.870    -6618723.517 6  -5097774.775 7
  18585585.542   -15468077.775 7 -11723680.987 8
  21096458.823     7488005.419 3   5846611.378 6
  17927532.042    -3703930.859 8  -2753677.245 9
  17596567.735   -27386474.185 7 -21207349.119 9
 91  4 18 23 52 45.1740000  0  5 15 13 19 02 06
  20539796.607    -6624695.650 6  -5102428.365 7
  18575452.957   -15521319.730 7 -11765168.099 8
  21103336.204     7524139.385 3   5874767.557 6
  17926931.738    -3707084.997 8  -2756135.019 9
  17591959.991   -27410687.566 7 -21226216.683 9
 91  4 18 23 53  0.0220000  0  5 15 13 19 02 06
  20538708.794    -6630434.262 5  -5106900.007 7
  18565512.692   -15573553.198 7 -11805869.380 9
  21110097.765     7559703.589 3   5902479.776 6
  17926348.472    -3710146.467 8  -2758520.589 9
  17587446.513   -27434403.667 7 -21244696.729 9
 91  4 18 23 53 15.1260000  0  5 15 13 19 02 06
  20537618.796    -6636132.837 5  -5111340.434 7
  18555423.021   -15626574.931 7 -11847184.886 9
  21116994.156     7595928.540 3   5930706.854 6
  17925764.952    -3713216.556 8  -2760912.875 9
  17582873.706   -27458435.748 7 -21263423.009 9
 91  4 18 23 53 30.2300000  0  5 15 13 19 02 06
  20536561.598    -6641692.847 6  -5115672.895 6
  18545354.055   -15679484.563 7 -11888413.054 9
  21123898.229     7632199.883 3   5958970.087 6
  17925189.103    -3716243.711 8  -2763271.701 9
  17578317.784   -27482375.443 7 -21282077.288 9
 91  4 18 23 53 45.0780000  0  5 15 13 19 02 06
  20535551.267    -6647025.095 6  -5119827.876 6
  18535477.350   -15731389.443 7 -11928858.296 9
  21130696.636     7667900.009 3   5986788.184 5
  17924631.467    -3719179.270 8  -2765559.155 9
  17573856.516   -27505820.575 7 -21300346.206 9
 91  4 18 23 54  0.1820000  0  5 15 13 19 02 06
  20534540.589    -6652308.863 6  -5123945.057 7
  18525451.135   -15784074.581 7 -11969911.520 9
  21137612.222     7704264.334 3   6015123.889 5
  17924071.340    -3722119.827 8  -2767850.505 9
  17569336.020   -27529574.606 7 -21318855.822 9
 91  4 18 23 54 15.0300000  0  5 15 13 19 02 06
  20533582.581    -6657369.239 6  -5127888.193 7
  18515616.690   -15835758.135 7 -12010184.291 9
  21144420.323     7740055.582 3   6043013.016 6
  17923528.547    -3724970.128 8  -2770071.529 9
  17564910.137   -27552836.490 7 -21336981.946 9
 91  4 18 23 54 30.1340000  0  5 15 13 19 02 06
  20532629.823    -6662376.641 6  -5131790.038 7
  18505632.991   -15888218.004 7 -12051061.987 9
  21151359.709     7776511.594 3   6071420.139 5
  17922984.875    -3727824.491 8  -2772295.714 9
  17560424.802   -27576404.090 7 -21355346.293 9
 91  4 18 23 54 45.2380000  0  5 15 13 19 02 06
  20531698.997    -6667247.035 6  -5135585.140 8
  18495672.655   -15940566.144 7 -12091852.618 9
  21158312.263     7813011.387 3   6099861.393 6
  17922451.225    -3730637.800 8  -2774487.910 9
  17555958.171   -27599879.744 7 -21373638.992 9
 91  4 18 23 55  0.0860000  0  5 15 13 19 02 06
  20530815.978    -6671901.320 5  -5139211.854 7
  18485899.235   -15991918.004 7 -12131866.927 9
  21165143.420     7848935.132 3   6127853.738 6
  17921932.305    -3733363.130 8  -2776611.552 9
  17551583.313   -27622867.484 7 -21391551.499 9
 91  4 18 23 55 15.1900000  0  5 15 13 19 02 06
  20529942.847    -6676499.200 5  -5142794.606 8
  18475980.301   -16044043.446 7 -12172484.031 9
  21172101.510     7885522.189 3   6156362.962 6
  17921410.985    -3736093.805 8  -2778739.353 9
  17547151.526   -27646158.871 7 -21409700.611 9
 91  4 18 23 55 30.0380000  0  5 15 13 19 02 06
  20529105.663    -6680886.329 6  -5146213.144 7
  18466251.818   -16095176.490 7 -12212327.839 9
  21178953.905     7921530.731 3   6184421.397 6
  17920907.694    -3738738.743 8  -2780800.345 9
  17542811.625   -27668965.552 7 -21427472.027 9
 91  4 18 23 55 45.1420000  0  5 15 13 19 02 06
  20528279.348    -6685219.676 5  -5149589.760 7
  18456372.938   -16147086.060 7 -12252776.732 8
  21185933.590     7958196.450 3   6212991.916 6
  17920403.648    -3741394.989 8  -2782870.148 9
  17538412.598   -27692079.771 7 -21445483.090 9
 91  4 18 23 56  0.2460000  0  5 15 13 19 02 06
  20527484.895    -6689413.236 6  -5152857.462 7
  18446515.999   -16198880.029 7 -12293135.532 9
  21192920.180     7994907.726 3   6241597.942 6
  17919905.556    -3744007.264 8  -2784905.696 9
  17534032.142   -27715097.960 7 -21463419.320 9
 91  4 18 23 56 15.0940000  0  5 15 13 19 02 06
  20526724.529    -6693394.401 6  -5155959.627 7
  18436850.228   -16249678.301 7 -12332718.476 9
  21199798.245     8031046.297 2   6269757.702 5
  17919426.057    -3746527.509 8  -2786869.520 9
  17529744.328   -27737626.928 7 -21480974.348 9
 91  4 18 23 56 30.1980000  0  5 15 13 19 02 06
  20525981.560    -6697307.943 6  -5159009.111 7
  18427038.267   -16301239.927 7 -12372896.244 9
  21206804.785     8067850.334 3   6298435.991 5
  17918946.118    -3749050.312 8  -2788835.343 9
  17525401.474   -27760451.128 7 -21498759.419 9
 91  4 18 23 56 45.0460000  0  5 15 13 19 02 06
  20525278.869    -6701018.866 6  -5161900.710 7
  18417414.552   -16351814.311 7 -12412304.735 9
  21213691.257     8104074.474 3   6326662.430 6
  17918482.482    -3751487.660 8  -2790734.578 9
  17521149.157   -27782794.208 7 -21516169.595 9
 91  4 18 23 57  0.1500000  0  5 15 13 19 02 06
  20524581.684    -6704654.064 6  -5164733.308 7
  18407646.200   -16403144.048 7 -12452301.820 9
  21220715.061     8140968.952 3   6355411.197 6
  17918019.521    -3753922.533 8  -2792631.879 9
  17516843.497   -27805425.010 7 -21533803.968 9
 91  4 18 23 57 14.9980000  0  5 15 13 19 02 06
  20523921.376    -6708096.006 5  -5167415.324 7
  18398065.205   -16453494.625 7 -12491535.918 9
  21227622.361     8177277.007 3   6383703.016 6
  17917571.964    -3756278.216 8  -2794467.481 9
  17512626.791   -27827582.115 7 -21551069.228 9
 91  4 18 23 57 30.1020000  0  5 15 13 19 02 06
  20523291.488    -6711455.003 5  -5170032.724 7
  18388341.381   -16504593.779 7 -12531353.324 9
  21234664.614     8214258.895 3   6412519.895 6
  17917123.937    -3758627.412 8  -2796298.026 9
  17508357.302   -27850020.674 7 -21568553.808 9
 91  4 18 23 57 45.2060000  0  4 15 13 02 06
  20522672.428    -6714672.165 5  -5172539.599 8
  18378639.060   -16555573.586 7 -12571077.738 9
  17916685.513    -3760930.747 8  -2798092.834 9
  17504105.180   -27872359.267 7 -21585960.486 9
 91  4 18 23 58  0.0540000  0  4 15 13 02 06
  20522099.010    -6717706.833 5  -5174904.268 7
  18369122.656   -16605582.855 7 -12610045.880 9
  17916262.064    -3763160.529 8  -2799830.325 9
  17499943.983   -27894231.708 7 -21603003.929 9
 91  4 18 23 58 15.1580000  0  4 15 13 02 06
  20521536.318    -6720655.484 5  -5177201.912 7
  18359464.689   -16656337.903 7 -12649595.139 9
  17915837.613    -3765385.801 8  -2801564.298 9
  17495728.277   -27916384.072 7 -21620265.492 9
 91  4 18 23 58 30.0060000  0  4 15 13 02 06
  20521013.945    -6723418.180 6  -5179354.652 7
  18349991.679   -16706118.036 7 -12688384.733 9
  17915428.905    -3767531.107 8  -2803235.970 9
  17491603.181   -27938065.251 7 -21637159.906 9
 91  4 18 23 58 45.1090000  0  4 15 13 02 06
  20520501.654    -6726088.285 6  -5181435.232 7
  18340378.180   -16756634.417 7 -12727748.020 9
  17915023.404    -3769668.393 8  -2804901.379 9
  17487425.404   -27960019.133 7 -21654266.808 9
 91  4 18 23 59  0.2130000  0  4 15 13 02 06
  20520019.958    -6728617.107 6  -5183405.716 7
  18330786.296   -16807033.929 7 -12767020.235 8
  17914624.583    -3771760.427 8  -2806531.546 9
  17483266.516   -27981873.519 7 -21671296.181 9
 91  4 18 23 59 15.0610000  0  4 15 13 02 06
  20519581.012    -6730970.306 6  -5185239.366 7
  18321379.020   -16856466.975 7 -12805539.380 9
  17914241.484    -3773777.934 8  -2808103.627 9
  17479195.600   -28003264.094 7 -21687964.148 9
 91  4 18 23 59 30.1650000  0  4 15 13 02 06
  20519145.805    -6733229.193 5  -5186999.508 7
  18311832.686   -16906637.955 7 -12844633.539 9
  17913856.740    -3775790.595 8  -2809671.937 9
  17475073.711   -28024928.245 7 -21704845.288 9
 91  4 18 23 59 45.0130000  0  4 15 13 02 06
  20518750.080    -6735307.476 5  -5188618.926 7
  18302470.358   -16955836.161 7 -12882969.684 9
  17913490.343    -3777720.401 8  -2811175.684 9
  17471038.906   -28046121.724 7 -21721359.671 9
 91  4 19  0  0  0.1170000  0  4 15 13 02 06
  20518371.648    -6737287.427 5
  18292967.918   -17005768.586 7 -12921877.953 9
  17913123.741    -3779644.437 8
  17466956.121   -28067585.609 7 -21738084.758 9
 91  4 19  0  0 15.2210000  0  4 15 13 02 06
  20518021.748    -6739122.078 5
  18283490.560   -17055576.034 7 -12960688.841 9
  17912767.569    -3781519.500 8
  17462891.713   -28088943.730 7 -21754727.430 9
 91  4 19  0  0 30.0690000  0  4 15 13 02 06
  20517708.224    -6740790.829 5  -5192891.64917
  18274194.987   -17104423.980 7 -12998752.061 9
  17912424.574    -3783321.606 8  -2815540.25919
  17458914.276   -28109842.993 7 -21771012.558 9
 91  4 19  0  0 45.1730000  0  4 15 13 02 06
  20517411.146    -6742344.578 6  -5194102.330 7
  18264762.806   -17153989.846 7 -13037374.702 9
  17912084.787    -3785106.098 8  -2816930.777 9
  17454888.839   -28130997.156 7 -21787496.297 9
 91  4 19  0  1  0.0210000  0  4 15 13 02 06
  20517145.480    -6743730.822 5  -5195182.509 8
  18255513.844   -17202593.212 7 -13075247.359 9
  17911760.108    -3786812.613 8  -2818260.534 9
  17450952.467   -28151688.944 7 -21803619.754 9
 91  4 19  0  1 15.1250000  0  4 15 13 02 06
  20516904.565    -6745002.625 5  -5196173.520 7
  18246127.847   -17251915.237 7 -13113679.995 9
  17911439.209    -3788505.498 8  -2819579.670 9
  17446965.224   -28172637.167 7 -21819943.024 9
 91  4 19  0  1 30.2290000  0  4 15 13 02 06
  20516689.760    -6746136.033 5  -5197056.663 8
  18236765.466   -17301117.880 7 -13152019.613 9
  17911123.489    -3790156.166 8  -2820865.908 9
  17442998.616   -28193485.077 7 -21836188.126 9
 91  4 19  0  1 45.0770000  0  4 15 13 02 06
  20516503.220    -6747119.249 5  -5197822.794 7
  18227582.332   -17349373.989 7 -13189621.666 9
  17910823.449    -3791741.582 8  -2822101.306 9
  17439115.752   -28213885.565 7 -21852084.591 9
 91  4 19  0  2  0.1810000  0  4 15 13 02 06
  20516338.306    -6747977.329 5  -5198491.414 7
  18218265.654   -17398337.943 7 -13227775.288 9
  17910524.666    -3793307.091 8  -2823321.188 9
  17435186.746   -28234532.458 7 -21868173.059 9
 91  4 19  0  2 15.0290000  0  4 15 13 02 06
  20516204.967    -6748681.485 5  -5199040.100 7
  18209128.202   -17446350.293 7 -13265187.391 9
  17910239.417    -3794800.325 8  -2824484.747 9
  17431344.732   -28254726.365 7 -21883908.552 9
 91  4 19  0  2 30.1330000  0  4 15 13 02 06
  20516095.122    -6749259.061 5  -5199490.143 7
  18199856.247   -17495069.638 7 -13303150.404 9
  17909959.215    -3796275.589 8  -2825634.309 9
  17427454.830   -28275166.191 7 -21899835.670 9
 91  4 19  0  2 45.2370000  0  4 15 13 02 06
  20516007.864    -6749697.631 5  -5199831.867 7
  18190609.727   -17543667.484 7 -13341018.760 9
  17909688.340    -3797707.607 8  -2826750.172 9
  17423583.529   -28295503.367 7 -21915682.801 9
 91  4 19  0  3  0.0850000  0  4 15 13 02 06
  20515955.194    -6749991.658 5  -5200060.963 7
  18181540.829   -17591321.425 7 -13378151.600 9
  17909428.292    -3799071.451 8  -2827812.916 9
  17419798.587   -28315394.011 7 -21931181.984 9
 91  4 19  0  3 15.1890000  0  4 15 13 02 06
  20515925.692    -6750159.396 5
  18172337.388   -17639682.606 7 -13415835.532 9
  17909170.267    -3800422.348 8  -2828865.567 9
  17415967.014   -28335532.039 7 -21946873.932 9
 91  4 19  0  3 30.0370000  0  4 15 13 02 06
  20515916.446    -6750190.999 5
  18163312.487   -17687107.193 7 -13452789.639 9
  17908925.716    -3801710.405 8  -2829869.253 9
  17412218.469   -28355230.117 7 -21962223.066 9
 91  4 19  0  3 45.1410000  0  4 15 13 02 06
  20515933.209    -6750086.550 5
  18154155.473   -17735229.360 7 -13490287.319 9
  17908683.699    -3802978.934 8  -2830857.724 9
  17408425.427   -28375166.298 7 -21977757.733 9
 91  4 19  0  4  0.2450000  0  4 15 13 02 06
  20515981.066    -6749845.337 5
  18145020.790   -17783231.220 7 -13527691.268 9
  17908450.108    -3804206.567 8  -2831814.328 9
  17404651.742   -28395000.937 7 -21993213.278 9
 91  4 19  0  4 15.0930000  0  4 15 13 02 06
  20516050.150    -6749468.483 5
  18136066.108   -17830295.667 7 -13564364.744 9
  17908229.930    -3805367.094 8  -2832718.642 9
  17400960.484   -28414393.766 7 -22008324.555 9
 91  4 19  0  4 30.1970000  0  4 15 13 02 06
  20516148.726    -6748951.766 5  -5199250.61618
  18126976.556   -17878053.867 7 -13601578.808 9
  17908013.114    -3806508.901 8  -2833608.373 9
  17397224.790   -28434021.718 7 -22023619.046 9
 91  4 19  0  4 45.0450000  0  4 15 13 02 06
  20516275.761    -6748307.700 5  -5198748.729 7
  18118065.769   -17924881.859 7 -13638068.052 9
  17907806.787    -3807588.260 8  -2834449.436 9
  17393572.829   -28453214.184 7 -22038574.201 9
 91  4 19  0  5  0.1490000  0  4 15 13 02 06
  20516427.894    -6747514.204 5  -5198130.421 7
  18109024.841   -17972394.068 7 -13675090.427 9
  17907606.304    -3808642.467 8  -2835270.902 9
  17389876.566   -28472632.790 7 -22053705.566 9
 91  4 19  0  5 14.9970000  0  4 15 13 02 06
  20516604.125    -6746595.049 5  -5197414.193 8
  18100160.768   -18018976.576 7 -13711388.357 9
  17907418.468    -3809632.664 8  -2836042.490 9
  17386265.760   -28491615.992 7 -22068497.662 9
 91  4 19  0  5 30.1010000  0  4 15 13 02 06
  20516801.655    -6745524.907 5  -5196580.309 8
  18091165.543   -18066241.813 7 -13748218.282 9
  17907234.932    -3810599.333 8  -2836795.753 9
  17382611.122   -28510824.341 7 -22083465.186 9
 91  4 19  0  5 45.2050000  0  4 15 13 02 06
  20517037.624    -6744315.569 6  -5195637.962 8
  18082194.998   -18113382.718 7 -13784951.334 9
  17907057.208    -3811522.520 8  -2837515.126 9
  17378974.657   -28529926.891 7 -22098350.281 9
 91  4 19  0  6  0.0530000  0  4 15 13 02 06
  20517285.729    -6742982.922 5  -5194599.528 8
  18073400.471   -18159594.720 7 -13820960.585 9
  17906896.033    -3812379.021 8  -2838182.539 9
  17375422.109   -28548593.707 7 -22112895.841 9
 91  4 19  0  6 15.1570000  0  4 15 13 02 06
  20517574.980    -6741488.746 5  -5193435.245 8
  18064478.826   -18206479.010 7 -13857493.707 9
  17906735.890    -3813206.136 8  -2838827.051 9
  17371829.834   -28567476.119 7 -22127609.401 9
 91  4 19  0  6 30.0050000  0  4 15 13 02 06
  20517876.684    -6739884.313 5  -5192185.028 8
  18055731.523   -18252446.506 7 -13893312.437 9
  17906590.640    -3813976.353 8  -2839427.229 9
  17368317.106   -28585934.287 7 -22141992.378 9
 91  4 19  0  6 45.1090000  0  4 15 13 02 06
  20518216.337    -6738108.958 5  -5190801.645 8
  18046857.910   -18299076.957 7 -13929647.759 9
  17906451.152    -3814711.251 8  -2839999.883 9
  17364765.498   -28604599.237 7 -22156536.489 9
 91  4 19  0  7  0.2130000  0  4 15 13 02 06
  20518577.860    -6736196.434 5  -5189311.372 8
  18038007.894   -18345583.671 7 -13965886.643 9
  17906321.337    -3815404.182 8  -2840539.837 9
  17361233.217   -28623158.598 7 -22170998.323 9
 91  4 19  0  7 15.0610000  0  4 15 13 02 06
  20518962.276    -6734176.789 5  -5187737.630 7
  18029331.301   -18391175.422 7 -14001412.582 9
  17906199.337    -3816038.528 8  -2841034.138 9
  17357783.853   -28641294.490 7 -22185130.181 9
 91  4 19  0  7 30.1650000  0  4 15 13 02 06
  20519380.279    -6731980.016 5  -5186025.834 8
  18020531.483   -18437423.726 7 -14037450.107 9
  17906085.489    -3816635.596 8  -2841499.397 9
  17354292.290   -28659631.389 7 -22199418.668 9
 91  4 19  0  7 45.0130000  0  4 15 13 02 06
  20519824.586    -6729684.640 5  -5184237.240 7
  18011902.952   -18482764.432 7 -14072780.422 9
  17905982.479    -3817178.953 8  -2841922.795 9
  17350883.909   -28677551.564 7 -22213382.435 9
 91  4 19  0  8  0.1170000  0  4 15 13 02 06
  20520294.115    -6727211.571 5  -5182310.171 8
  18003149.491   -18528761.036 7 -14108621.826 9
  17905885.475    -3817687.441 8  -2842319.026 9
  17347433.768   -28695672.641 7 -22227502.756 9
 91  4 19  0  8 15.2210000  0  4 15 13 02 06
  20520787.833    -6724598.073 5  -5180273.673 7
  17994420.607   -18574629.405 7 -14144363.319 9
  17905797.686    -3818150.448 8  -2842679.820 9
  17344006.745   -28713683.480 7 -22241537.171 9
 91  4 19  0  8 30.0690000  0  4 15 13 02 06
  20521303.370    -6721895.198 5  -5178167.552 7
  17985863.331   -18619598.576 7 -14179404.140 9
  17905716.669    -3818564.447 8  -2843002.419 9
  17340658.102   -28731284.667 7 -22255252.379 9
 91  4 19  0  8 45.1730000  0  4 15 13 02 06
  20521853.894    -6719003.185 5  -5175914.022 7
  17977184.663   -18665212.062 7 -14214947.038 9
  17905646.920    -3818936.793 8  -2843292.567 9
  17337271.960   -28749075.957 7 -22269115.718 9
 91  4 19  0  9  0.0210000  0  4 15 13 02 06
  20522416.544    -6716022.778 5  -5173591.623 7
  17968675.598   -18709926.117 7 -14249789.076 9
  17905588.141    -3819257.531 8  -2843542.505 9
  17333963.555   -28766456.791 7 -22282659.223 9
 91  4 19  0  9 15.1250000  0  4 15 13 02 06
  20523021.433    -6712853.222 5  -5171121.857 8
  17960044.094   -18755284.348 7 -14285133.064 9
  17905532.397    -3819539.745 8  -2843762.413 9
  17330621.103   -28784028.296 7 -22296351.296 9
 91  4 19  0  9 30.2290000  0  4 15 13 02 06
  20523650.962    -6709545.883 5  -5168544.719 8
  17951437.086   -18800515.529 7 -14320378.039 9
  17905486.776    -3819778.457 8  -2843948.435 9
  17327298.356   -28801490.498 7 -22309958.203 9
 91  4 19  0  9 45.0770000  0  4 15 13 02 06
  20524296.333    -6706164.312 5  -5165909.740 8
  17942998.915   -18844860.067 7 -14354932.120 9
  17905449.480    -3819974.717 8  -2844101.370 9
  17324050.588   -28818554.009 7 -22323254.454 9
 91  4 19  0 10  0.1810000  0  4 15 13 02 06
  20524974.108    -6702583.075 5  -5163119.162 7
  17934438.590   -18889838.082 7 -14389979.812 9
  17905420.478    -3820126.462 8
  17320769.672   -28835798.198 7 -22336691.468 9
 91  4 19  0 10 15.0290000  0  4 15 13 02 06
  20525673.252    -6698924.691 5  -5160268.495 7
  17926049.248   -18933925.662 7 -14424333.675 9
  17905402.377    -3820229.611 8
  17317563.960   -28852639.143 7 -22349814.277 9
 91  4 19  0 10 30.1330000  0  4 15 13 02 06
  20526402.593    -6695069.327 5  -5157264.308 7
  17917538.344   -18978649.276 7 -14459183.140 9
  17905388.943    -3820293.893 8
  17314325.223   -28869663.718 7 -22363080.171 9
 91  4 19  0 10 45.2370000  0  4 15 13 02 06
  20527167.472    -6691071.462 5  -5154149.095 7
  17909052.652   -19023239.917 7 -14493929.001 9
  17905385.072    -3820309.463 8
  17311107.416   -28886572.690 7 -22376255.992 9
 91  4 19  0 11  0.0850000  0  4 15 13 02 06
  20527942.177    -6687002.049 5  -5150978.123 7
  17900736.164   -19066944.618 7 -14527984.525 9
  17905392.845    -3820277.104 8
  17307965.518   -28903081.967 7 -22389120.359 9
 91  4 19  0 11 15.1890000  0  4 15 13 02 06
  20528753.658    -6682722.493 5  -5147643.404 7
  17892302.069   -19111271.725 7 -14562525.037 9
  17905408.453    -3820197.050 8
  17304791.167   -28919762.031 7 -22402117.800 9
 91  4 19  0 11 30.0370000  0  4 15 13 02 06
  20529582.453    -6678372.223 5  -5144253.586 7
  17884034.420   -19154712.810 7 -14596375.152 9
  17905433.378    -3820066.388 8
  17301694.287   -28936041.650 7 -22414803.212 9
 91  4 19  0 11 45.1410000  0  4 15 13 02 06
  20530453.876    -6673807.748 6  -5140696.850 7
  17875649.940   -19198771.907 7 -14630706.846 9
  17905467.527    -3819886.889 8
  17298563.463   -28952488.141 7 -22427618.652 9
 91  4 19  0 12  0.2450000  0  4 15 13 02 06
  20531348.201    -6669105.325 5  -5137032.622 7
  17867291.172   -19242701.353 7 -14664937.500 9
  17905510.828    -3819662.916 8  -2843858.45019
  17295455.827   -28968822.205 7 -22440346.489 9
 91  4 19  0 12 15.0930000  0  4 15 13 02 06
  20532256.633    -6664339.613 5  -5133319.085 7
  17859098.533   -19285751.302 7 -14698482.825 9
  17905559.196    -3819390.892 8  -2843646.486 9
  17292423.140   -28984761.019 7 -22452766.326 9
 91  4 19  0 12 30.1970000  0  4 15 13 02 06
  20533203.250    -6659353.957 5  -5129434.146 8
  17850789.503   -19329413.171 7 -14732504.968 9
  17905623.848    -3819068.916 8  -2843395.600 9
  17289359.143   -29000861.529 7 -22465312.166 9
 91  4 19  0 12 45.0450000  0  4 15 13 02 06
  20534162.186    -6654317.562 6  -5125509.688 8
  17842647.378   -19372207.259 7 -14765850.927 9
  17905691.921    -3818708.059 8  -2843114.416 9
  17286368.501   -29016577.794 7 -22477558.583 9
 91  4 19  0 13  0.1490000  0  4 15 13 02 06
  20535161.901    -6649053.121 5  -5121407.527 8
  17834388.014   -19415605.453 7 -14799667.621 9
  17905771.394    -3818292.347 8  -2842790.494 9
  17283347.868   -29032448.051 7 -22489925.015 9
 91  4 19  0 13 14.9970000  0  4 15 13 02 06
  20536175.090    -6643735.226 6  -5117263.713 7
  17826295.955   -19458132.442 7 -14832805.450 9
  17905856.067    -3817831.721 8  -2842431.570 9
  17280403.205   -29047930.127 7 -22501988.956 9
 91  4 19  0 13 30.1010000  0  4 15 13 02 06
  20537229.139    -6638183.470 5  -5112937.670 7
  17818088.259   -19501257.102 7 -14866408.988 9
  17905957.074    -3817313.032 8  -2842027.394 9
  17277427.334   -29063560.337 7 -22514168.325 9
 91  4 19  0 13 45.2050000  0  4 15 13 02 06
  20538317.214    -6632486.876 6  -5108498.779 7
  17809909.421   -19544243.495 7 -14899904.787 9
  17906065.354    -3816742.255 8  -2841582.644 9
  17274476.848   -29079068.979 7 -22526252.970 9
 91  4 19  0 14  0.0530000  0  4 15 13 02 06
  20539407.150    -6626746.843 6  -5104026.012 7
  17801893.128   -19586367.182 7 -14932728.350 9
  17906180.560    -3816131.355 8  -2841106.623 9
  17271597.204   -29094196.948 7 -22538040.983 9
 91  4 19  0 14 15.1570000  0  4 15 13 02 06
  20540543.002    -6620771.697 6  -5099370.062 7
  17793764.151   -19629087.012 7 -14966016.441 9
  17906308.270    -3815465.594 8  -2840587.849 9
  17268690.603   -29109472.177 7 -22549943.743 9
 91  4 19  0 14 30.0050000  0  4 15 13 02 06
  20541690.009    -6614763.498 6  -5094688.339 7
  17785796.389   -19670954.217 7 -14998640.150 9
  17906440.096    -3814766.999 8  -2840043.500 9
  17265854.343   -29124375.910 7 -22561557.024 9
 91  4 19  0 14 45.1090000  0  4 15 13 02 06
  20542876.078    -6608514.580 6  -5089819.049 7
  17777717.232   -19713411.566 7 -15031723.710 9
  17906584.854    -3814010.817 8  -2839454.275 9
  17262992.821   -29139421.225 7 -22573280.636 9
 91  4 19  0 15  0.2130000  0  4 15 13 02 06
  20544092.651    -6602119.291 5  -5084835.718 7
  17769664.736   -19755727.513 7 -15064697.089 9
  17906737.581    -3813200.406 8  -2838822.794 9
  17260152.159   -29154341.828 7 -22584907.070 9
 91  4 19  0 15 15.0610000  0  4 15 13 02 06
  20545318.202    -6595695.357 5  -5079830.054 7
  17761773.538   -19797193.921 7 -15097008.493 9
  17906900.297    -3812356.469 8  -2838165.185 9
  17257382.716   -29168893.243 7 -22596245.815 9
 91  4 19  0 15 30.1650000  0  4 15 13 02 06
  20546585.349    -6589017.200 5  -5074626.299 7
  17753773.333   -19839236.350 7 -15129768.737 9
  17907072.739    -3811445.696 8  -2837455.503 9
  17254589.810   -29183573.053 7 -22607684.611 9
 91  4 19  0 15 45.0130000  0  4 15 13 02 06
  20547859.637    -6582317.537 5  -5069405.786 7
  17745933.354   -19880435.793 7 -15161872.113 9
  17907250.901    -3810505.182 8  -2836722.649 9
  17251865.345   -29197889.409 7 -22618840.203 9
 91  4 19  0 16  0.1170000  0  4 15 13 02 06
  20549184.112    -6575370.179 6  -5063992.256 7
  17737982.152   -19922217.426 7 -15194429.141 9
  17907440.933    -3809507.175 8  -2835944.985 9
  17249115.761   -29212340.639 7 -22630100.888 9
 91  4 19  0 16 15.2210000  0  4 15 13 02 06
  20550534.370    -6568282.080 6  -5058469.077 7
  17730057.837   -19963862.166 7 -15226879.510 9
  17907641.160    -3808460.000 8  -2835129.017 9
  17246389.733   -29226671.066 7 -22641267.444 9
 91  4 19  0 16 30.0690000  0  4 15 13 02 06
  20551885.945    -6561174.995 5  -5052931.073 7
  17722293.093   -20004665.647 7 -15258674.345 9
  17907846.106    -3807380.481 8  -2834287.847 9
  17243731.299   -29240638.739 7 -22652151.337 9
 91  4 19  0 16 45.1730000  0  4 15 13 02 06
  20553290.506    -6553802.162 5  -5047186.021 7
  17714419.976   -20046032.944 7 -15290908.524 9
  17908066.569    -3806229.744 8  -2833391.173 9
  17241050.871   -29254723.313 7 -22663126.319 9
 91  4 19  0 17  0.0210000  0  4 15 13 02 06
  20554692.984    -6546419.648 5  -5041433.406 7
  17706706.134   -20086567.514 7 -15322493.829 9
  17908290.106    -3805052.716 8  -2832474.023 9
  17238437.353   -29268452.995 7 -22673824.769 9
 91  4 19  0 17 15.1250000  0  4 15 13 02 06
  20556145.087    -6538776.024 5  -5035477.334 7
  17698886.279   -20127670.002 7 -15354521.652 9
  17908526.106    -3803811.715 8  -2831507.017 9
  17235801.678   -29282304.084 7 -22684617.807 9
 91  4 19  0 17 30.2290000  0  4 15 13 02 06
  20557629.132    -6530987.813 5  -5029408.602 7
  17691090.971   -20168630.586 7 -15386438.915 9
  17908772.271    -3802517.200 8  -2830498.319 9
  17233191.736   -29296029.083 7 -22695312.603 9
 91  4 19  0 17 45.0770000  0  4 15 13 02 06
  20559113.055    -6523190.233 5  -5023332.571 7
  17683454.543   -20208757.542 7 -15417706.598 9
  17909024.666    -3801191.766 8  -2829465.521 9
  17230645.127   -29309397.648 7 -22705729.657 9
 91  4 19  0 18  0.1810000  0  4 15 13 02 06
  20560651.210    -6515118.188 5  -5017042.661 7
  17675713.834   -20249438.160 7 -15449405.707 9
  17909290.597    -3799793.426 8  -2828375.922 9
  17228081.479   -29322874.221 7 -22716230.876 9
 91  4 19  0 18 15.0290000  0  4 15 13 02 06
  20562183.757    -6507049.719 5  -5010755.546 7
  17668128.120   -20289297.941 7 -15480465.199 9
  17909560.981    -3798373.942 8  -2827269.836 9
  17225582.443   -29336006.256 7 -22726463.622 9
 91  4 19  0 18 30.1330000  0  4 15 13 02 06
  20563772.017    -6498706.946 5  -5004254.688 7
  17660437.782   -20329711.208 7 -15511955.979 9
  17909843.971    -3796884.383 8  -2826109.154 9
  17223062.056   -29349246.355 7 -22736780.585 9
 91  4 19  0 18 45.2370000  0  4 15 13 02 06
  20565387.348    -6490221.432 5  -4997642.593 7
  17652774.759   -20369983.170 7 -15543336.656 9
  17910138.085    -3795341.988 8  -2824907.299 9
  17220568.107   -29362360.317 7 -22746999.241 9
 91  4 19  0 19  0.0850000  0  4 15 13 02 06
  20566998.970    -6481744.932 5  -4991037.545 7
  17645265.955   -20409438.633 7 -15574081.101 9
  17910434.876    -3793778.577 8  -2823689.070 9
  17218137.696   -29375132.998 7 -22756951.973 9
 91  4 19  0 19 15.1890000  0  4 15 13 02 06
  20568668.308    -6472979.130 5  -4984207.049 7
  17637654.703   -20449431.898 7 -15605244.607 9
  17910748.623    -3792134.214 8  -2822407.757 9
  17215688.611   -29387998.576 7 -22766977.093 9
 91  4 19  0 19 30.0370000  0  4 15 13 02 06
  20570335.940    -6464223.294 5  -4977384.322 7
  17630200.540   -20488609.026 7 -15635772.165 9
  17911066.232    -3790466.437 8  -2821108.207 9
  17213306.293   -29400522.825 7 -22776736.241 9
 91  4 19  0 19 45.1410000  0  4 15 13 02 06
  20572054.903    -6455179.935 5  -4970337.557 7
  17622643.286   -20528325.087 7 -15666719.670 9
  17911397.295    -3788722.129 8  -2819749.015 9
  17210905.353   -29413141.519 7 -22786568.979 9
 91  4 19  0 20  0.2450000  0  4 15 13 02 06
  20573801.651    -6445998.973 5  -4963183.557 7
  17615112.274   -20567903.821 7 -15697560.167 9
  17911739.236    -3786930.140 8  -2818352.670 9
  17208523.893   -29425638.022 7 -22796306.506 9
 91  4 19  0 20 15.0930000  0  4 15 13 02 06
  20575545.130    -6436832.739 5  -4956041.027 7
  17607734.838   -20606670.574 7 -15727767.956 9
  17912084.661    -3785114.514 8  -2816937.907 9
  17206212.692   -29437796.090 7 -22805780.311 9
 91  4 19  0 20 30.1970000  0  4 15 13 02 06
  20577343.577    -6427374.145 5  -4948670.709 7
  17600255.311   -20645970.899 7 -15758391.504 9
  17912444.162    -3783221.618 8  -2815462.933 9
  17203882.165   -29450043.627 7 -22815323.842 9
 91  4 19  0 20 45.0450000  0  4 15 13 02 06
  20579142.729    -6417937.299 5  -4941317.330 7
  17592930.442   -20684465.848 7 -15788387.496 9
  17912808.516    -3781309.093 8  -2813972.663 9
  17201614.001   -29461958.825 7 -22824608.398 9
 91  4 19  0 21  0.1490000  0  4 15 13 02 06
  20580992.834    -6408206.592 5  -4933734.957 7
  17585503.585   -20723492.476 7 -15818797.787 9
  17913186.752    -3779320.530 8  -2812423.140 9
  17199330.045   -29473961.987 7 -22833961.504 9
 91  4 19  0 21 14.9970000  0  4 15 13 02 06
  20582840.978    -6398504.015 5  -4926174.530 6
  17578229.383   -20761719.817 7 -15848585.243 9
  17913568.522    -3777315.466 8  -2810860.758 9
  17197109.494   -29485638.046 7 -22843059.718 9
 91  4 19  0 21 30.1010000  0  4 15 13 02 06
  20584742.108    -6388501.177 5  -4918380.096 6
  17570854.286   -20800472.046 7 -15878781.708 9
  17913964.338    -3775230.861 8  -2809236.397 9
  17194871.016   -29497395.734 7 -22852221.545 9
 91  4 19  0 21 45.2050000  0  4 15 13 02 06
  20586673.791    -6378360.083 5  -4910477.949 7
  17563507.587   -20839083.948 7 -15908868.820 9
  17914370.043    -3773096.204 8  -2807573.033 9
  17192657.422   -29509027.594 7 -22861285.317 9
 91  4 19  0 22  0.0530000  0  4 15 13 02 06
  20588595.463    -6368253.027 5  -4902602.331 7
  17556311.072   -20876901.358 7 -15938336.866 9
  17914780.007    -3770945.883 8  -2805897.464 9
  17190505.312   -29520336.399 7 -22870097.361 9
 91  4 19  0 22 15.1570000  0  4 15 13 02 06
  20590581.644    -6357836.452 5  -4894485.516 7
  17549015.470   -20915233.267 7 -15968205.798 9
  17915205.467    -3768710.607 8  -2804155.694 9
  17188339.954   -29531716.829 7 -22878965.219 9
 91  4 19  0 22 30.0050000  0  4 15 13 02 06
  20592551.450    -6347469.428 5  -4886407.310 7
  17541869.153   -20952785.814 7 -15997467.455 9
  17915631.643    -3766471.981 8  -2802411.322 9
  17186233.333   -29542788.808 7 -22887592.724 9
 91  4 19  0 22 45.1090000  0  4 15 13 02 06
  20594585.887    -6336783.957 5  -4878080.972 6
  17534627.660   -20990843.155 7 -16027122.446 9
  17916075.685    -3764141.913 8  -2800595.685 9
  17184113.851   -29553923.055 7 -22896268.755 9
 91  4 19  0 23  0.2130000  0  4 15 13 02 06
  20596644.166    -6325959.908 5  -4869646.638 6
  17527412.942   -21028759.082 7 -16056667.245 9
  17916527.715    -3761760.767 8  -2798740.253 9
  17182019.580   -29564929.740 7 -22904845.379 9
 91  4 19  0 23 15.0610000  0  4 15 13 02 06
  20598693.507    -6315182.836 5  -4861248.922 7
  17520346.395   -21065892.528 7 -16085602.321 9
  17916982.810    -3759368.393 8  -2796876.069 9
  17179984.997   -29575623.626 7 -22913178.267 9
 91  4 19  0 23 30.1650000  0  4 15 13 02 06
  20600809.472    -6304079.894 5  -4852597.290 7
  17513185.899   -21103522.418 7 -16114924.243 9
  17917455.801    -3756881.157 8  -2794937.961 9
  17177939.370   -29586372.072 7 -22921553.674 9
 91  4 19  0 23 45.0130000  0  4 15 13 02 06
  20602909.184    -6293035.606 5  -4843991.353 7
  17506172.389   -21140381.104 7 -16143645.223 9
  17917929.539    -3754391.438 8  -2792997.923 9
  17175952.093   -29596818.626 7 -22929693.841 9
 91  4 19  0 24  0.1170000  0  4 15 13 02 06
  20605073.190    -6281665.474 5  -4835131.519 6
  17499063.470   -21177735.893 7 -16172752.775 9
  17918420.999    -3751809.487 8  -2790986.017 9
  17173952.854   -29607319.462 7 -22937876.294 9
 91  4 19  0 24 15.2210000  0  4 15 13 02 06
  20607263.142    -6270154.810 5  -4826162.176 6
  17491982.530   -21214945.964 7 -16201747.567 9
  17918923.461    -3749173.710 8  -2788932.167 9
  17171980.266   -29617689.144 7 -22945956.562 9
 91  4 19  0 24 30.0690000  0  4 15 13 02 06
  20609443.135    -6258709.601 5  -4817243.841 7
  17485046.993   -21251391.169 7 -16230146.357 9
  17919424.014    -3746537.333 8  -2786877.851 9
  17170063.024   -29627762.278 7 -22953805.752 9
 91  4 19  0 24 45.1730000  0  4 15 13 02 06
  20611683.090    -6246938.807 5  -4808071.800 7
  17478016.894   -21288331.661 7 -16258931.083 9
  17919942.800    -3743812.900 8  -2784754.921 9
  17168135.086   -29637889.536 7 -22961697.111 9
 91  4 19  0 25  0.0210000  0  4 15 13 02 06
  20613908.673    -6235234.146 5  -4798951.285 6
  17471133.219   -21324507.945 7 -16287120.324 9
  17920463.179    -3741085.299 8  -2782629.528 9
  17166265.304   -29647719.806 7 -22969357.061 9
 91  4 19  0 25 15.1250000  0  4 15 13 02 06
  20616202.166    -6223194.336 5  -4789569.630 6
  17464155.708   -21361169.550 7 -16315687.733 9
  17920999.464    -3738262.636 8  -2780430.058 9
  17164386.818   -29657594.216 7 -22977051.404 9
 91  4 19  0 25 30.2290000  0  4 15 13 02 06
  20618518.480    -6211018.642 5  -4780082.076 6
  17457206.309   -21397689.353 7 -16344144.656 9
  17921546.189    -3735389.639 8  -2778191.364 9
  17162531.991   -29667340.080 7 -22984645.574 9
 91  4 19  0 25 45.0770000  0  4 15 13 02 06
  20620820.165    -6198920.470 5  -4770654.944 6
  17450400.720   -21433455.296 7 -16372014.145 9
  17922092.842    -3732519.727 8  -2775955.077 9
  17160731.263   -29676798.850 7 -22992016.044 9
 91  4 19  0 26  0.1810000  0  4 15 13 02 06
  20623184.235    -6186482.308 5  -4760962.881 6
  17443502.775   -21469700.574 7 -16400257.149 9
  17922656.718    -3729553.725 8  -2773643.916 9
  17158923.926   -29686296.225 7 -22999416.591 9
 91  4 19  0 26 15.0290000  0  4 15 13 02 06
  20625538.865    -6174124.144 5  -4751333.157 7
  17436749.037   -21505194.364 7 -16427914.578 9
  17923221.125    -3726589.956 8  -2771334.494 9
  17157171.832   -29695508.167 7 -23006594.727 9
 91  4 19  0 26 30.1330000  0  4 15 13 02 06
  20627954.603    -6161417.770 5  -4741432.096 6
  17429905.580   -21541158.415 7 -16455938.442 9
  17923803.674    -3723524.323 8  -2768945.695 9
  17155412.506   -29704749.823 7 -23013796.016 9
 91  4 19  0 26 45.2370000  0  4 15 13 02 06
  20630397.962    -6148578.294 5  -4731427.313 6
  17423087.825   -21576982.240 7 -16483853.039 9
  17924396.652    -3720410.155 8  -2766519.086 9
  17153677.952   -29713864.038 7 -23020898.006 9
 91  4 19  0 27  0.0850000  0  4 15 13 02 06
  20632829.309    -6135831.978 5  -4721495.132 7
  17416411.345   -21612067.408 7 -16511192.060 9
  17924987.609    -3717306.713 8  -2764100.835 9
  17151996.517   -29722704.802 7 -23027786.905 9
 91  4 19  0 27 15.1890000  0  4 15 13 02 06
  20635316.603    -6122734.954 5  -4711289.670 6
  17409646.259   -21647619.194 7 -16538894.685 9
  17925596.778    -3714102.387 8  -2761603.972 9
  17150308.677   -29731572.107 7 -23034696.497 9
 91  4 19  0 27 30.0370000  0  4 15 13 02 06
  20637794.714    -6109731.909 5  -4701157.446 6
  17403020.682   -21682432.783 7 -16566022.083 9
  17926204.967    -3710906.325 8  -2759113.550 9
  17148672.760   -29740165.815 7 -23041392.887 9
 91  4 19  0 27 45.1410000  0  4 15 13 02 06
  20640332.605    -6096371.448 5  -4690746.693 7
  17396309.583   -21717705.359 7 -16593507.144 9
  17926833.709    -3707605.096 8  -2756541.178 9
  17147034.535   -29748778.755 7 -23048104.268 9
 91  4 19  0 28  0.2450000  0  4 15 13 02 06
  20642902.989    -6082882.425 5  -4680235.789 7
  17389623.184   -21752841.394 7 -16620885.804 9
  17927469.479    -3704259.415 8  -2753934.176 9
  17145419.028   -29757267.456 7 -23054718.836 9
 91  4 19  0 28 15.0930000  0  4 15 13 02 06
  20645445.966    -6069494.940 5  -4669803.984 7
  17383076.336   -21787246.685 7 -16647695.047 9
  17928104.555    -3700924.818 8  -2751335.803 9
  17143853.852   -29765488.874 7 -23061125.133 9
 91  4 19  0 28 30.1970000  0  4 15 13 02 06
  20648067.549    -6055746.818 5  -4659091.180 7
  17376442.504   -21822106.654 7 -16674858.588 9
  17928759.458    -3697485.585 8  -2748655.902 9
  17142286.111   -29773725.529 7 -23067543.302 9
 91  4 19  0 28 45.0450000  0  4 15 13 02 06
  20650661.132    -6042096.216 5  -4648454.377 6
  17369948.404   -21856231.442 7 -16701449.268 9
  17929412.931    -3694050.014 8  -2745978.850 9
  17140771.960   -29781690.038 7 -23073749.410 9
 91  4 19  0 29  0.1490000  0  4 15 13 02 06
  20653329.592    -6028082.736 5  -4637534.788 7
  17363369.161   -21890807.859 7 -16728391.855 9
  17930086.762    -3690509.862 8  -2743220.311 9
  17139254.631   -29789666.815 7 -23079965.081 9
 91  4 19  0 29 14.9970000  0  4 15 13 02 06
  20655975.528    -6014176.677 5  -4626698.911 7
  17356927.793   -21924658.494 7 -16754768.904 9
  17930758.387    -3686980.036 8  -2740469.814 9
  17137786.212   -29797380.336 7 -23085975.614 9
 91  4 19  0 29 30.1010000  0  4 15 13 02 06
  20658693.889    -5999900.282 5  -4615574.454 6
  17350401.976   -21958952.518 7 -16781491.459 9
  17931451.515    -3683340.563 8  -2737633.885 9
  17136316.558   -29805098.310 7 -23091989.619 9
 91  4 19  0 29 45.2050000  0  4 15 13 02 06
  20661434.662    -5985496.759 5  -4604350.939 7
  17343901.226   -21993109.632 7 -16808107.322 9
  17932152.397    -3679656.353 8  -2734763.092 9
  17134872.370   -29812691.035 7 -23097906.026 9
 91  4 19  0 30  0.0530000  0  4 15 13 02 06
  20664152.604    -5971204.836 5  -4593214.384 7
  17337539.741   -22026545.268 7 -16834161.006 9
  17932850.326    -3675982.203 8  -2731900.140 9
  17133477.347   -29820023.802 7 -23103619.870 9
 91  4 19  0 30 15.1570000  0  4 15 13 02 06
  20666943.983    -5956538.905 5  -4581786.388 7
  17331092.887   -22060419.290 7 -16860556.271 9
  17933570.841    -3672198.348 8  -2728951.702 9
  17132081.099   -29827356.473 7 -23109333.638 9
 91  4 19  0 30 30.0050000  0  4 15 13 02 06
  20669712.469    -5941992.175 5  -4570451.296 7
  17324782.600   -22093579.519 7 -16886395.350 9
  17934288.608    -3668428.836 8  -2726014.438 9
  17130733.720   -29834436.183 7 -23114850.291 9
 91  4 19  0 30 45.1090000  0  4 15 13 02 06
  20672551.767    -5927062.017 5  -4558817.412 7
  17318390.469   -22127167.869 7 -16912568.017 9
  17935029.522    -3664542.382 8  -2722986.059 9
  17129388.332   -29841505.562 7 -23120358.899 9
 91  4 19  0 31  0.2130000  0  4 15 13 02 06
  20675420.127    -5912006.185 5  -4547085.622 7
  17312025.520   -22160619.242 7 -16938633.961 9
  17935776.903    -3660611.398 8  -2719922.976 9
  17128066.522   -29848449.063 7 -23125769.414 9
 91  4 19  0 31 15.0610000  0  4 15 13 02 06
  20678258.128    -5897076.402 5  -4535452.045 7
  17305794.585   -22193363.151 7 -16964148.630 9
  17936521.423    -3656696.722 8  -2716872.598 9
  17126793.050   -29855145.210 7 -23130987.191 9
 91  4 19  0 31 30.1650000  0  4 15 13 02 06
  20681173.222    -5881758.940 5  -4523516.381 7
  17299482.765   -22226529.532 7 -16989992.496 9
  17937287.651    -3652664.274 8  -2713730.454 9
  17125521.630   -29861825.696 7 -23136192.760 9
 91  4 19  0 31 45.0130000  0  4 15 13 02 06
  20684065.209    -5866567.998 5  -4511679.294 7
  17293306.083   -22258989.149 7 -17015285.639 9
  17938052.346    -3648645.580 8  -2710599.020 9
  17124298.764   -29868258.872 7 -23141205.621 9
 91  4 19  0 32  0.1170000  0  4 15 13 02 06
  20687030.187    -5850987.763 5  -4499538.896 7
  17287048.537   -22291868.817 7 -17040906.095 9
  17938839.862    -3644509.855 8  -2707376.399 9
  17123077.757   -29874674.100 7 -23146204.499 9
 91  4 19  0 32 15.2210000  0  4 15 13 02 06
  20690019.281    -5835278.650 5  -4487298.026 7
  17280818.358   -22324607.106 7 -17066416.383 9
  17939636.695    -3640325.329 8  -2704115.745 9
  17121880.765   -29880958.622 7 -23151101.527 9
 91  4 19  0 32 30.0690000  0  4 15 13 02 06
  20692978.139    -5819708.744 5  -4475165.676 7
  17274721.118   -22356651.159 7 -17091385.708 9
  17940430.002    -3636162.507 8  -2700872.009 9
  17120729.619   -29887007.531 7 -23155814.963 9
 91  4 19  0 32 45.1730000  0  4 15 13 02 06
  20696021.424    -5803742.367 5  -4462724.357 7
  17268544.783   -22389106.937 7 -17116675.866 9
  17941243.700    -3631878.905 8  -2697534.153 9
  17119584.950   -29893030.173 7 -23160507.931 9
 91  4 19  0 33  0.0210000  0  4 15 13 02 06
  20699028.528    -5787917.895 5  -4450393.621 7
  17262501.123   -22420870.948 7 -17141426.982 9
  17942055.211    -3627616.481 8  -2694212.794 9
  17118481.376   -29898819.184 7 -23165018.849 9
 91  4 19  0 33 15.1250000  0  4 15 13 02 06
  20702123.032    -5771692.148 5  -4437750.206 7
  17256379.102   -22453040.733 7 -17166494.283 9
  17942889.502    -3623230.809 8  -2690795.398 9
  17117387.323   -29904576.383 7 -23169504.978 9
